GFSWCAN_925_spd_000.txt.gz
Wind_Speed
30 30 30 29 27 26 24 22 21 21 17 16 15 14 13 11 8 12 13 19 11 4 12 22 22 17 10 10 7 7 6 4 4 5 8 10 10 11 15 18 23 18 15 11 7 9 15 9 2 1 14 14 7 10
30 31 31 29 27 26 22 20 18 17 14 14 15 10 10 9 9 9 6 12 17 6 8 26 27 23 22 23 14 6 7 6 3 4 3 5 4 3 12 12 3 14 14 8 11 8 5 6 1 1 7 4 8 12
31 31 30 28 26 24 19 18 17 13 13 12 9 10 9 8 9 9 11 10 6 5 11 15 15 19 29 32 21 10 5 5 3 4 5 3 6 4 6 4 14 4 7 7 9 5 9 9 6 8 6 6 15 12
26 25 27 27 22 17 14 13 11 11 12 7 9 9 8 7 6 7 7 9 9 5 5 3 1 5 6 17 30 32 18 6 5 6 3 3 4 6 1 3 4 6 4 9 5 6 13 13 10 7 4 7 13 14
22 24 23 22 16 14 11 9 9 8 7 8 7 7 7 5 8 9 11 12 12 5 6 11 26 7 8 20 18 24 20 14 6 5 4 2 4 4 2 3 4 7 6 3 6 9 9 9 9 3 10 12 13 16
23 20 20 17 17 16 15 11 11 7 7 7 6 4 5 6 7 7 3 1 8 11 5 4 8 3 1 12 18 14 11 7 8 5 2 3 8 4 3 2 7 7 4 4 4 9 15 15 8 9 10 13 13 16
20 18 16 18 18 17 15 12 9 8 7 7 6 6 5 6 5 5 3 5 3 7 2 4 4 2 2 8 6 7 10 5 6 6 3 2 4 1 2 3 8 7 9 12 16 14 13 11 8 12 9 12 14 15
19 15 15 17 17 16 15 13 11 10 10 10 10 9 8 9 8 6 1 7 8 5 3 3 4 3 7 5 6 6 6 5 5 3 2 3 1 3 4 7 8 12 14 15 14 16 12 15 10 6 7 8 13 9
17 14 15 17 17 16 15 16 16 14 14 14 14 10 3 3 3 1 5 7 12 3 3 3 3 2 1 2 4 5 5 5 3 1 2 3 3 4 6 11 12 12 10 12 11 13 10 12 11 7 8 8 9 6
18 17 15 16 16 15 15 20 20 19 13 11 5 4 1 1 8 7 3 3 5 5 4 4 4 5 5 3 6 6 4 5 2 2 4 3 5 9 7 9 8 10 12 8 10 10 11 7 7 8 11 9 7 6
18 18 17 15 15 14 16 19 23 21 8 7 4 3 9 11 4 3 1 2 2 3 4 3 4 6 2 3 1 2 2 7 3 3 2 3 2 4 6 6 7 8 10 8 7 6 6 4 6 6 7 6 4 6
20 19 16 16 15 16 19 21 22 17 12 9 10 8 5 3 2 4 3 4 3 3 1 5 7 4 3 3 4 3 1 2 5 3 3 3 4 5 6 7 7 5 4 5 8 3 3 3 5 3 2 3 5 4
18 17 15 17 21 24 24 23 21 20 10 2 2 3 4 2 2 5 8 4 3 6 5 7 6 2 4 5 4 2 2 4 5 3 3 4 8 9 7 4 10 9 10 8 6 5 5 6 6 5 3 5 2 3
17 14 16 21 32 29 25 20 15 8 3 3 5 5 5 4 4 2 6 6 6 7 10 7 5 3 3 3 3 3 4 1 4 4 4 6 8 9 8 6 7 8 7 7 6 5 5 7 8 7 6 4 5 6
20 19 17 23 34 31 21 15 9 4 2 3 2 3 4 5 5 4 4 5 4 7 6 3 4 4 5 3 4 4 4 5 6 3 4 7 7 9 8 9 8 7 6 5 3 4 5 6 6 8 7 7 7 7
24 14 13 35 36 29 16 10 6 4 1 0 2 2 7 6 11 11 10 9 8 8 3 2 2 3 6 4 7 7 4 5 3 3 3 5 7 6 7 7 7 6 5 5 5 5 6 8 6 4 6 8 8 6
16 10 29 33 35 23 12 5 4 3 4 5 4 8 8 7 9 9 10 10 9 4 4 3 5 6 4 5 4 4 2 3 2 4 4 7 5 4 5 6 6 6 5 6 5 4 5 4 6 5 6 8 9 7
14 25 28 30 29 14 6 7 3 3 4 5 5 9 8 7 9 10 9 9 7 5 6 4 3 7 4 3 3 3 1 2 3 4 5 6 5 5 6 6 7 9 9 9 8 5 7 7 6 6 6 7 3 6
25 24 22 25 18 5 5 5 5 4 5 5 7 8 7 7 8 8 8 8 4 3 1 3 6 5 4 3 5 5 4 4 3 5 5 5 8 7 7 6 8 10 10 12 12 10 10 11 10 10 10 10 10 9
17 13 23 14 12 3 3 3 4 3 5 5 6 8 5 8 8 8 9 9 7 6 7 5 6 5 6 6 5 5 5 5 3 2 5 5 10 9 12 10 9 9 10 11 14 16 13 12 13 13 12 10 11 11
11 12 14 13 6 8 3 4 3 3 4 4 7 6 5 6 8 10 9 7 8 7 7 6 6 5 6 6 7 6 5 6 5 4 4 5 8 11 11 11 11 13 12 12 9 11 13 12 14 14 13 12 13 13
7 15 7 7 5 4 3 7 4 4 3 4 5 5 4 6 7 9 8 7 5 5 5 5 6 6 6 6 6 7 7 8 6 4 4 4 4 6 7 10 9 8 11 12 13 12 13 15 15 16 14 14 14 14
9 5 4 4 3 3 2 6 3 4 4 5 5 5 4 5 6 5 3 3 2 3 3 4 7 9 11 15 16 17 15 12 8 8 5 6 7 6 6 7 7 8 7 10 12 13 13 10 12 14 13 14 13 11
5 4 4 4 5 4 3 3 2 3 2 3 2 3 3 3 4 2 4 2 2 4 4 7 8 5 6 13 10 13 18 17 13 10 8 3 4 4 3 3 4 7 9 10 12 14 15 13 12 13 14 13 12 12
4 5 3 4 1 4 3 3 3 2 3 3 3 2 3 2 3 5 7 6 8 8 8 10 11 11 10 10 12 18 22 20 15 9 11 9 5 2 1 2 3 6 12 14 15 16 17 16 13 12 14 12 12 14
3 2 3 5 3 4 5 6 6 5 2 1 1 1 1 2 5 5 5 7 8 9 9 10 9 9 10 16 11 13 19 19 16 12 14 13 12 12 9 7 7 10 16 16 16 17 17 16 15 14 14 14 12 14
4 5 2 0 3 3 2 2 2 3 3 4 2 3 2 3 5 4 5 9 6 11 12 14 15 14 12 16 18 19 18 17 13 9 8 10 12 14 13 12 11 15 15 16 16 15 15 15 15 15 15 16 17 17
3 2 5 5 2 2 3 3 2 3 3 2 2 4 3 6 5 5 5 9 7 10 14 17 17 17 16 15 16 18 18 18 16 14 9 2 7 14 17 15 14 13 10 12 15 14 16 16 16 16 17 17 17 14
3 2 3 4 1 1 2 4 5 4 5 3 2 3 5 6 10 11 17 20 19 18 19 17 14 15 16 18 18 14 13 17 17 14 13 8 11 15 15 15 16 16 16 17 13 12 14 17 15 14 14 15 15 14
5 3 3 3 4 4 3 4 6 7 8 11 12 12 9 10 12 15 13 13 14 9 7 9 13 16 16 17 17 17 14 16 16 15 10 9 13 15 16 17 17 17 16 17 17 16 16 17 13 12 13 14 13 15
5 4 5 4 5 5 6 10 15 16 14 11 8 6 3 3 2 5 9 7 5 8 12 14 15 16 18 18 16 14 12 14 14 15 16 15 15 16 17 17 16 16 15 15 15 14 15 15 13 13 14 15 16 16
4 6 8 7 5 5 7 3 5 8 5 1 1 2 3 4 3 3 7 9 11 13 12 14 15 15 16 14 12 11 10 11 14 15 16 16 16 16 15 14 14 14 14 13 13 13 14 15 15 15 15 14 15 15
3 6 6 6 5 5 4 3 3 4 3 3 2 2 0 2 4 4 4 10 10 11 12 12 12 12 12 11 11 9 9 9 6 12 18 17 15 14 13 14 14 15 15 14 14 14 14 15 15 15 16 16 16 16

GFSWCAN_925_spd_003.txt.gz
Wind_Speed
31 31 31 31 31 30 26 24 21 20 17 16 15 13 14 12 11 11 10 14 13 3 10 20 24 21 17 12 8 7 5 4 3 8 11 14 15 19 21 23 25 22 20 19 18 22 23 7 7 6 8 13 14 13
30 29 26 27 30 28 23 20 16 17 17 13 14 13 8 8 8 8 9 12 15 7 10 24 28 27 23 21 14 11 8 2 4 4 3 6 5 8 18 15 25 23 20 16 18 14 9 9 11 6 7 8 8 6
26 24 25 26 26 22 17 15 14 14 13 13 11 8 10 9 9 13 11 12 8 4 10 16 18 25 28 34 29 11 10 4 2 9 3 3 6 4 7 10 18 6 19 17 11 12 10 11 11 9 10 4 7 9
22 23 23 22 22 21 18 16 13 12 11 9 9 9 9 9 8 8 8 7 6 4 5 10 3 3 6 14 27 26 18 5 5 7 6 3 5 5 3 4 3 5 10 9 16 15 16 14 13 10 9 10 14 16
21 20 19 20 22 21 20 16 12 13 10 10 9 9 8 7 9 11 13 14 15 4 6 12 23 19 18 19 16 23 19 12 7 4 2 3 3 3 6 2 5 6 6 1 8 17 16 14 12 13 14 13 12 12
20 18 19 20 22 20 19 17 14 12 11 11 10 9 8 9 10 10 2 1 5 11 6 5 9 5 3 13 12 13 10 8 4 1 4 4 5 4 4 4 7 6 13 7 13 19 21 18 18 17 14 12 14 13
20 18 19 21 21 20 18 17 15 14 13 12 12 11 10 11 10 5 4 6 10 1 2 4 4 5 7 11 9 7 10 4 3 2 5 3 3 5 2 3 6 7 10 12 16 17 14 10 8 12 13 13 11 10
21 20 19 20 19 17 17 19 20 19 18 17 16 15 14 14 14 10 4 6 5 3 3 3 5 4 15 9 7 8 7 6 6 5 3 1 2 3 1 4 9 9 16 18 17 17 16 14 14 13 13 15 12 13
21 20 19 18 17 17 19 21 24 26 20 16 15 14 9 6 4 2 2 6 8 3 2 3 2 3 7 2 2 9 9 8 5 2 3 1 2 3 6 8 8 8 9 13 16 19 19 18 15 12 13 10 14 8
22 21 20 19 19 20 22 24 27 27 12 10 6 4 3 2 6 7 6 4 3 5 4 4 7 4 7 4 7 7 6 2 2 4 0 3 3 6 6 7 8 10 9 6 9 11 13 15 11 6 8 8 3 8
22 21 19 18 21 28 29 28 27 22 9 6 3 3 13 12 4 3 2 3 4 4 5 3 6 6 7 4 2 4 2 3 1 4 0 2 2 2 6 9 7 8 8 8 9 7 8 9 4 5 2 3 7 4
22 21 20 21 25 34 35 27 22 13 10 8 10 10 7 3 2 3 4 4 3 2 3 2 3 5 2 3 3 2 2 1 4 3 3 2 3 7 7 8 6 6 7 9 6 8 4 6 7 4 5 4 3 4
23 24 25 25 27 38 33 23 18 12 7 3 3 3 5 3 3 5 6 0 4 7 6 4 5 4 3 2 4 5 5 3 6 3 3 2 4 5 7 8 6 7 9 7 4 1 2 2 8 9 6 4 7 5
26 29 25 19 31 39 30 18 12 6 3 3 4 4 4 4 4 4 9 7 5 5 5 2 4 3 6 1 3 7 5 4 3 3 2 4 5 4 6 8 11 9 6 8 8 8 6 6 9 9 9 9 7 8
30 25 12 24 37 37 23 14 8 5 3 3 3 5 4 5 9 10 8 9 8 9 7 3 4 5 6 5 3 4 5 5 5 2 4 4 6 3 5 6 7 7 5 6 7 7 7 7 8 9 10 8 7 7
28 12 17 35 37 32 19 9 3 3 1 1 2 3 4 8 12 12 12 12 11 8 4 1 5 4 8 5 7 8 4 4 4 2 6 4 7 7 4 3 7 7 9 7 5 9 10 8 6 8 9 8 10 10
19 11 30 33 35 22 12 7 4 2 5 3 3 10 9 9 9 11 11 11 12 10 8 5 7 6 3 4 5 5 3 2 5 5 4 3 6 6 4 6 5 6 6 8 8 6 2 2 9 10 7 6 3 6
14 22 27 26 28 15 5 8 4 4 6 7 8 9 8 8 10 10 9 9 8 9 9 6 5 9 5 4 3 3 1 1 3 3 4 6 7 6 5 7 8 8 8 8 5 7 8 12 4 3 5 3 8 4
22 20 18 22 14 5 4 4 6 4 6 6 8 7 7 8 8 7 8 7 7 7 6 5 7 4 4 4 6 6 8 6 5 6 6 8 9 8 8 9 10 11 12 11 14 11 12 12 13 15 16 17 13 11
12 10 19 10 6 4 3 3 4 3 5 5 7 7 7 8 8 8 10 10 9 10 9 7 9 8 7 8 8 9 8 7 5 6 5 6 11 11 12 10 9 10 12 11 15 19 13 14 15 15 14 14 13 15
8 10 11 11 4 7 4 4 3 3 4 4 6 4 7 10 11 11 12 11 10 12 9 8 9 8 10 13 14 11 8 9 7 6 6 8 11 11 10 10 11 12 11 11 9 11 12 12 14 16 14 13 14 14
7 13 5 5 4 3 3 6 4 5 3 3 8 8 5 7 7 9 8 8 4 5 4 7 8 8 10 12 11 15 13 12 11 9 9 7 3 6 7 12 13 9 10 11 11 11 12 13 12 15 13 13 13 12
9 5 4 4 3 3 2 3 2 3 4 3 4 3 3 4 3 3 3 3 4 4 7 5 7 8 9 17 20 23 22 13 8 9 5 6 7 6 4 4 8 9 9 11 10 11 12 12 12 14 13 14 13 13
6 5 4 3 3 2 1 3 2 2 2 2 3 3 3 3 3 4 8 6 3 5 7 12 18 10 12 16 12 16 21 20 15 11 14 13 4 6 5 6 6 8 10 14 16 16 16 17 17 15 13 15 14 14
4 4 3 3 2 2 2 2 2 2 3 2 2 2 3 1 3 5 8 8 9 11 10 13 12 9 10 10 13 18 22 20 15 10 18 17 18 17 11 10 19 15 16 16 17 18 19 18 17 16 16 14 15 15
3 2 3 7 3 4 5 4 3 3 3 3 3 3 1 0 6 5 4 7 7 8 8 10 9 10 10 15 11 14 19 19 15 11 13 14 15 14 11 9 8 15 21 19 19 19 18 19 19 18 17 16 14 16
4 5 2 1 4 3 3 1 1 2 2 3 3 3 4 4 5 3 4 9 7 15 17 20 20 17 12 13 13 15 16 17 16 15 7 7 10 15 16 15 15 17 18 15 17 18 16 18 20 19 19 19 19 19
4 5 7 6 3 3 5 6 5 5 7 5 3 4 3 4 4 4 6 16 19 21 20 16 13 15 15 16 17 17 14 17 17 16 14 7 14 16 15 15 15 14 15 12 15 16 16 18 18 17 15 15 15 16
2 6 4 8 6 4 5 6 6 6 8 8 2 4 3 3 7 10 10 8 7 7 5 9 8 13 17 18 16 16 16 17 17 14 13 9 12 16 17 16 16 16 16 16 12 10 15 15 12 12 13 15 15 15
8 6 4 6 11 6 6 7 9 9 10 9 6 8 5 2 3 2 3 4 4 6 11 16 17 17 17 17 16 16 15 17 18 17 12 11 15 17 17 16 16 15 15 14 14 13 15 16 11 13 16 17 17 17
4 7 6 5 6 4 8 9 11 11 8 9 7 6 4 3 5 1 6 9 13 15 15 16 16 16 17 16 15 13 13 15 15 16 17 15 15 14 14 14 14 14 14 14 14 14 15 16 15 15 15 15 15 15
4 4 5 3 5 5 10 4 2 4 3 3 4 3 4 2 1 2 12 15 15 15 13 14 14 14 14 14 12 10 8 8 11 15 17 15 13 12 14 14 14 15 15 14 13 14 14 15 16 16 17 17 18 18
3 7 6 5 3 1 6 6 4 3 3 2 3 1 1 4 4 4 5 10 10 13 14 15 11 11 10 11 12 12 10 8 7 12 18 15 11 11 12 14 15 17 17 16 16 16 16 17 16 17 16 16 17 17

GFSWCAN_925_spd_006.txt.gz
Wind_Speed
28 27 27 27 27 28 28 22 19 17 16 17 16 14 13 15 11 10 11 10 10 4 11 17 23 19 15 9 8 5 7 7 9 12 10 7 10 9 12 17 10 8 9 11 11 11 15 14 17 18 4 3 5 8
26 25 25 26 24 25 24 22 19 17 16 15 13 13 10 8 9 8 10 10 10 5 8 26 26 31 29 23 14 9 7 7 4 4 1 4 7 5 12 12 17 13 14 11 12 11 9 7 10 6 7 6 13 13
23 23 22 21 24 24 23 21 19 17 17 14 12 10 10 11 10 10 15 14 6 3 10 14 17 27 31 35 31 13 9 9 5 4 2 2 5 4 5 10 17 15 12 15 15 13 4 11 9 8 11 19 18 20
22 20 21 22 24 24 22 22 18 16 15 14 13 11 11 11 11 10 10 11 6 3 5 11 11 19 20 21 28 25 19 6 5 2 4 3 3 2 4 7 8 6 10 12 14 15 14 12 10 11 17 17 18 19
21 20 20 22 23 22 20 21 19 17 16 15 13 13 12 11 12 13 16 16 16 4 4 11 25 29 21 18 13 18 17 12 8 3 1 2 2 3 3 3 3 5 4 4 1 11 13 12 10 14 17 18 18 19
21 22 21 22 23 21 20 20 20 19 18 18 16 15 14 13 12 11 3 2 6 10 3 6 14 14 19 21 14 12 11 10 6 2 1 2 6 4 3 2 4 7 5 8 5 5 21 20 18 19 19 18 18 18
22 22 22 21 20 20 21 23 22 23 24 22 20 18 17 15 12 7 5 5 16 11 3 5 6 6 11 10 10 8 11 7 4 3 3 2 4 3 1 2 6 6 3 9 12 8 12 17 12 16 18 19 19 16
23 23 22 21 20 22 25 27 28 29 28 24 19 17 16 16 16 12 9 5 4 4 1 3 5 5 10 9 6 8 7 4 3 2 2 4 1 2 2 1 3 8 11 8 8 13 13 16 16 17 17 17 19 17
22 23 22 20 20 24 31 32 31 31 25 17 15 15 8 5 4 1 2 3 4 4 2 3 3 5 8 3 5 4 3 4 5 4 3 0 0 2 6 4 5 8 5 14 12 13 14 15 15 16 14 14 15 15
21 23 24 24 26 28 33 35 32 29 18 13 9 5 2 1 4 2 2 2 3 4 4 4 6 3 3 5 4 6 8 5 3 2 0 2 2 5 10 6 6 6 6 8 17 15 14 14 12 11 10 8 9 10
23 24 26 29 29 30 33 32 29 22 10 5 3 3 14 12 3 3 3 4 3 4 4 4 7 7 5 4 5 2 2 2 3 2 0 2 2 3 7 7 7 7 8 9 10 12 10 9 7 6 5 5 7 0
25 28 32 30 24 29 35 31 22 14 9 7 10 10 7 3 1 3 5 5 3 3 3 4 5 7 1 4 6 4 3 2 4 1 3 2 2 3 4 5 7 5 8 9 7 4 5 6 10 8 6 6 7 13
28 31 32 23 25 36 33 23 16 10 9 4 3 4 5 1 4 4 5 4 3 3 3 4 8 3 5 6 1 2 4 3 5 3 3 2 1 2 4 6 13 5 2 3 4 2 8 7 9 8 6 5 4 8
30 32 28 20 29 38 26 15 8 6 3 3 4 5 4 3 3 4 10 7 7 2 10 4 1 5 3 2 1 5 4 5 3 3 4 2 3 7 9 5 8 8 7 2 6 6 10 15 10 12 10 10 13 8
31 31 18 19 35 33 16 10 6 4 4 3 4 4 5 5 6 11 11 4 6 8 9 7 4 7 4 1 2 3 4 5 5 4 2 2 4 2 2 7 5 4 6 8 10 11 9 9 10 9 18 18 14 11
31 22 10 31 34 25 13 11 5 2 2 2 2 9 9 11 14 14 14 10 14 2 3 2 8 5 7 5 7 8 3 5 3 2 2 1 3 8 7 10 5 8 7 9 9 7 10 14 7 11 10 10 10 9
24 5 28 31 31 14 12 6 3 1 4 5 7 9 10 9 8 11 11 12 11 12 11 6 8 8 6 5 5 4 3 4 5 4 5 6 8 5 7 7 14 11 4 5 6 16 9 9 5 7 7 15 18 15
10 22 26 22 25 14 1 6 6 4 7 7 8 8 9 9 12 12 8 8 8 9 10 9 5 7 5 5 3 2 1 1 1 2 3 3 4 5 3 5 7 8 18 16 14 13 16 14 9 7 12 18 18 17
22 20 18 18 13 7 3 5 6 5 7 9 10 10 9 10 9 10 8 9 11 9 10 8 6 5 9 6 9 8 7 5 4 4 4 6 9 5 9 8 7 11 14 12 6 8 16 17 16 16 16 14 9 11
11 11 19 8 8 6 3 2 4 3 5 6 7 8 9 12 11 12 13 13 12 11 10 8 9 10 9 9 8 7 7 6 6 6 4 5 11 12 11 9 9 11 14 15 16 20 16 17 18 18 16 15 16 15
9 9 8 10 1 10 6 4 3 4 4 5 8 8 8 9 11 13 11 11 11 5 8 8 9 8 11 12 15 17 9 10 7 6 7 8 11 14 15 16 19 17 14 14 10 12 16 15 17 18 16 16 14 14
7 11 5 4 3 3 3 4 4 4 4 4 6 6 5 9 10 7 6 11 7 5 4 5 4 8 10 13 15 18 9 7 9 7 6 4 5 4 4 5 6 5 7 11 12 12 14 15 14 16 14 14 15 14
10 4 4 3 3 2 2 3 2 3 1 1 4 3 3 5 4 3 4 6 4 1 6 5 7 17 13 16 22 26 27 20 7 12 13 8 8 9 8 8 8 8 9 14 17 17 17 18 18 17 15 13 14 13
6 5 4 4 3 2 2 1 1 1 2 3 2 2 2 3 4 5 7 7 8 11 11 12 14 9 13 16 11 16 22 21 18 17 18 18 11 15 22 18 20 22 20 18 18 18 18 17 17 17 17 16 15 14
3 3 1 4 5 2 1 3 5 3 4 3 1 1 3 3 3 4 7 9 10 9 10 16 15 9 10 10 12 17 19 20 15 8 15 15 16 16 17 19 18 20 20 17 18 19 19 20 20 21 19 19 19 16
1 3 2 6 5 4 6 6 5 4 4 2 6 5 4 3 4 4 3 6 6 10 10 11 10 10 9 14 10 12 16 19 19 16 15 13 15 14 13 11 10 18 20 17 17 19 18 18 19 20 19 19 21 19
3 2 2 1 4 1 2 1 4 5 5 3 6 6 2 5 5 3 5 12 7 12 14 17 15 13 12 15 17 18 17 18 19 18 16 15 17 16 17 16 15 17 17 15 17 17 17 18 18 17 16 15 15 16
6 2 9 5 1 9 1 6 6 6 8 6 3 4 4 4 1 2 3 8 12 15 15 10 11 10 17 19 18 18 17 18 19 19 13 16 16 17 16 16 15 13 13 10 13 14 16 16 14 14 13 14 15 17
2 5 4 7 11 6 7 8 9 7 9 8 3 5 3 2 1 3 3 7 7 8 13 15 16 17 18 18 16 18 17 19 19 16 15 11 15 18 18 16 15 14 14 13 7 8 14 13 11 10 15 16 15 16
7 7 5 3 9 6 8 5 8 8 10 10 6 4 3 3 3 3 8 10 12 13 17 17 16 17 16 16 15 15 16 16 16 16 11 10 15 16 15 15 15 15 14 13 13 12 13 15 13 14 14 15 15 16
4 5 3 5 5 6 6 8 11 10 7 8 6 5 5 3 2 2 13 15 16 17 16 15 14 14 14 15 14 11 12 12 14 15 16 13 12 12 14 13 13 14 13 14 13 13 15 15 16 16 16 16 17 16
2 5 7 2 5 5 5 4 3 1 4 3 3 4 3 3 1 3 6 12 13 15 15 16 14 12 12 12 12 11 9 11 12 14 15 12 11 11 13 14 15 17 16 16 15 16 16 15 15 15 15 15 16 17
5 5 4 5 2 2 8 4 2 3 2 4 1 2 1 4 4 6 5 12 12 12 15 16 14 12 11 11 12 12 7 8 8 13 15 13 11 10 12 13 14 16 16 14 13 12 12 12 13 15 16 17 18 19

GFSWCAN_925_spd_009.txt.gz
Wind_Speed
24 24 23 23 24 26 26 26 24 21 19 18 17 16 16 14 10 6 10 8 9 3 11 15 20 16 13 9 5 4 5 6 4 4 5 4 5 6 5 9 10 4 9 7 4 4 3 8 6 6 3 6 9 9
23 22 22 23 24 26 26 24 24 20 18 19 16 15 12 12 12 9 9 9 8 6 6 26 33 34 29 25 13 4 5 2 3 4 4 3 2 2 0 3 2 3 7 4 8 5 3 6 7 2 7 10 10 11
23 22 22 23 25 26 25 24 23 22 20 18 17 16 14 14 13 11 16 16 10 4 8 10 13 25 31 35 32 12 7 8 4 3 3 2 4 2 3 3 6 6 7 5 8 8 3 7 7 12 10 14 10 11
22 23 23 24 24 24 23 23 23 23 21 20 18 17 16 15 14 12 15 16 7 3 4 7 17 21 25 23 29 34 19 15 7 2 3 1 3 3 1 3 1 1 7 4 6 5 8 15 10 16 16 15 11 13
22 23 23 24 24 24 23 24 25 24 24 23 21 20 18 16 16 16 18 20 17 4 3 9 28 25 22 28 31 28 21 10 4 2 1 2 3 3 3 3 3 2 3 2 2 8 7 2 8 11 15 13 12 14
24 25 25 25 24 24 25 28 30 30 29 28 26 24 20 17 15 13 3 3 7 3 3 4 11 12 20 13 13 12 8 5 7 3 2 1 2 2 3 2 2 4 10 5 3 5 14 16 19 15 17 15 15 13
23 25 26 26 26 27 28 32 35 33 32 30 26 24 20 15 11 5 5 2 8 16 2 5 5 3 13 11 3 3 6 6 3 2 1 2 2 6 3 3 6 8 5 7 3 7 15 17 11 11 15 16 18 17
22 25 27 29 31 33 35 36 37 37 34 29 23 20 17 15 13 10 10 14 10 4 1 3 4 5 9 5 2 3 4 3 3 1 0 1 2 3 3 5 7 8 7 5 9 12 14 7 16 14 13 12 16 15
23 26 29 31 35 35 34 36 37 35 30 26 20 20 7 3 3 2 4 3 8 4 2 2 3 3 4 2 2 3 2 1 2 2 2 3 0 2 5 12 7 10 6 13 9 11 12 8 8 4 8 9 12 11
24 27 30 34 37 32 34 39 36 31 24 17 9 4 2 3 8 2 1 1 2 2 2 4 3 4 3 1 1 3 3 3 3 4 3 1 1 6 10 4 5 7 8 8 9 8 7 9 5 6 4 3 7 6
27 29 31 35 35 30 38 40 33 27 10 7 4 2 10 11 4 1 2 2 1 2 3 4 3 5 1 3 3 3 1 5 1 1 1 2 3 5 10 5 5 4 7 6 6 6 5 4 5 5 4 4 2 4
30 32 34 34 33 29 38 36 28 15 12 10 12 12 7 2 2 2 3 2 3 3 3 4 3 1 2 3 3 3 2 3 2 1 3 2 3 5 8 7 6 7 6 3 1 2 2 2 3 6 5 2 4 1
33 33 34 34 28 30 37 32 22 18 17 4 3 3 2 3 5 5 3 4 3 3 4 4 3 2 3 4 2 1 2 3 2 3 3 3 3 5 7 6 5 3 5 6 7 10 3 3 8 8 7 14 14 11
33 34 33 27 23 36 35 27 19 15 4 2 3 8 4 5 3 6 8 5 6 5 9 4 2 1 1 2 1 3 4 2 4 4 4 2 6 7 5 5 5 6 5 1 5 13 8 10 11 18 18 16 16 12
32 33 24 15 34 35 27 16 15 8 4 2 3 3 5 8 10 10 11 3 5 5 4 3 2 2 2 3 5 6 5 5 5 3 1 1 5 4 3 5 8 5 4 4 12 11 8 9 9 12 19 16 14 13
30 25 7 30 30 26 16 18 7 3 3 2 2 7 10 11 12 13 12 11 12 11 4 5 6 5 7 4 6 7 4 5 3 3 3 5 8 11 10 12 13 12 11 12 10 7 8 13 10 12 12 11 17 12
24 5 25 25 28 16 13 5 4 4 3 3 6 9 4 6 10 11 9 11 8 12 10 4 7 8 3 5 5 4 3 4 4 3 3 2 4 3 1 13 11 10 13 18 19 16 8 18 21 19 12 16 26 20
6 19 18 20 24 13 6 2 4 4 6 1 3 8 11 10 10 11 10 12 9 9 5 7 4 7 5 5 4 3 2 1 3 5 5 6 10 8 8 5 4 13 22 12 6 8 19 18 12 7 16 15 20 20
23 18 16 15 15 7 4 4 3 3 6 7 9 10 9 10 10 11 12 12 14 10 7 5 7 6 5 4 8 9 7 5 3 2 2 2 17 10 6 12 12 11 11 7 15 16 19 24 21 21 19 19 14 18
6 9 15 11 10 4 2 3 8 3 4 3 4 7 8 8 9 11 12 12 8 8 10 7 7 6 6 8 7 6 5 4 4 5 6 7 12 9 5 15 12 15 15 17 22 22 21 20 23 22 20 20 17 12
7 8 9 7 3 3 3 3 3 2 3 3 2 4 3 6 9 11 11 7 9 8 7 5 7 8 10 15 18 14 9 7 4 5 4 4 6 10 10 12 16 17 14 14 11 16 19 17 20 22 18 21 22 18
6 10 5 3 2 1 1 2 3 2 2 2 2 3 2 4 5 6 4 7 6 3 3 5 7 7 9 11 15 23 23 12 9 15 16 12 10 9 6 7 13 9 15 16 17 15 17 18 23 22 18 15 18 18
9 3 4 2 1 2 4 2 3 2 1 1 1 2 2 3 4 5 4 6 5 8 12 10 11 16 11 16 23 26 28 19 12 15 18 16 15 17 22 24 26 21 15 20 22 21 20 24 24 22 22 21 20 18
4 3 2 3 2 3 3 3 3 3 2 2 1 2 3 2 2 3 6 6 6 10 10 12 16 8 10 11 6 11 19 22 18 13 15 15 12 16 22 22 24 25 22 21 22 21 20 22 25 25 24 22 23 21
4 4 1 5 4 2 2 2 2 3 4 2 5 4 4 1 2 3 3 5 7 7 8 14 13 9 5 6 10 14 21 21 17 8 16 18 16 14 15 19 22 23 21 19 19 18 19 21 21 21 19 18 18 18
4 2 4 8 8 6 2 3 4 3 5 5 5 4 3 2 3 4 2 5 4 5 7 8 7 7 5 13 8 10 15 20 20 17 15 20 19 16 13 10 11 16 19 19 18 17 19 18 15 16 16 17 18 18
3 5 3 2 3 3 3 3 3 7 6 5 3 3 3 4 4 3 3 5 6 12 13 13 11 12 10 15 16 18 22 24 23 22 16 20 21 21 18 14 12 13 13 14 14 16 14 13 14 14 15 16 20 20
5 6 4 3 3 3 6 9 8 7 7 7 3 5 3 3 2 2 2 9 12 13 13 15 13 17 18 18 19 20 21 21 22 22 18 19 21 20 17 15 16 14 9 9 9 10 12 11 13 14 16 15 15 17
6 8 6 5 3 6 5 4 7 4 6 6 3 3 3 2 1 3 6 11 13 10 12 15 15 18 18 17 18 17 18 17 17 14 15 8 12 15 18 17 16 16 15 12 4 8 13 14 7 8 14 15 16 16
6 6 6 7 5 3 3 5 6 6 8 7 5 5 3 4 2 3 9 15 15 15 16 16 14 15 14 15 14 15 19 17 16 13 8 7 12 14 15 14 14 14 14 16 15 14 17 16 16 17 16 14 14 14
1 5 2 4 2 6 8 9 10 8 6 5 4 5 4 2 2 3 8 10 13 14 15 15 15 14 13 13 12 11 9 14 14 14 12 9 10 11 15 16 16 17 17 17 15 15 15 14 13 12 12 13 15 16
3 4 5 2 5 6 6 6 6 5 5 2 3 3 3 1 1 3 6 10 10 12 14 14 14 13 13 11 12 10 11 10 10 11 11 10 10 10 13 14 14 15 15 14 11 11 9 9 11 13 14 15 16 16
3 3 3 4 2 7 5 4 2 2 3 4 2 4 3 2 2 2 9 12 11 10 11 11 12 13 12 12 11 7 6 7 7 9 10 11 9 8 8 9 11 14 14 12 13 12 15 14 15 14 14 15 15 16

GFSWCAN_925_spd_012.txt.gz
Wind_Speed
22 23 24 24 24 26 26 25 25 23 22 21 20 19 17 14 12 10 13 13 9 3 10 11 13 12 8 4 6 4 5 1 3 2 3 4 5 5 3 6 5 5 2 3 4 4 6 18 13 4 6 3 6 4
22 23 24 25 25 25 25 24 24 25 24 22 21 20 18 17 14 11 7 5 12 4 8 22 27 30 26 26 3 3 4 2 1 2 4 4 3 1 4 3 5 6 6 3 5 5 14 10 3 8 5 7 4 4
22 24 25 25 26 25 25 24 25 26 25 23 22 21 19 18 17 13 16 15 10 3 7 5 9 23 23 33 39 9 4 5 3 4 2 3 5 0 3 5 4 5 4 3 2 1 13 15 9 7 6 9 8 8
23 24 25 26 26 26 26 26 26 28 29 25 23 22 20 20 19 16 18 21 11 3 3 6 10 18 26 22 22 35 21 6 4 3 4 3 4 1 4 2 1 2 4 5 2 5 16 13 12 4 8 11 11 10
24 24 25 26 27 28 30 33 34 34 34 29 26 24 22 21 19 20 25 26 18 5 3 8 21 18 13 10 24 28 20 12 4 3 4 4 3 4 4 3 3 1 2 1 1 8 5 6 6 9 10 9 8 9
24 24 26 28 30 31 35 36 34 35 35 34 30 25 22 18 15 9 3 4 8 11 2 4 5 8 19 16 4 8 13 10 5 4 4 3 3 4 3 2 1 2 3 8 3 11 1 5 15 11 13 14 10 9
24 26 28 31 33 35 38 36 36 39 41 34 30 25 20 15 10 5 5 2 13 13 2 4 4 5 10 6 3 3 4 3 4 4 3 2 2 3 3 2 4 6 7 2 7 6 10 12 7 11 14 11 8 15
26 29 32 33 36 39 40 37 38 43 39 34 26 20 15 13 11 10 14 11 21 4 2 3 4 3 5 4 3 3 2 2 4 1 1 2 2 4 3 6 10 8 5 8 7 6 12 6 13 9 12 9 11 14
29 31 34 36 37 40 40 38 41 42 38 25 20 16 2 5 4 5 7 4 10 3 2 2 2 3 5 3 1 3 3 3 2 1 2 2 2 1 7 14 9 9 4 12 10 7 11 12 9 11 12 14 12 11
32 34 35 38 39 40 39 36 40 37 25 19 8 2 2 3 7 2 3 1 1 2 2 3 2 3 2 2 1 1 3 2 2 2 2 2 2 7 9 6 6 11 12 8 12 8 8 6 7 7 7 8 9 8
33 35 36 38 39 39 34 37 35 31 9 9 5 3 10 9 2 0 2 2 2 3 3 3 6 4 3 3 1 1 2 2 1 1 1 3 4 5 11 8 11 11 12 10 10 8 4 3 6 7 6 4 3 3
33 35 36 37 37 33 31 36 32 23 16 13 14 13 6 3 2 3 2 4 3 3 2 2 3 3 2 2 2 2 0 2 2 1 3 3 6 11 11 10 11 8 6 6 6 2 2 1 2 2 3 4 3 4
32 34 35 34 30 29 36 33 28 19 19 4 1 3 3 3 5 5 5 4 4 2 3 3 2 1 2 2 2 0 3 4 1 4 3 3 7 11 12 11 10 9 9 7 8 6 4 4 8 3 5 5 9 9
31 32 32 27 24 34 35 32 24 17 4 3 4 8 4 6 4 5 11 8 5 4 6 4 1 1 1 1 2 4 4 4 3 4 3 3 6 10 9 6 6 9 9 10 8 8 10 10 11 14 13 16 15 10
30 32 22 16 32 32 28 23 20 7 2 3 5 6 5 6 8 11 11 9 10 3 2 1 3 3 4 4 5 5 4 5 5 4 2 7 9 10 8 9 2 6 10 9 5 8 8 10 9 10 18 19 18 17
29 20 6 24 28 23 18 20 7 4 2 3 3 2 7 6 9 12 12 13 13 11 2 4 4 5 9 4 6 7 4 5 4 4 4 4 8 10 9 9 10 13 13 10 10 14 14 14 15 18 23 22 21 25
19 6 20 24 27 14 12 7 2 1 4 5 4 4 4 3 5 9 10 9 7 11 11 4 7 8 3 5 5 5 4 5 5 6 5 6 7 5 6 12 13 15 11 17 18 23 20 22 24 22 12 17 26 24
7 20 16 20 25 14 10 5 3 4 5 3 4 6 4 3 6 8 11 13 8 8 6 6 4 6 5 5 7 3 4 5 5 4 7 8 8 9 10 9 12 14 15 17 19 24 28 25 17 13 19 17 22 25
18 14 15 19 17 7 4 6 4 3 2 2 4 4 4 3 5 10 10 11 12 7 4 4 7 5 5 3 4 4 3 3 3 4 3 5 2 6 11 11 13 17 19 18 20 17 21 24 19 20 20 23 17 19
7 8 15 14 8 4 5 4 7 4 3 2 3 4 3 3 4 6 10 10 6 5 9 6 6 2 3 4 3 3 4 4 4 4 5 5 10 16 16 19 16 17 17 19 22 24 23 23 26 27 26 25 21 19
5 11 8 8 3 2 1 1 3 2 1 0 2 2 3 4 5 6 8 5 9 9 7 3 3 4 7 13 18 17 11 10 4 3 3 8 16 21 21 22 24 22 18 16 15 20 24 20 23 26 26 21 23 26
4 9 4 3 2 5 2 3 3 2 2 2 2 2 2 3 4 4 3 8 8 5 4 3 4 4 7 9 11 23 21 21 22 17 17 18 10 8 15 18 18 15 19 17 18 17 20 24 28 27 26 20 16 20
6 5 3 2 1 3 6 1 1 2 2 1 3 2 2 2 2 5 4 4 3 5 10 10 15 18 7 16 24 26 28 23 13 14 16 17 18 18 19 21 20 16 14 19 21 21 20 26 28 26 24 25 23 19
2 2 2 2 2 3 2 2 3 2 0 4 4 5 3 3 4 3 2 3 3 8 8 11 14 7 12 12 6 12 19 23 19 22 19 16 14 16 19 20 23 23 21 22 22 22 25 24 24 22 18 21 21 18
3 3 3 5 3 5 4 6 3 3 1 4 4 2 1 2 2 3 2 3 4 4 4 13 13 8 3 4 9 18 25 20 15 11 19 22 18 18 18 22 23 20 21 21 20 20 19 19 20 20 21 23 21 18
4 3 3 3 3 2 3 4 3 3 1 2 3 3 2 2 3 3 2 3 3 3 5 6 3 4 5 12 7 12 17 23 21 17 18 22 20 15 9 5 8 15 16 15 16 16 16 18 20 20 19 21 22 21
3 3 2 1 1 1 4 3 2 4 5 4 2 3 3 3 3 3 3 3 3 17 16 19 16 14 10 15 18 19 22 24 21 18 21 21 22 20 17 14 7 8 10 9 10 12 11 14 15 17 16 18 19 19
3 4 3 2 2 4 1 3 3 4 3 4 3 5 3 2 3 3 4 9 16 18 13 17 17 17 18 18 16 18 19 21 22 19 15 16 18 19 18 17 16 12 15 7 6 10 10 9 13 17 16 15 15 14
3 3 4 3 3 1 1 2 1 0 2 2 3 2 3 2 2 3 5 5 12 13 15 10 13 17 20 21 19 18 17 18 17 7 7 4 7 17 18 18 18 17 20 18 11 17 14 13 13 12 12 11 13 14
3 4 3 4 3 3 3 4 3 3 2 4 4 2 2 1 8 5 3 8 12 12 15 13 12 14 13 17 16 16 14 15 15 10 3 3 7 15 17 17 18 17 18 15 12 12 11 11 11 11 12 14 15 15
6 5 5 3 4 3 5 7 9 5 4 3 4 4 4 3 3 4 10 13 15 15 15 13 13 13 13 11 11 14 8 9 11 12 8 9 9 13 15 14 15 14 14 16 10 11 9 11 13 15 16 15 15 14
1 2 1 2 1 3 5 4 5 5 5 3 3 3 2 2 2 2 5 11 14 13 11 12 12 12 11 11 7 6 8 10 10 10 10 10 9 8 10 11 12 15 18 17 12 15 15 14 13 13 13 12 13 15
2 1 0 3 3 4 4 4 5 4 3 3 3 4 4 4 3 3 7 6 11 10 9 11 10 11 11 10 8 5 4 6 7 6 7 6 5 6 6 8 10 12 14 12 14 14 13 12 12 12 13 14 14 15

GFSWCAN_925_spd_015.txt.gz
Wind_Speed
20 22 22 23 24 24 24 23 23 23 24 23 21 20 18 16 14 10 11 13 8 3 9 15 16 13 9 5 5 4 5 1 3 2 2 3 4 6 5 6 5 9 10 6 8 8 8 13 10 9 10 15 6 6
21 22 23 23 24 25 25 26 25 26 25 25 24 22 19 17 16 12 8 9 8 5 6 21 25 30 31 27 7 4 5 3 3 1 1 2 3 4 5 4 4 6 7 8 6 6 2 1 8 13 10 6 8 4
23 24 24 25 26 27 29 30 30 31 30 28 25 23 22 20 17 13 15 12 8 3 8 8 9 21 23 33 33 6 5 6 4 3 2 2 5 4 3 6 5 6 5 8 3 6 3 9 10 14 13 7 9 7
25 25 26 27 29 30 32 34 35 34 31 29 28 25 22 20 19 17 17 15 8 3 4 6 9 14 19 19 29 39 20 3 2 2 3 3 3 3 3 4 3 5 6 13 5 5 1 9 8 12 11 9 9 11
25 26 27 29 32 33 35 37 38 35 33 33 31 26 23 20 19 18 22 25 23 6 3 6 21 10 7 16 23 28 24 12 7 3 4 3 3 4 4 2 4 6 7 7 7 4 2 6 7 11 4 6 9 10
26 28 30 32 35 37 37 39 40 37 37 38 31 26 21 15 12 6 3 3 8 17 3 4 5 5 9 10 15 13 14 7 5 4 3 4 5 4 3 3 4 4 6 5 3 4 8 13 4 9 8 6 8 10
29 30 34 36 38 39 40 42 41 40 42 39 31 22 14 10 10 5 4 3 11 3 2 4 4 5 5 3 0 2 9 4 4 3 4 4 3 1 3 4 8 9 9 7 11 10 9 10 9 7 4 7 11 13
32 34 36 38 39 40 40 42 38 42 42 36 26 19 12 7 9 11 24 25 23 1 2 3 4 4 5 3 2 1 3 3 1 2 2 2 1 2 5 10 12 13 10 13 15 7 14 16 10 4 2 5 14 11
33 34 36 38 39 40 40 39 38 42 43 29 22 6 5 4 4 6 7 5 19 5 2 2 2 3 3 3 2 3 1 2 2 3 2 1 2 5 9 14 18 12 6 7 8 5 10 21 7 9 12 11 12 10
34 35 36 37 38 38 38 33 40 40 34 18 7 3 2 2 7 2 5 2 2 2 2 2 2 3 3 2 1 1 1 2 2 3 1 2 3 13 13 11 11 4 11 9 11 7 9 11 11 9 9 4 8 10
34 35 35 36 36 36 31 36 35 37 14 9 6 2 9 8 2 1 2 2 2 2 2 3 6 4 3 3 1 1 1 0 2 1 2 2 3 5 9 2 7 12 13 12 10 9 9 9 8 6 6 6 7 8
34 33 34 34 33 28 31 35 34 26 12 13 15 11 5 3 1 2 3 2 2 3 3 3 3 5 2 2 1 1 1 3 3 2 2 5 6 14 11 15 16 14 13 12 9 11 9 8 7 7 5 5 6 9
32 32 33 32 23 28 34 36 32 21 12 1 1 3 3 3 5 5 5 3 4 2 3 4 2 0 2 1 1 2 2 4 2 3 2 3 8 9 8 11 16 17 14 15 11 4 1 2 5 6 6 8 11 11
30 31 29 16 23 34 35 28 25 10 3 3 5 7 5 5 5 4 12 7 8 4 7 3 2 3 2 3 3 5 5 4 5 5 5 5 11 16 16 13 16 16 17 16 15 15 14 13 10 15 16 17 16 12
29 26 11 22 29 30 23 23 16 10 4 3 4 6 5 5 6 11 8 6 10 8 2 2 3 3 4 4 4 4 5 5 6 5 5 8 13 15 16 16 14 14 15 15 14 15 16 13 15 16 24 24 24 24
27 9 17 27 29 21 19 14 11 7 4 3 6 5 8 5 11 13 15 11 12 11 2 3 4 5 7 4 7 8 4 4 4 4 6 8 11 11 11 14 14 15 16 17 17 20 20 18 15 16 24 24 26 25
13 7 19 25 23 14 15 10 6 5 4 5 4 3 3 4 4 8 10 10 9 9 7 4 7 7 3 5 5 4 5 7 6 7 7 10 10 10 11 14 13 13 13 20 23 24 23 24 26 24 15 19 23 24
3 14 16 21 22 10 10 12 4 5 6 3 4 6 5 2 7 9 8 11 6 6 5 5 4 7 5 5 5 5 5 6 5 6 9 10 8 8 12 11 17 17 19 20 21 23 25 22 16 11 17 17 23 23
15 13 14 17 13 5 4 6 6 4 3 2 3 4 4 4 6 9 10 13 14 8 3 4 6 4 4 3 4 6 5 3 3 4 7 15 15 16 17 20 20 22 22 21 21 18 19 22 18 18 18 20 18 19
7 7 12 10 8 4 4 4 3 3 1 2 2 4 3 3 4 5 8 8 5 4 8 5 6 4 2 3 2 3 4 5 3 6 8 8 16 22 20 17 16 19 21 23 26 26 22 22 23 22 23 22 20 17
5 5 7 7 4 4 3 1 3 2 1 1 1 2 2 3 5 6 7 6 6 5 5 3 3 4 8 10 14 14 13 11 5 4 2 6 14 17 19 20 21 22 19 17 15 18 21 16 18 20 22 21 20 21
5 10 5 4 3 5 1 2 4 2 3 1 2 2 2 3 3 3 2 5 4 3 2 3 4 3 6 8 11 17 15 22 19 16 16 13 8 7 11 14 16 14 16 16 16 14 16 19 19 20 22 23 26 25
6 5 4 3 1 4 4 2 3 1 4 2 4 3 2 3 2 3 3 2 2 3 6 4 6 8 10 16 23 22 18 19 13 13 14 15 18 17 17 19 17 14 11 14 17 18 19 20 18 19 22 22 22 23
3 3 3 2 2 3 3 2 1 3 3 2 1 2 2 1 2 3 2 3 3 9 8 12 13 4 10 14 5 10 14 14 17 16 12 14 11 14 18 18 17 16 16 16 18 20 21 20 22 23 22 22 21 20
3 5 3 5 2 4 4 6 4 3 2 2 2 1 2 2 2 3 1 3 4 3 4 12 7 6 3 2 7 15 15 15 12 8 9 10 12 12 13 13 13 11 13 15 15 18 19 20 22 23 19 16 16 16
3 2 3 1 1 1 2 3 3 3 0 2 2 2 1 3 3 2 2 2 2 2 3 4 1 3 4 5 3 9 11 12 17 16 12 7 7 8 4 3 4 7 7 10 11 11 13 13 14 16 17 16 14 13
2 1 1 1 1 0 2 2 1 3 3 3 2 1 2 2 1 3 3 4 3 7 4 5 10 13 10 12 14 15 13 12 12 12 14 16 15 14 12 8 7 10 7 5 8 7 8 10 11 11 12 12 11 9
3 3 2 1 1 2 1 2 2 1 1 1 2 2 3 6 5 3 4 7 6 12 12 10 10 13 14 12 11 11 12 10 7 2 7 12 17 17 18 17 16 12 9 10 9 10 12 11 10 9 9 10 11 10
3 2 3 1 2 2 3 3 3 3 3 2 3 3 3 3 2 3 1 4 7 11 12 14 14 14 13 11 10 10 10 9 8 4 4 3 7 14 14 14 16 15 11 13 12 10 8 7 7 7 9 11 11 10
4 4 4 3 4 4 4 5 4 3 3 4 4 1 1 2 4 4 5 10 9 9 7 10 14 14 13 10 8 6 8 8 8 4 2 1 3 8 11 12 12 13 10 5 6 6 7 9 11 10 10 10 10 11
3 4 2 3 4 3 4 4 5 3 2 2 2 3 4 2 1 4 12 12 11 12 13 9 7 8 13 11 9 7 3 4 6 7 5 4 5 9 11 11 14 14 10 5 8 11 11 10 9 9 9 9 10 12
3 6 5 4 1 1 2 3 4 3 3 3 3 2 2 2 2 2 12 12 11 9 11 10 10 7 4 3 6 8 5 8 6 6 4 4 5 6 9 10 10 11 12 11 11 10 9 9 9 9 10 11 12 14
2 1 2 3 2 3 3 4 4 3 3 4 4 5 5 5 4 5 6 9 6 10 11 8 9 7 4 1 2 4 8 7 5 3 2 3 5 6 6 5 8 10 10 9 9 9 8 8 10 10 11 12 15 15

GFSWCAN_925_spd_021.txt.gz
Wind_Speed
22 23 24 26 27 27 28 29 32 33 33 32 29 27 25 24 21 17 10 14 10 3 9 12 16 14 13 7 5 4 7 3 2 4 3 3 3 2 5 9 6 7 6 7 12 11 19 11 11 9 5 7 12 14
23 24 25 26 28 29 31 32 35 35 35 34 30 28 27 26 24 18 9 14 17 6 7 21 29 32 28 26 9 5 4 1 2 2 2 1 3 3 4 5 5 9 11 4 9 9 13 14 14 14 9 12 13 15
24 26 27 30 32 33 34 34 36 37 36 34 31 29 27 25 22 18 14 11 7 3 8 11 9 16 17 26 28 7 5 7 5 4 2 3 6 2 4 6 10 7 7 8 10 15 20 19 18 15 11 12 15 13
26 30 32 33 35 35 35 35 36 37 36 35 31 30 27 24 19 16 15 14 11 0 3 5 5 11 11 13 22 32 19 5 2 4 4 3 3 6 4 8 8 7 8 8 12 17 19 20 17 14 12 12 10 6
29 31 33 35 36 37 36 36 37 37 36 33 34 30 27 20 15 12 13 15 18 6 3 7 23 5 4 13 18 22 23 16 5 3 4 3 3 4 5 8 10 11 11 7 10 6 10 16 13 15 12 11 5 3
32 34 35 36 37 37 36 36 36 36 34 34 34 32 22 10 7 0 2 2 10 17 1 3 4 3 4 6 13 15 14 8 5 4 4 4 12 4 4 5 8 13 16 16 15 11 17 19 18 20 14 8 4 4
34 35 36 37 37 36 35 35 35 33 34 37 33 26 13 7 10 3 3 1 8 15 2 3 4 2 4 2 4 4 12 4 4 2 4 6 9 6 3 13 20 16 14 16 16 11 18 19 14 11 10 10 5 5
35 36 36 36 34 33 33 35 32 32 39 35 24 10 5 10 6 6 13 10 12 2 1 3 4 4 3 2 2 4 5 5 5 3 3 5 4 4 7 15 14 13 14 16 17 19 20 19 14 3 9 12 8 8
36 37 35 32 31 32 33 29 29 37 35 24 1 2 3 3 1 3 2 7 7 2 1 1 2 3 4 2 3 4 3 3 3 4 3 3 2 5 13 14 14 14 10 11 10 13 15 15 12 5 11 11 11 12
35 32 30 30 30 27 27 30 35 33 18 6 2 1 2 4 6 9 3 1 1 0 0 2 1 3 2 2 2 2 1 2 2 2 4 3 4 15 20 23 21 19 16 14 13 11 9 4 10 10 5 6 10 12
31 28 27 26 24 27 31 34 30 26 5 3 4 2 4 5 4 1 1 1 1 2 2 3 4 3 3 2 2 2 1 2 2 2 2 3 3 18 22 17 9 3 7 8 13 11 10 4 12 7 5 9 9 13
27 26 23 20 25 30 33 27 20 14 5 5 4 3 3 2 2 4 4 2 1 3 2 3 3 4 3 3 2 0 1 1 4 5 4 6 10 21 20 28 27 25 25 18 15 16 16 4 8 11 10 10 9 15
25 23 16 21 28 31 27 21 17 10 3 3 1 2 4 6 7 6 7 4 6 6 3 9 6 3 2 1 2 2 6 5 4 5 4 6 15 20 22 22 25 25 28 26 24 17 17 17 27 23 16 20 16 18
23 15 15 24 30 25 22 23 22 11 5 3 5 8 6 5 5 3 8 6 6 7 11 7 4 3 2 4 4 7 6 4 6 6 6 11 18 18 18 17 19 22 24 24 25 23 22 24 22 29 25 19 18 19
19 10 17 28 26 21 17 20 20 14 5 4 5 6 5 5 5 7 6 5 6 9 5 3 1 2 4 4 4 4 7 6 6 5 6 10 13 15 16 16 17 16 16 17 17 17 18 23 20 19 23 21 24 25
13 5 18 25 23 18 14 15 16 8 5 4 6 5 8 6 11 11 10 8 10 7 1 3 6 6 8 4 7 7 4 7 4 3 6 7 12 13 13 13 14 14 14 14 18 19 20 20 19 18 23 24 25 25
5 7 18 21 18 14 17 10 7 5 4 4 3 3 3 3 6 9 10 11 12 8 5 4 7 6 4 5 6 5 5 4 5 5 5 9 10 11 10 11 15 18 19 20 20 20 18 19 22 24 16 19 23 24
3 13 15 18 16 9 7 8 4 4 4 2 3 5 3 5 8 8 9 9 8 5 5 5 4 6 5 5 4 4 2 2 4 6 6 8 10 14 16 14 19 20 20 20 20 20 22 21 18 14 17 15 22 22
11 10 13 15 13 4 3 4 4 3 2 0 1 1 1 2 7 12 10 13 10 6 3 3 5 4 3 2 4 6 5 4 4 4 6 12 13 14 15 18 19 19 19 19 19 16 16 18 15 15 15 17 19 18
4 6 10 10 9 3 2 2 2 2 2 1 1 2 2 3 6 9 11 9 6 4 7 5 3 3 2 3 3 4 5 5 3 4 6 7 11 13 16 14 13 13 14 15 15 16 12 13 15 15 15 16 17 17
3 5 5 7 3 5 3 1 2 2 2 0 1 2 2 2 3 7 8 7 6 4 4 3 2 3 4 3 5 5 7 7 4 4 3 5 10 11 13 14 14 14 13 13 11 11 13 11 10 12 14 17 17 17
5 7 4 3 3 2 2 2 2 1 0 1 0 2 1 2 2 3 3 5 4 3 2 2 2 3 2 3 6 7 6 6 5 5 6 6 5 7 10 13 13 13 14 14 14 12 10 9 10 12 14 15 15 16
5 4 2 3 1 3 1 0 0 1 1 2 1 1 1 1 2 1 2 2 1 1 3 3 4 3 3 4 2 5 8 6 6 7 7 7 6 6 7 9 10 10 10 12 11 10 10 10 12 12 12 11 11 12
4 3 3 2 2 1 1 1 1 1 1 1 1 1 1 2 2 2 1 1 2 3 3 6 5 3 1 2 5 7 8 5 4 5 6 6 5 5 6 7 8 9 8 9 9 9 9 9 8 10 10 10 11 11
2 4 3 4 1 2 2 2 1 0 1 0 1 1 1 1 1 1 1 1 2 3 4 5 2 2 2 2 2 4 6 7 8 8 8 6 6 4 3 3 4 5 5 5 5 6 6 7 7 6 6 6 6 6
3 2 2 1 1 2 2 2 2 2 1 1 1 1 0 1 1 2 1 1 1 2 3 4 3 2 1 1 2 3 5 6 7 9 7 7 7 6 5 4 6 5 6 4 3 1 2 3 4 4 5 4 3 4
1 1 1 0 0 1 1 1 1 2 2 2 1 2 1 1 2 2 2 4 3 2 1 1 2 3 2 2 3 3 4 5 4 2 3 5 6 7 7 7 7 9 10 6 5 3 1 1 3 5 6 6 5 6
1 3 2 3 2 2 2 1 2 2 2 2 2 3 2 3 3 3 4 6 6 3 2 2 2 2 3 4 3 2 3 6 4 1 3 0 5 8 9 8 8 8 6 5 5 4 3 3 3 4 4 5 5 6
2 2 3 3 2 3 4 4 3 3 4 4 3 3 3 2 1 4 4 6 7 5 4 4 2 3 4 4 3 3 4 7 10 9 7 4 6 8 11 10 9 8 4 3 4 4 3 3 3 3 3 4 4 4
2 4 2 2 3 4 2 5 2 2 3 2 2 1 1 2 2 4 5 7 7 7 4 4 4 4 2 2 1 1 2 3 5 6 5 5 6 8 9 10 11 9 4 2 2 3 3 2 3 4 5 4 5 5
3 4 3 3 3 2 1 2 2 2 2 3 2 2 1 1 2 4 7 8 7 4 5 4 3 2 2 2 2 3 2 3 1 1 1 2 3 5 7 7 8 8 6 4 2 2 3 5 5 5 5 6 6 7
3 5 2 3 2 2 2 2 2 2 2 2 2 3 2 1 2 2 2 7 6 5 4 4 3 3 2 1 3 3 3 2 3 2 1 2 4 5 5 5 5 6 5 4 3 3 4 4 4 5 5 6 7 8
2 3 3 2 2 2 3 3 2 2 2 2 2 2 3 2 1 2 1 6 3 2 3 6 5 5 5 4 6 5 3 3 6 4 4 5 7 10 9 7 4 3 4 4 4 5 5 5 6 7 8 8 8 10

GFSWCAN_925_spd_024.txt.gz
Wind_Speed
24 25 26 27 28 29 29 31 33 32 33 31 28 27 26 23 22 18 11 19 12 4 10 18 15 12 10 9 9 4 7 2 4 4 4 3 6 3 6 10 6 10 12 12 13 16 21 6 9 12 11 10 12 11
25 27 29 31 32 32 32 32 34 33 34 31 30 27 26 24 23 18 10 16 24 7 6 21 26 27 25 23 10 4 8 4 2 3 2 3 4 4 6 9 9 13 12 11 9 11 12 6 11 12 15 15 14 17
28 30 32 33 33 33 33 34 35 34 34 30 31 27 25 23 21 14 9 16 12 2 7 12 8 7 18 22 22 8 6 9 8 8 3 3 5 5 6 8 12 14 13 13 17 21 21 15 19 17 13 18 18 17
30 32 33 34 34 34 34 35 35 34 32 31 30 28 26 23 18 12 9 15 10 2 3 4 5 9 11 13 19 24 18 7 5 3 4 4 4 4 8 11 11 10 7 12 19 21 20 19 18 19 18 16 16 17
32 33 34 36 36 36 36 34 34 32 33 31 30 29 26 18 12 7 8 12 17 5 3 7 23 7 6 10 18 20 22 15 4 3 4 3 3 5 11 11 15 16 21 15 15 13 16 19 15 12 14 15 18 17
33 34 36 37 37 36 35 32 32 33 31 30 31 28 19 9 2 2 2 2 8 16 2 3 6 5 3 4 11 14 14 9 7 4 4 5 13 5 4 7 18 19 18 20 18 17 13 15 13 17 19 19 19 16
34 35 36 36 35 33 31 31 30 27 28 28 25 16 6 5 6 0 1 1 9 11 1 3 4 0 5 6 3 4 11 4 4 2 3 6 9 5 4 15 26 19 17 15 15 15 19 22 17 17 17 18 17 15
35 36 36 34 32 28 26 26 28 29 28 22 10 8 11 10 3 1 3 4 11 2 1 2 3 4 3 3 2 3 2 3 3 3 3 4 3 5 7 20 22 19 21 21 18 17 21 20 20 18 17 15 11 10
35 34 31 28 25 23 25 30 31 27 22 8 10 7 2 2 2 2 3 7 6 1 1 1 2 3 4 3 1 3 2 2 2 3 3 3 1 5 15 22 23 19 12 12 13 16 21 20 20 16 18 13 10 9
32 30 25 24 21 24 30 31 26 25 3 5 5 5 3 3 2 8 4 1 1 1 1 2 0 3 2 1 2 1 2 2 2 1 3 2 3 12 22 19 12 18 22 16 14 14 12 13 15 14 8 7 9 5
29 24 22 19 23 28 30 25 23 11 6 0 1 3 3 1 6 2 2 2 1 2 2 3 4 4 3 2 2 2 1 2 3 2 3 4 9 24 28 25 23 9 10 14 14 10 8 6 6 3 2 7 9 9
25 20 16 21 26 32 24 22 20 7 3 2 3 1 1 1 3 5 5 4 3 5 4 4 4 3 3 3 2 1 2 1 5 7 5 7 11 22 27 27 24 25 23 15 11 12 17 20 19 13 15 17 17 23
19 14 15 22 32 26 22 23 20 10 6 2 2 3 5 6 8 6 6 4 7 7 5 9 9 4 2 4 3 3 6 5 2 6 4 6 15 19 23 24 25 26 26 27 24 19 25 26 29 23 19 21 26 24
16 11 15 24 30 21 22 25 26 9 3 4 5 7 6 5 4 3 7 10 8 9 13 10 5 3 3 3 4 5 5 5 6 6 6 8 18 20 18 18 21 23 24 22 20 21 24 20 18 29 29 29 28 24
14 9 15 23 21 17 17 20 22 11 6 5 5 6 6 5 5 7 7 7 9 9 7 5 4 8 7 4 5 6 5 5 6 5 6 10 15 15 16 17 18 18 17 17 16 16 16 22 21 24 28 29 28 26
12 5 13 21 17 16 15 11 13 9 4 4 7 7 8 8 11 12 12 12 11 8 2 3 5 6 8 5 7 7 5 5 4 6 8 11 14 16 16 15 15 16 17 18 20 21 23 23 21 19 23 24 24 24
5 4 15 18 16 10 16 5 6 5 5 4 5 7 9 8 10 11 11 12 13 10 5 4 6 5 4 5 5 4 3 3 5 7 7 10 12 14 14 16 20 22 21 20 18 21 19 19 22 24 17 21 23 23
2 10 12 16 14 6 5 7 4 4 4 2 5 7 7 8 10 10 11 11 8 8 9 7 5 6 3 4 5 6 4 2 3 4 6 8 12 16 17 16 20 21 21 20 18 20 20 19 16 14 16 16 17 19
14 10 11 13 11 4 3 3 4 3 3 2 1 3 5 7 9 11 9 11 11 8 3 4 5 5 5 4 7 8 8 7 5 4 3 6 11 15 16 17 18 19 19 18 19 15 15 17 16 14 13 14 16 17
7 6 9 8 6 2 2 2 1 1 1 3 1 2 3 5 6 8 9 9 8 7 6 4 7 5 5 6 6 6 7 7 7 5 5 6 11 10 13 15 15 15 14 14 13 17 12 12 14 16 16 15 15 15
5 5 5 5 2 3 2 0 2 3 1 2 3 3 2 1 5 6 7 7 7 8 6 5 5 5 5 6 8 10 9 11 7 6 8 7 11 11 13 14 15 14 13 13 12 10 11 11 11 11 12 13 13 12
3 6 2 2 1 1 2 2 3 1 2 2 1 2 1 3 4 4 3 4 5 5 5 5 5 5 3 4 6 8 8 7 5 5 7 8 7 8 10 13 14 13 13 12 11 10 11 11 10 10 10 10 11 14
4 4 1 1 1 2 1 1 2 1 2 2 1 1 1 2 3 2 2 2 3 3 5 6 7 4 4 2 2 4 6 8 8 9 10 10 5 6 8 9 10 11 10 11 10 9 9 6 8 8 7 8 9 10
5 2 2 2 2 1 2 1 1 1 2 1 2 1 1 3 1 1 2 2 3 1 3 5 8 5 2 5 3 5 6 10 11 10 9 11 9 6 6 6 7 8 8 7 7 7 7 8 8 9 9 8 8 9
1 3 1 3 1 2 2 2 2 2 2 1 2 1 1 1 2 0 2 2 1 3 3 5 6 5 5 5 4 4 4 9 11 10 9 11 10 10 6 4 3 5 7 8 6 6 6 6 7 7 8 10 10 7
2 1 1 1 0 2 2 3 2 3 3 2 1 0 2 2 2 1 0 1 1 0 3 4 5 6 4 4 5 6 6 8 10 11 9 9 8 9 8 6 6 6 10 9 7 6 4 5 6 7 7 4 3 7
1 2 2 0 2 2 3 3 3 3 3 2 1 2 2 3 3 3 4 5 3 4 4 2 2 5 5 4 2 2 4 6 7 8 6 6 6 6 8 8 9 10 9 7 5 6 6 6 8 8 7 5 6 7
2 2 4 3 4 3 3 3 3 3 3 1 2 3 2 2 3 2 2 6 1 3 4 4 2 2 3 3 2 2 4 6 2 4 3 2 2 5 8 8 7 8 5 6 9 9 9 8 7 6 6 7 7 6
3 3 3 6 5 4 3 3 3 2 2 3 3 3 2 0 2 2 3 6 6 1 0 2 3 2 3 2 1 3 4 6 7 6 6 4 6 9 9 8 7 5 5 4 2 5 6 8 10 10 9 7 7 5
2 3 3 3 3 3 1 3 4 2 2 4 2 1 2 1 2 3 7 9 8 7 5 5 4 2 2 5 4 2 1 4 5 7 6 6 7 7 8 9 9 8 5 4 5 2 2 5 5 6 6 7 7 7
1 3 3 4 4 4 3 2 3 3 2 3 3 5 4 1 2 1 2 2 1 3 5 4 3 1 3 5 6 6 4 4 2 3 4 5 5 7 8 8 8 7 7 6 6 6 7 8 7 6 5 7 7 8
3 3 3 4 4 1 2 2 2 3 2 3 2 1 1 1 1 3 2 1 1 3 2 1 2 6 5 5 5 5 2 2 3 1 0 4 6 7 8 8 7 6 6 5 4 3 4 5 4 5 6 6 7 9
3 3 4 4 3 3 2 3 2 2 2 2 1 1 1 3 3 3 3 2 3 4 3 4 5 5 5 5 7 6 2 1 1 2 3 4 6 7 7 8 6 5 4 5 5 5 5 5 6 6 6 7 8 9

GFSWCAN_925_spd_027.txt.gz
Wind_Speed
26 27 28 29 30 31 31 32 33 33 32 30 29 26 25 24 21 19 13 22 17 4 10 22 22 16 11 9 9 8 8 4 5 3 5 3 7 2 9 12 8 12 15 13 14 16 17 4 7 5 8 10 13 11
27 29 31 32 32 32 32 33 33 33 30 31 29 26 24 23 20 18 9 16 28 6 6 20 24 30 27 20 9 5 10 13 4 4 3 5 9 4 9 9 9 9 9 10 13 15 3 10 13 6 5 8 8 11
29 31 32 33 34 34 33 33 32 31 32 31 28 26 23 23 20 16 12 12 11 2 6 13 8 8 15 18 18 6 5 9 11 10 5 5 6 10 6 11 12 12 15 12 14 17 14 15 12 9 11 13 12 14
30 32 34 35 35 35 34 33 32 32 32 30 27 25 25 22 17 12 8 12 8 2 3 5 7 7 4 10 15 19 16 7 8 4 5 5 5 9 10 11 14 13 13 15 19 19 19 19 17 15 19 15 17 15
31 33 36 37 36 35 33 33 32 31 29 26 25 24 23 17 9 5 7 9 15 2 3 6 22 7 5 8 17 15 17 12 6 3 4 7 6 8 11 14 16 16 18 14 14 14 13 18 19 21 19 16 17 16
32 35 37 37 34 32 29 28 28 27 26 25 23 21 14 7 3 3 2 3 7 7 2 3 8 4 12 5 2 6 10 9 7 3 4 5 13 5 5 10 19 17 18 20 19 22 23 19 15 16 21 12 16 19
34 36 37 33 30 28 24 24 25 26 24 20 17 10 3 9 2 3 4 4 4 4 2 3 4 4 8 5 2 2 3 1 0 1 3 3 2 3 4 13 29 23 25 25 19 13 20 21 13 18 15 14 17 22
35 36 32 29 26 23 22 26 28 24 19 13 3 10 10 9 6 4 6 3 6 3 2 2 3 4 5 3 0 1 0 2 2 2 2 3 2 4 5 17 24 27 25 27 24 21 20 17 16 16 17 20 16 16
35 32 29 24 21 23 26 29 24 20 12 2 10 6 1 2 2 2 3 6 3 3 1 1 3 3 4 2 0 2 2 2 1 2 2 2 1 3 16 29 32 33 27 25 22 15 13 15 17 20 22 22 19 16
31 27 22 19 21 25 27 23 21 10 5 8 7 6 3 4 4 8 3 2 1 1 1 2 1 3 1 1 2 1 3 1 2 2 1 2 3 11 22 24 16 15 7 15 15 10 10 12 17 19 21 20 15 16
26 21 17 18 22 25 19 19 12 6 3 5 2 4 6 3 2 4 0 4 2 2 2 2 4 3 3 2 2 1 0 0 3 4 5 5 10 24 28 27 24 17 9 6 9 10 11 13 15 15 15 12 10 4
22 17 15 19 23 23 15 15 10 2 4 3 4 1 3 3 2 4 6 5 5 5 6 7 6 4 2 3 3 4 2 3 6 3 6 7 13 25 24 26 29 26 21 18 12 3 8 15 18 16 8 16 15 22
19 15 14 19 24 24 16 17 14 4 5 2 2 4 4 4 7 5 5 4 6 7 7 11 8 2 2 5 4 4 7 5 3 5 4 7 15 19 21 18 21 20 22 26 23 21 24 20 28 23 15 25 31 30
17 13 13 18 24 23 18 15 17 6 4 3 3 6 5 5 5 3 6 8 8 7 11 8 8 1 3 2 5 5 5 5 7 6 5 11 17 17 17 17 18 21 22 20 21 21 24 22 20 26 26 27 31 26
16 12 11 17 22 20 16 11 13 6 5 4 4 4 4 4 3 6 9 9 11 10 7 5 5 7 5 4 5 6 5 5 6 6 7 11 14 15 17 18 18 18 18 17 16 15 16 21 21 22 26 28 27 27
15 8 7 21 20 16 16 5 8 5 3 3 5 8 7 10 10 10 10 11 11 11 3 5 5 5 6 4 6 6 2 2 2 6 8 11 15 16 16 16 15 20 19 20 22 23 20 20 18 18 23 24 26 27
7 5 16 20 17 8 14 6 4 4 4 4 5 6 8 9 9 10 10 10 12 10 8 4 5 4 3 4 4 2 2 2 4 3 5 9 12 15 16 15 17 18 19 20 21 21 19 19 20 20 14 20 23 24
4 12 14 18 15 6 5 8 4 2 3 3 5 6 8 8 9 9 10 9 9 7 7 6 6 9 4 4 4 5 4 3 2 2 2 5 9 14 17 15 18 18 17 18 18 17 18 18 15 13 17 17 18 19
14 14 10 13 12 4 4 3 6 2 4 3 3 5 6 7 8 10 8 11 9 8 5 5 5 4 5 3 5 7 7 9 6 1 2 4 5 8 13 17 17 17 16 16 17 15 13 15 16 17 15 15 15 16
11 7 9 8 6 4 1 3 4 1 4 4 2 4 6 5 6 6 8 8 7 8 7 6 6 6 7 7 7 8 7 8 8 8 7 8 14 12 13 15 15 15 14 14 11 16 12 11 13 14 13 13 13 14
6 5 7 4 2 3 3 3 2 3 3 3 4 3 2 3 4 5 5 6 6 6 6 6 6 7 4 7 9 12 10 12 8 7 7 8 13 12 11 13 14 13 12 13 11 10 11 11 11 11 11 13 14 16
4 7 2 1 2 1 2 2 4 2 3 2 2 3 3 4 5 5 5 3 3 4 5 5 7 7 5 6 9 8 10 13 10 8 4 12 6 6 9 10 11 11 10 11 10 9 11 11 14 10 12 11 7 12
5 4 3 1 2 1 2 2 3 2 3 5 3 2 3 3 3 3 1 2 2 2 3 8 7 4 4 3 4 3 5 11 11 10 8 12 14 5 7 9 9 9 9 9 9 10 8 7 11 13 11 10 11 10
4 3 3 2 1 2 2 2 1 2 2 3 2 4 4 4 2 2 2 2 2 2 4 3 4 5 2 5 5 5 6 12 12 11 8 10 11 10 8 5 6 7 9 8 7 8 9 9 8 10 10 12 11 9
2 2 1 4 3 3 2 3 2 2 3 3 2 3 2 0 3 2 3 1 1 2 1 2 6 5 4 4 8 6 3 9 11 9 10 10 11 10 9 6 4 5 9 11 9 7 7 8 9 11 9 12 11 9
1 3 1 1 1 3 3 4 3 4 5 4 2 2 2 4 3 3 1 3 1 3 3 3 5 5 5 5 6 9 10 10 11 11 11 10 9 10 9 8 7 9 10 10 10 9 8 6 7 8 8 4 4 9
2 2 3 1 4 3 5 3 1 4 3 3 4 2 3 3 3 3 3 1 3 6 17 9 8 12 7 8 7 5 6 5 4 8 4 6 7 7 9 9 9 11 9 10 8 9 10 10 9 8 8 8 8 10
3 2 6 3 4 5 4 6 4 3 2 2 4 3 3 1 3 3 4 6 6 9 4 2 2 7 7 9 9 9 7 7 1 7 6 4 3 6 8 7 6 6 3 6 7 11 11 11 9 9 9 9 9 8
5 4 3 7 8 5 4 4 2 2 2 4 5 5 5 3 5 3 4 3 6 0 3 3 7 2 3 7 4 2 7 8 8 4 4 4 7 8 7 8 8 7 6 5 2 5 5 6 10 9 8 7 7 5
4 1 4 9 7 7 1 5 6 9 5 5 5 3 5 6 9 5 4 4 1 2 2 4 3 2 7 7 8 7 2 2 6 8 6 6 6 7 9 9 9 9 9 7 4 4 3 4 2 2 4 6 7 7
2 3 5 7 8 7 6 7 8 2 2 4 4 4 5 4 8 6 3 1 3 3 3 2 2 3 7 10 10 10 9 6 7 4 6 7 7 7 8 7 7 7 7 6 5 6 6 5 5 5 4 6 7 8
4 7 6 8 8 5 3 4 5 7 3 2 4 2 2 2 2 3 3 3 2 2 4 6 8 10 8 9 8 6 5 6 1 2 2 7 9 10 10 8 8 6 6 6 5 5 6 5 5 5 6 6 7 9
3 4 4 5 6 4 4 5 5 4 5 2 3 4 3 5 5 4 3 5 7 10 8 7 7 6 5 5 7 5 3 5 3 2 4 4 3 5 8 9 8 8 5 5 5 6 6 6 7 7 7 8 7 7

GFSWCAN_925_spd_030.txt.gz
Wind_Speed
23 25 28 29 30 32 33 33 33 32 29 28 27 25 22 20 18 17 13 13 14 3 8 18 20 16 13 8 7 11 8 4 3 4 4 6 6 7 7 4 7 11 11 10 11 9 2 22 11 8 8 12 16 17
24 26 28 31 32 33 34 34 34 31 30 29 27 24 22 20 17 17 9 12 23 5 6 18 21 26 29 25 12 5 9 13 3 4 5 5 12 7 13 7 9 6 4 7 12 11 4 10 7 7 11 10 12 13
25 27 30 32 34 36 37 35 32 30 28 27 25 23 20 18 17 14 11 9 9 2 5 9 10 12 14 21 14 3 4 6 5 8 6 6 7 9 6 9 15 10 15 8 9 16 11 9 12 10 10 9 9 10
26 29 31 34 36 37 35 32 29 27 26 25 23 22 20 17 13 9 5 8 4 2 2 5 9 10 9 3 5 12 11 13 8 6 6 3 4 10 11 16 13 10 13 12 15 15 15 14 14 13 13 14 13 10
29 32 34 36 38 34 30 29 27 25 24 24 22 19 16 11 4 2 3 4 6 1 2 5 16 12 21 9 14 15 12 7 5 4 4 6 7 8 9 12 14 13 14 11 13 16 14 15 16 15 16 14 14 14
31 33 35 38 33 28 27 26 24 25 24 20 18 14 7 6 7 3 2 3 5 3 2 3 9 9 14 14 11 10 8 3 2 1 1 3 6 2 5 9 17 19 18 19 10 20 21 20 19 21 15 17 14 15
32 34 35 33 26 24 23 23 25 23 19 15 8 7 10 8 4 3 3 2 1 3 1 2 4 2 9 6 2 2 4 2 3 2 2 2 2 3 3 13 28 25 26 26 25 22 22 20 14 17 13 17 18 14
33 34 32 23 21 22 23 25 23 18 14 5 9 11 10 7 4 4 6 5 6 4 1 2 3 3 5 3 2 2 2 2 1 1 2 2 2 1 4 15 21 24 28 27 27 25 24 20 20 18 14 11 13 14
32 31 24 19 20 22 24 24 20 11 3 8 10 5 1 2 2 3 4 5 2 1 2 1 1 3 2 1 0 2 1 0 2 1 1 2 2 2 14 22 23 10 12 15 22 24 23 19 20 19 17 16 16 14
30 25 18 18 20 23 25 20 13 2 4 8 4 5 3 4 3 8 2 2 3 2 1 2 1 2 2 1 1 2 2 1 1 1 5 0 2 10 20 21 22 21 15 14 11 13 15 13 11 15 18 14 15 16
25 20 17 17 19 22 18 19 7 2 2 4 7 2 5 3 2 3 1 2 2 2 3 3 6 4 4 2 1 2 1 2 2 3 2 4 7 20 22 23 26 23 23 16 13 8 4 5 10 11 12 15 16 12
23 19 16 16 18 23 17 14 4 4 4 4 2 2 5 4 1 3 4 4 4 4 7 6 1 5 3 4 3 5 2 3 4 3 4 4 9 17 22 23 22 28 28 26 21 15 10 8 3 5 5 11 13 18
23 19 16 15 17 23 17 11 5 1 4 4 3 2 2 1 6 4 3 4 5 4 11 9 10 1 5 6 4 3 5 5 2 4 4 4 11 15 17 18 20 18 27 26 26 29 30 27 31 20 12 22 30 27
23 18 15 14 19 23 16 10 12 4 4 1 2 4 3 3 4 3 6 7 7 7 9 6 4 4 5 3 4 4 4 5 4 5 5 7 13 15 15 15 16 18 17 16 18 23 23 23 21 28 23 26 35 26
23 16 11 13 25 21 12 7 11 8 4 2 1 1 4 8 7 8 8 8 10 11 5 2 2 5 5 4 4 6 5 4 4 5 4 7 13 14 13 15 15 15 13 12 13 11 18 21 20 24 30 33 30 23
21 9 7 21 23 13 12 6 6 2 6 1 3 6 7 9 9 10 9 9 10 10 4 6 5 4 6 4 5 6 4 3 4 4 3 7 12 12 12 10 12 15 17 15 14 14 17 16 16 16 22 24 23 23
11 4 17 21 23 8 7 5 2 2 3 3 4 6 7 8 8 9 9 9 13 8 8 3 5 6 4 4 3 2 2 4 5 7 5 8 7 10 11 13 14 13 13 16 15 19 12 16 20 17 11 15 15 16
4 14 17 17 20 10 2 5 1 2 1 4 4 6 6 7 8 9 9 9 7 9 8 7 5 7 3 3 3 4 5 4 3 4 5 5 7 9 12 13 15 14 11 12 16 10 16 17 12 9 15 13 14 16
17 17 13 13 15 6 4 3 5 1 1 3 6 5 5 5 6 6 8 10 10 8 5 4 2 5 3 1 5 7 9 8 9 10 3 2 7 12 13 15 15 15 12 11 11 13 12 13 13 15 16 14 14 17
11 10 9 10 8 5 1 1 3 4 2 4 5 3 5 4 3 5 6 7 7 5 5 6 7 6 6 7 7 7 8 8 9 8 8 9 15 15 13 12 14 15 13 13 12 14 13 13 13 13 13 14 15 14
6 4 10 5 5 6 4 4 2 2 3 2 5 4 4 5 3 7 5 3 6 5 5 6 7 7 6 6 7 9 9 12 8 8 7 8 13 14 12 12 13 14 12 12 11 12 14 14 17 12 12 12 14 15
5 10 4 4 4 1 4 3 4 1 2 5 3 4 5 3 4 6 5 4 3 4 4 6 6 6 4 5 5 4 4 8 14 14 3 10 8 8 6 10 10 10 12 11 13 12 13 14 13 15 13 12 12 14
7 4 4 3 2 2 4 4 3 2 2 4 5 2 4 2 2 1 2 2 3 3 4 6 4 7 3 7 5 4 1 7 11 11 11 9 12 13 12 8 8 8 9 10 9 10 10 11 10 10 13 14 13 11
3 4 4 3 2 3 3 4 2 2 3 3 2 4 6 5 4 3 4 2 4 2 5 3 7 6 4 8 6 5 8 9 11 11 12 11 11 12 11 11 6 7 8 11 11 8 9 10 10 13 13 14 13 10
2 4 2 5 4 4 4 3 3 3 4 7 1 3 5 2 2 4 3 2 5 5 7 13 10 10 9 6 6 7 10 13 13 9 13 13 12 12 13 12 12 12 12 11 12 11 9 8 9 10 11 12 8 12
1 5 3 3 3 3 4 4 5 6 4 2 1 3 5 4 2 1 3 2 5 5 5 3 2 2 7 14 7 8 10 10 9 11 11 11 10 11 11 9 8 13 12 12 12 12 10 10 9 10 8 5 6 11
3 6 5 3 5 6 5 6 7 4 6 9 6 5 4 2 3 3 1 1 5 6 4 2 1 2 8 10 12 10 7 6 3 6 3 3 5 8 10 9 11 13 9 11 11 13 13 13 11 10 10 12 12 11
6 3 8 4 8 9 3 7 9 1 4 5 6 5 3 4 3 3 8 10 10 5 3 7 4 7 3 7 7 6 7 9 5 6 10 4 4 8 8 9 7 6 4 6 8 11 11 11 11 11 10 9 7 7
6 7 10 18 4 9 2 4 3 6 6 4 5 7 5 3 5 6 13 10 6 6 7 5 5 4 7 9 9 7 2 3 6 7 7 5 7 10 10 10 12 12 8 6 6 8 8 7 9 8 8 7 6 7
5 8 10 7 6 6 4 4 5 8 4 5 3 3 8 8 12 7 6 4 4 5 1 4 5 7 8 10 13 14 12 8 9 8 7 6 6 9 11 10 10 9 10 8 4 3 5 3 2 3 4 7 9 10
2 7 5 7 11 1 6 5 8 5 3 1 4 5 3 7 7 7 9 7 5 3 5 8 5 8 11 13 11 10 11 10 7 7 5 7 9 9 10 9 8 8 6 6 8 9 9 7 8 6 6 7 6 7
5 8 8 10 7 6 7 3 5 8 5 3 2 3 10 5 3 3 9 11 13 9 4 6 12 14 13 10 11 9 5 11 13 10 10 11 12 10 10 9 9 8 6 5 5 5 5 6 5 6 6 6 7 7
5 6 4 4 5 6 5 4 5 7 5 6 3 8 5 5 5 3 4 8 9 11 11 10 10 10 7 7 8 7 6 12 11 12 12 12 9 8 8 10 9 10 7 6 7 6 5 6 6 6 6 6 6 6

GFSWCAN_925_spd_036.txt.gz
Wind_Speed
14 18 21 24 28 30 30 31 26 24 22 19 18 15 14 12 11 9 7 7 9 3 3 5 4 3 6 2 2 4 5 5 4 4 3 3 3 4 3 3 2 4 4 4 5 5 4 19 13 13 10 6 12 13
17 20 23 26 29 30 32 27 23 22 20 19 17 14 12 10 8 6 5 8 15 1 3 10 16 20 14 10 3 2 2 2 2 4 3 3 2 3 5 3 3 4 1 2 4 3 4 4 6 13 16 13 5 6
19 23 26 29 30 32 27 24 22 21 20 18 16 12 10 7 4 4 4 4 2 1 3 3 3 14 12 10 15 1 3 3 5 4 2 3 2 4 5 3 4 5 2 2 3 6 9 8 9 15 16 17 15 12
22 25 28 30 31 28 24 22 22 20 19 16 12 9 6 3 1 4 3 2 1 1 1 3 5 5 16 17 3 18 7 3 1 2 1 3 3 4 2 3 2 5 6 8 4 5 5 7 9 13 20 18 16 12
25 27 29 30 28 22 22 21 21 20 16 12 10 7 4 8 8 6 1 4 2 1 1 4 13 7 15 13 16 17 11 4 2 3 2 2 1 3 3 2 2 6 7 3 4 9 7 16 8 13 16 19 16 13
26 27 28 27 19 19 20 21 20 17 12 7 7 8 9 10 8 5 0 3 3 2 1 3 4 4 11 10 15 11 8 4 2 2 2 2 4 4 2 1 3 17 18 16 10 9 11 17 20 15 14 17 11 15
26 26 25 19 17 19 19 22 19 13 6 6 7 6 4 5 4 2 1 1 3 3 2 3 4 2 5 3 4 3 7 2 2 2 2 2 2 4 2 3 18 19 16 14 12 11 12 14 9 7 13 7 7 17
27 25 22 16 16 18 20 23 17 9 4 4 5 5 4 4 5 1 4 7 6 2 2 1 3 4 7 3 3 4 3 3 5 2 2 3 2 1 1 11 16 19 17 9 13 9 12 15 16 10 7 9 4 5
26 23 20 15 14 15 20 22 16 6 4 3 2 2 3 3 2 2 6 5 2 1 1 1 1 3 2 2 2 3 3 3 1 2 3 2 3 4 10 16 19 19 18 18 17 12 13 11 8 11 10 11 7 8
25 21 18 14 12 12 17 20 15 6 3 1 3 1 2 2 3 8 2 0 0 1 1 3 2 2 3 1 1 1 1 2 3 3 2 3 2 8 6 6 10 16 18 21 14 17 11 7 5 8 9 6 6 4
23 21 18 14 10 9 13 17 13 7 2 0 1 1 3 6 1 2 1 2 1 2 3 3 4 2 2 2 2 2 2 1 2 2 2 3 4 10 8 6 6 11 13 15 17 17 17 14 5 1 2 5 6 8
22 20 19 13 9 9 14 15 11 5 2 2 7 3 4 2 1 1 3 4 1 3 3 3 3 4 2 3 2 2 1 1 2 3 3 3 4 8 8 7 4 5 11 13 19 17 23 24 23 15 13 12 13 15
22 20 17 9 9 14 17 15 9 7 7 3 1 2 2 2 5 3 4 5 4 3 3 2 2 4 2 2 2 3 3 1 3 4 1 3 5 7 8 6 6 2 7 12 14 21 26 27 33 31 20 24 22 23
22 20 13 6 16 20 17 15 8 4 2 2 2 5 1 5 3 2 3 3 6 3 7 3 3 3 3 2 0 4 2 4 3 3 1 2 4 6 7 6 5 3 3 5 8 13 16 20 22 27 28 28 24 23
22 21 9 7 20 21 17 13 9 2 3 3 2 0 1 3 2 3 2 4 5 4 5 3 3 4 4 5 3 3 4 3 2 3 3 3 5 5 7 6 7 6 4 3 3 6 9 12 16 18 22 25 25 25
22 14 2 16 24 20 13 10 8 2 3 2 1 2 1 4 4 4 3 4 4 5 3 4 4 4 5 3 4 2 2 1 2 4 4 4 2 4 6 6 7 10 4 10 8 6 6 4 6 9 10 12 16 21
19 3 10 22 23 18 6 2 3 3 3 3 1 2 4 2 3 3 1 4 5 4 3 4 4 1 2 3 1 4 3 3 3 3 2 3 3 4 5 8 10 13 8 6 12 9 7 7 7 5 3 4 1 6
7 16 15 15 18 13 2 3 3 3 4 2 3 3 1 2 1 2 3 2 3 3 2 1 4 3 2 1 1 1 0 2 2 2 3 3 3 4 4 5 11 14 8 10 6 5 6 6 4 1 3 9 10 8
22 17 11 8 13 6 2 3 2 2 2 1 1 1 2 3 3 2 2 2 2 2 3 3 4 2 1 1 3 2 2 1 1 3 3 3 4 4 3 3 10 9 13 16 13 15 15 16 6 9 11 14 12 12
11 9 4 12 8 2 2 4 3 2 2 3 1 3 2 4 4 3 2 0 3 3 4 2 2 2 4 3 3 3 3 1 2 3 4 5 12 14 4 1 5 10 9 16 13 13 15 18 11 8 9 10 12 12
6 3 11 4 2 6 2 2 3 3 2 0 3 1 4 1 2 1 2 1 3 2 2 3 3 3 7 8 8 9 3 1 2 4 4 3 7 10 14 2 7 10 11 9 7 7 11 11 14 7 11 12 14 14
4 9 3 2 2 3 2 5 4 3 1 3 2 1 3 2 1 2 3 3 2 3 4 4 3 3 3 3 8 10 6 5 8 12 6 6 4 5 8 11 7 9 12 9 9 6 6 10 12 15 17 14 17 20
7 4 3 3 3 2 6 1 1 3 2 3 1 1 3 1 2 1 1 2 2 3 5 3 4 5 7 8 2 13 9 4 7 10 11 10 13 17 20 20 22 17 13 12 7 5 9 12 9 18 22 24 21 21
5 2 2 2 3 4 3 2 3 2 4 4 2 3 1 3 2 4 3 4 2 3 3 3 5 4 7 7 4 9 12 13 14 11 10 11 12 16 19 22 21 22 20 19 15 12 14 13 12 16 15 22 17 15
3 5 3 5 3 2 3 1 2 1 3 3 2 3 2 2 3 3 2 4 1 2 1 0 3 2 3 3 6 11 12 12 12 6 7 8 12 14 13 15 12 14 15 15 15 15 15 15 17 17 14 18 13 14
1 4 6 3 2 2 2 0 2 4 3 3 4 1 3 3 3 3 3 3 3 1 1 2 3 1 1 4 4 5 12 12 11 10 7 11 11 10 11 6 7 14 16 16 18 20 18 15 13 13 14 16 15 14
2 4 4 3 2 4 1 2 3 1 4 3 2 2 2 3 2 3 3 4 3 7 2 5 2 2 3 3 8 5 7 11 4 7 12 15 12 10 15 13 11 10 12 13 13 13 12 14 10 10 13 11 11 10
5 2 3 2 2 3 4 1 2 2 2 5 7 1 3 1 2 3 4 5 6 5 6 2 1 3 8 10 1 6 4 10 14 23 18 17 16 16 14 14 10 7 8 10 13 13 13 13 15 11 8 14 17 9
4 3 3 2 3 2 5 5 4 4 3 3 6 4 5 3 2 1 5 7 5 7 5 6 9 3 27 23 24 21 21 18 18 9 9 5 7 9 11 12 11 8 8 9 9 11 9 9 8 9 11 11 12 11
4 4 2 3 3 5 5 7 2 3 3 4 4 2 2 2 2 7 12 8 6 6 15 21 20 24 20 17 16 21 21 21 17 17 6 4 8 12 11 8 8 8 9 10 6 8 8 6 9 10 11 10 10 11
3 4 2 4 4 4 4 7 12 8 4 2 1 3 3 1 2 6 15 19 23 22 24 21 20 17 16 17 19 18 16 19 20 18 15 12 11 12 10 7 8 7 10 10 9 8 8 7 8 4 7 7 7 7
3 7 5 3 4 4 1 3 4 4 3 1 2 2 2 2 2 3 5 12 18 20 19 19 20 19 19 21 22 21 20 19 19 17 14 14 14 14 16 15 10 8 10 12 10 9 8 5 7 7 6 6 9 9
2 2 2 1 3 4 2 3 3 3 3 3 2 3 3 4 2 2 10 15 12 15 18 20 20 19 19 20 22 22 21 20 18 16 14 14 16 16 13 15 14 11 10 10 8 9 11 11 9 9 8 7 8 8

GFSWCAN_925_spd_039.txt.gz
Wind_Speed
14 18 21 23 25 27 28 25 22 21 19 18 15 13 10 8 6 5 5 6 8 2 3 4 4 4 2 2 2 4 4 2 4 5 3 3 3 3 2 3 3 4 3 1 1 4 2 15 7 7 2 6 14 14
17 21 24 25 26 27 26 22 21 20 19 17 14 10 8 6 3 4 3 4 10 0 4 10 15 11 8 5 2 2 3 2 3 3 4 3 2 4 9 3 6 5 3 4 6 2 5 2 8 7 8 9 15 15
19 22 25 27 27 27 22 21 21 20 18 14 10 7 5 3 1 3 1 1 3 0 4 3 2 12 13 14 8 1 3 3 4 2 2 2 2 4 5 5 4 4 6 2 5 5 9 7 4 14 13 13 15 17
22 25 26 27 27 20 20 21 20 18 15 10 6 6 3 2 2 1 1 1 0 1 1 4 6 5 11 10 3 12 6 7 1 2 2 3 3 6 4 2 1 6 5 8 5 6 9 3 10 15 18 16 17 19
23 25 27 26 22 18 19 19 18 16 11 7 6 5 4 9 5 4 1 2 2 1 1 4 10 4 9 13 13 11 6 2 3 3 3 3 2 4 2 2 5 9 6 3 3 12 10 13 13 7 13 17 17 15
24 26 25 23 18 18 19 19 16 12 6 5 6 5 4 5 4 2 1 2 2 1 2 3 2 2 3 5 12 10 7 3 3 3 2 3 4 4 2 1 4 10 10 7 4 8 11 17 14 13 13 13 18 15
25 25 24 20 17 17 18 19 13 7 5 5 3 2 0 3 3 0 2 2 3 1 2 3 4 3 1 2 2 2 4 2 2 1 2 2 2 3 1 5 16 13 14 12 12 11 7 13 10 6 8 10 20 24
25 24 21 18 15 14 16 16 11 4 4 5 2 1 2 1 3 1 2 5 3 2 1 1 4 3 2 2 2 3 1 2 2 1 0 1 1 1 3 9 13 15 11 11 14 11 10 12 14 14 12 11 7 8
24 23 20 17 14 12 13 16 10 3 0 4 3 4 3 3 2 1 5 3 0 0 1 1 1 3 2 1 1 2 1 4 1 2 2 2 3 4 6 8 10 15 13 15 14 14 13 11 9 9 7 8 7 8
24 22 19 16 13 10 10 14 11 5 2 2 2 1 2 3 2 5 1 1 1 0 1 3 1 2 2 2 2 1 2 3 2 2 1 3 3 6 5 5 3 8 10 13 12 18 16 19 8 5 5 5 6 6
25 21 19 16 11 8 8 13 11 4 1 2 1 1 2 4 2 1 2 1 0 3 3 3 4 2 1 0 0 1 1 2 2 1 2 1 3 5 7 6 3 5 7 9 9 13 17 18 16 14 13 14 13 11
25 20 19 15 8 6 11 12 11 3 2 1 2 0 2 0 1 1 3 3 1 3 2 2 3 3 1 2 2 1 1 0 2 1 3 2 3 7 7 7 5 3 7 8 15 12 18 22 22 17 14 14 18 19
22 19 17 13 6 13 14 12 9 5 5 2 1 1 2 1 5 3 4 5 4 3 3 3 3 3 2 2 0 1 2 1 2 3 2 3 4 6 6 6 7 4 8 9 11 16 17 18 21 20 18 22 22 22
22 20 19 13 7 17 17 12 4 3 4 2 3 5 2 4 2 3 4 4 6 4 5 1 2 2 2 2 1 3 1 3 2 3 3 3 5 7 7 6 4 4 3 4 4 7 6 8 11 19 20 19 21 21
22 21 17 4 11 19 18 12 2 5 4 2 3 2 2 2 3 4 4 3 4 2 2 2 3 3 3 4 3 3 4 2 1 3 3 4 6 6 7 6 7 6 3 1 1 2 3 4 5 8 11 15 18 22
24 17 2 9 20 20 17 4 5 4 2 2 3 1 2 1 4 3 3 3 3 4 1 3 3 3 4 2 3 1 3 3 3 3 4 3 5 5 6 6 7 6 4 8 7 5 2 4 4 2 1 4 10 15
20 3 13 19 20 17 6 3 3 3 3 2 3 3 3 2 4 3 2 4 2 3 2 3 3 1 1 2 0 3 4 3 3 4 3 3 4 5 7 7 10 7 2 2 13 8 9 9 9 9 9 8 8 4
10 18 17 15 15 11 1 5 2 3 4 3 2 3 2 3 3 3 3 2 2 2 2 2 3 3 1 2 2 3 3 2 3 4 3 3 4 8 8 6 8 2 7 8 8 3 5 8 8 7 6 2 5 8
26 18 6 6 10 4 2 2 3 2 3 2 2 1 2 2 3 3 2 1 1 2 4 2 3 1 3 3 3 2 2 3 3 2 3 5 5 9 10 2 1 5 10 8 9 6 4 3 2 2 4 4 4 5
9 5 2 9 6 0 2 4 1 1 3 3 1 1 2 3 2 1 1 1 2 2 2 2 4 3 4 3 4 4 3 3 2 2 3 4 8 7 3 3 2 8 8 6 7 8 6 5 6 10 9 7 10 9
2 3 8 3 1 4 2 2 3 3 3 1 2 1 2 2 4 5 4 4 3 2 2 3 3 3 5 5 8 8 6 5 1 3 3 3 6 6 6 3 4 5 7 5 6 6 7 6 4 9 12 13 14 14
4 8 2 1 1 1 2 4 3 2 0 3 4 2 1 2 3 2 3 1 1 2 2 2 2 1 2 3 7 11 2 6 7 6 5 5 3 4 7 5 7 4 6 3 3 4 5 6 8 8 13 13 16 17
7 4 2 1 1 2 6 2 1 3 1 3 3 3 3 2 1 2 2 1 3 2 2 2 1 1 3 2 4 6 6 11 7 6 8 10 12 13 15 15 13 16 9 4 1 0 8 11 12 18 16 15 16 18
3 1 1 1 2 4 2 2 2 3 3 4 4 2 3 2 3 3 2 2 3 4 2 2 4 3 4 3 3 7 12 12 10 7 10 13 9 7 11 14 14 11 8 12 9 6 8 12 15 15 13 12 14 14
4 4 3 4 2 1 3 2 2 3 3 3 3 3 3 4 3 2 2 3 2 2 2 4 3 2 3 1 1 7 14 17 14 7 12 14 11 4 7 13 13 10 8 9 9 9 12 12 13 14 11 9 10 10
1 3 5 3 2 3 3 1 2 2 2 2 1 2 1 2 2 3 3 2 2 2 2 2 2 1 1 6 3 5 14 14 12 6 8 12 13 13 7 5 4 10 9 9 11 13 12 12 10 10 10 11 10 10
1 4 4 3 1 1 0 2 1 1 1 1 0 2 1 1 3 3 2 4 3 5 5 2 3 4 5 7 9 8 5 10 5 6 8 8 8 12 8 6 6 5 5 5 7 8 10 9 10 11 10 8 8 7
6 2 5 3 2 1 2 2 4 5 3 2 4 1 3 3 3 2 3 4 7 7 5 1 6 5 8 6 6 5 10 17 23 19 16 15 13 9 8 7 7 4 6 7 10 12 13 10 11 13 12 8 8 9
3 3 3 4 2 2 4 6 4 3 3 3 4 3 2 2 1 2 5 9 5 1 2 13 17 23 23 18 16 13 11 15 19 9 7 3 2 1 6 9 6 7 7 8 7 8 9 10 11 12 12 10 10 11
4 4 3 3 4 5 4 6 4 4 2 3 3 2 2 2 4 7 5 6 13 16 19 19 17 16 15 19 20 23 20 13 8 13 6 4 8 9 7 2 9 4 4 4 6 7 10 13 12 10 10 10 9 11
2 3 2 3 3 2 2 7 8 5 3 2 2 3 3 1 3 8 16 21 21 20 20 17 14 16 19 19 20 17 14 14 13 11 9 10 6 9 9 6 6 7 8 6 6 6 6 7 6 6 7 8 7 7
4 6 5 4 1 3 4 2 2 2 2 2 1 2 1 2 1 2 5 14 18 16 15 15 17 13 15 16 16 17 16 14 12 12 12 13 15 15 16 14 12 12 10 6 8 7 6 5 6 7 8 8 8 9
2 2 3 2 4 8 5 5 3 2 2 2 2 3 3 3 3 4 7 10 11 17 16 16 19 21 21 20 19 18 16 16 15 16 16 15 13 12 12 11 11 10 11 12 12 12 11 10 9 8 8 9 9 9

GFSWCAN_925_spd_042.txt.gz
Wind_Speed
15 19 22 25 26 27 26 22 19 19 18 16 13 10 7 5 2 2 1 4 5 2 3 4 3 3 3 1 2 6 5 2 3 3 2 3 2 5 3 3 1 1 3 1 3 4 4 18 4 7 1 7 10 14
19 22 24 26 27 27 22 19 19 18 17 14 9 7 5 3 0 2 1 3 6 2 3 9 12 7 5 5 2 2 3 3 2 3 3 3 3 4 7 2 6 3 3 2 4 4 9 8 11 8 9 5 11 13
19 23 25 26 27 22 19 18 18 17 14 10 7 6 4 1 2 4 3 2 1 1 4 4 3 10 7 8 4 2 2 3 3 1 2 2 3 4 4 5 4 5 9 3 4 7 11 6 3 11 8 10 11 13
20 23 24 25 24 20 19 19 17 14 11 9 7 4 1 2 4 4 2 2 0 2 1 4 6 3 9 7 4 8 5 6 3 2 2 2 3 6 4 4 4 4 8 7 3 4 9 4 14 11 14 12 12 12
21 23 24 24 21 18 18 19 15 12 7 7 7 7 4 4 3 3 2 2 1 2 2 4 9 3 6 12 13 11 4 3 3 3 3 4 2 4 3 3 2 7 3 2 1 10 5 8 12 15 15 14 12 11
22 25 25 23 19 16 17 19 14 8 5 5 5 4 2 0 2 2 1 3 3 1 2 2 3 3 4 6 12 9 6 3 2 2 2 2 2 4 3 3 14 15 13 11 7 12 12 13 13 14 13 15 11 10
23 24 23 21 18 14 14 18 12 5 2 2 2 1 1 2 2 1 2 3 3 2 1 3 4 2 0 3 5 3 6 3 3 1 2 2 2 3 2 3 13 15 13 12 13 11 8 8 8 14 13 17 16 10
23 24 24 19 16 13 11 14 12 5 2 2 2 1 1 2 3 2 1 3 1 0 2 2 3 1 2 1 1 2 2 3 4 1 2 2 2 2 3 9 11 12 12 12 16 13 9 12 8 6 9 9 8 9
23 25 23 18 16 12 9 10 12 6 3 4 4 4 4 2 1 2 3 2 2 0 1 0 2 2 1 1 1 2 2 2 1 2 3 3 3 4 5 8 7 12 12 13 14 16 16 16 11 9 10 7 4 7
23 24 22 19 15 10 8 9 12 7 3 2 2 2 2 2 2 2 2 1 1 1 1 3 1 2 1 1 2 2 1 2 2 1 2 3 3 4 5 6 5 6 9 11 8 15 12 15 14 15 16 13 6 6
24 22 20 17 11 7 7 11 10 6 1 1 1 1 1 2 2 2 2 1 1 3 3 3 4 2 1 1 1 1 2 1 2 1 1 2 3 4 4 7 4 5 8 9 11 10 10 10 12 12 13 14 16 17
23 22 19 15 9 6 11 11 10 2 2 1 1 1 1 0 1 2 3 3 0 3 2 2 2 3 1 1 1 0 1 2 2 1 3 1 3 4 4 4 4 4 5 6 10 11 15 13 12 12 12 14 18 20
24 22 20 17 11 5 12 13 10 5 2 1 2 1 3 1 5 3 4 5 3 3 3 1 2 2 0 1 2 1 2 1 3 3 1 4 3 5 4 3 1 5 4 3 4 8 10 12 13 15 16 17 16 18
25 24 23 17 3 6 15 13 8 4 3 1 1 5 2 4 2 4 4 4 5 4 4 1 2 1 1 1 1 3 0 2 2 2 3 3 4 5 5 2 1 2 5 3 1 2 4 8 11 17 18 17 16 16
26 27 20 3 3 15 17 12 6 7 4 1 2 2 4 3 3 4 3 3 3 2 2 1 2 2 2 3 2 2 3 2 2 4 3 4 3 4 5 4 4 2 4 5 4 1 2 4 4 6 11 14 15 13
28 19 2 8 15 16 15 2 8 4 2 2 3 2 2 1 4 2 2 3 1 1 1 2 3 3 3 1 2 0 2 3 3 3 3 3 4 4 5 4 5 7 3 9 9 6 4 4 4 4 5 6 4 9
25 3 12 18 15 13 2 2 4 4 3 3 4 3 2 2 4 3 3 3 1 2 2 2 3 1 0 2 2 3 4 3 3 4 2 2 4 6 6 5 6 5 4 2 4 8 9 8 8 8 10 9 7 6
15 16 21 12 9 6 1 6 3 2 4 3 2 2 3 3 2 3 3 1 1 3 3 2 4 2 1 2 3 3 3 3 3 3 3 4 4 8 7 5 3 1 2 3 1 3 7 6 5 6 8 5 6 2
28 16 3 3 6 2 0 3 3 3 4 2 3 2 2 3 2 1 1 2 2 2 4 2 2 2 3 3 3 2 2 2 2 2 3 6 7 9 10 3 2 5 6 5 1 4 5 3 5 5 5 5 5 6
6 3 3 6 4 1 1 3 1 1 3 3 2 2 1 2 2 3 2 1 3 2 3 1 2 1 2 2 4 3 3 3 2 2 3 4 5 7 9 4 4 6 8 5 3 4 5 6 7 6 6 7 7 8
1 4 5 2 1 2 2 1 2 3 2 2 2 2 1 1 3 3 3 3 2 1 3 3 1 1 4 6 4 3 4 6 3 3 3 3 6 8 8 7 2 3 3 4 5 6 5 4 4 4 7 11 9 8
3 5 1 1 0 1 2 4 2 2 1 2 2 2 3 2 3 3 3 3 1 1 2 1 2 3 3 2 4 7 5 7 5 3 1 2 3 4 5 5 1 4 5 2 4 4 2 3 3 10 12 11 13 16
5 2 1 1 0 2 5 1 1 1 1 3 3 2 2 1 2 2 2 1 2 2 2 1 3 3 3 3 4 8 8 10 7 5 5 7 8 8 8 8 5 4 2 1 3 4 4 4 9 13 12 11 14 17
3 2 1 1 2 3 2 2 1 3 3 3 3 3 3 3 3 3 1 2 2 3 2 3 3 2 3 2 1 7 10 9 7 5 9 11 8 5 7 8 9 10 8 5 4 10 8 7 11 12 11 13 14 14
4 3 3 4 1 1 2 1 2 2 2 2 3 2 3 2 3 3 2 3 2 2 2 2 2 0 2 2 3 5 8 10 6 3 7 5 4 7 8 10 11 10 8 7 6 6 7 7 4 6 8 10 11 12
1 3 5 3 1 3 1 1 2 1 0 1 1 2 2 1 1 3 2 2 2 2 2 2 2 1 3 6 2 1 3 6 10 5 6 8 5 5 9 8 6 7 10 8 6 9 13 11 11 9 8 6 7 10
1 4 4 2 2 2 1 1 1 2 1 1 2 1 2 2 2 2 2 3 2 2 4 3 1 2 3 2 4 6 6 10 9 6 7 9 10 5 6 2 2 5 8 6 4 5 7 10 11 10 10 9 5 8
5 2 5 2 2 2 2 2 3 5 4 3 3 1 2 2 2 2 3 2 5 2 3 5 7 9 11 8 5 3 5 7 15 20 16 12 7 6 5 9 9 8 7 7 8 7 7 9 9 9 8 9 7 5
3 2 3 3 2 2 4 5 4 4 4 4 5 4 3 2 1 2 2 6 5 6 14 16 13 16 19 20 17 13 12 11 2 4 5 3 5 8 7 8 9 4 5 5 6 6 9 11 12 13 11 9 7 8
4 4 3 2 3 4 4 5 3 3 2 2 2 2 2 2 4 6 3 4 7 11 13 11 9 11 15 17 18 21 20 14 9 6 4 3 5 9 10 4 1 2 2 3 7 9 11 12 11 11 12 11 11 9
3 3 2 3 3 2 2 3 5 4 2 2 1 2 2 2 4 7 8 11 14 16 14 13 13 12 14 13 14 13 12 13 12 10 7 3 2 6 5 2 3 7 4 4 6 7 8 8 8 9 9 9 8 7
4 6 5 4 2 2 1 2 2 2 2 2 1 1 1 2 1 2 4 9 10 8 8 11 15 12 12 14 15 14 12 11 10 10 10 11 13 13 11 9 8 8 5 5 6 6 7 7 7 8 9 8 8 7
2 1 2 4 2 4 4 3 2 2 2 3 3 4 3 4 3 3 2 9 5 9 12 14 17 18 17 15 14 14 15 16 15 13 11 10 9 9 9 8 8 7 8 8 8 8 7 8 7 8 8 8 7 7

GFSWCAN_925_spd_045.txt.gz
Wind_Speed
16 19 21 23 23 23 18 17 17 16 13 10 6 4 3 1 2 4 3 2 3 1 4 2 3 3 3 2 2 5 4 0 2 3 3 3 3 3 2 3 6 6 6 7 8 6 9 17 5 4 5 7 6 9
17 20 22 22 23 20 18 17 17 15 10 8 5 4 3 1 3 4 3 2 2 2 3 5 11 11 5 6 3 1 3 3 2 3 2 3 2 4 7 4 3 2 3 2 2 1 13 5 14 11 8 7 10 11
18 20 23 22 20 18 17 17 15 12 8 6 3 2 3 1 5 3 4 4 2 1 3 2 2 3 2 6 5 2 2 2 2 2 2 2 3 3 4 3 3 2 5 2 3 4 12 6 11 13 11 9 9 11
18 21 22 22 19 16 16 17 14 10 5 5 3 2 6 5 5 3 1 3 2 1 2 2 1 0 4 5 3 7 8 4 4 1 2 2 3 6 4 3 3 4 7 6 4 8 12 12 13 15 14 11 12 12
18 21 22 22 18 14 14 16 13 6 2 3 5 5 6 5 5 3 2 3 3 2 2 3 5 2 1 6 7 6 2 2 2 2 3 4 3 4 4 3 4 8 6 5 3 12 7 9 14 14 15 14 12 12
18 20 22 21 17 13 12 15 13 5 1 2 2 2 2 2 3 1 1 4 4 2 2 2 3 2 1 3 5 10 8 4 3 3 2 3 3 5 3 3 14 14 13 11 6 14 9 12 12 12 11 12 11 9
18 20 22 19 17 13 10 11 12 6 3 3 2 1 2 3 4 2 2 2 3 1 1 3 2 2 3 4 4 2 5 3 2 2 3 3 2 4 2 3 14 15 16 13 14 13 11 15 9 12 12 11 9 8
18 21 22 19 17 13 9 8 11 8 4 5 4 2 1 3 4 3 2 2 3 1 2 2 2 1 1 1 2 4 3 2 4 2 2 3 4 3 3 13 11 17 15 16 16 16 13 15 16 19 17 11 10 8
18 21 20 19 18 13 8 8 9 8 5 4 5 3 2 2 2 1 3 3 2 1 2 1 2 3 1 1 1 1 2 3 2 3 3 3 3 4 6 10 13 12 13 15 15 15 15 15 15 16 17 16 14 11
18 19 19 17 16 11 8 8 10 9 4 2 3 2 2 1 3 4 2 2 2 2 1 2 1 1 3 3 1 2 0 1 2 3 3 4 2 3 6 7 4 9 11 13 15 16 12 15 14 14 15 13 14 11
19 19 19 16 13 9 9 11 9 5 2 2 2 1 1 3 1 3 1 1 0 2 3 3 4 2 2 1 2 1 2 0 1 1 3 3 2 3 6 6 4 6 9 10 12 14 14 12 13 13 12 14 16 17
19 19 19 17 14 10 8 12 10 3 3 2 1 1 2 2 1 1 1 1 2 2 3 2 0 3 1 1 2 2 2 2 2 2 1 1 3 2 5 7 4 3 5 6 9 10 14 17 19 20 18 18 18 18
20 21 21 20 15 7 6 13 11 6 2 1 1 1 1 0 3 2 3 3 3 2 2 1 2 2 2 2 1 2 2 3 3 1 1 3 3 2 2 5 5 4 2 3 4 6 9 12 16 18 17 20 20 20
21 24 24 17 1 3 8 15 10 5 2 1 1 5 1 2 3 3 3 4 3 3 5 3 1 2 2 3 1 1 2 3 2 1 1 1 1 3 2 1 3 5 7 4 3 3 5 6 7 8 12 14 16 18
23 25 10 5 1 10 15 13 6 8 3 1 1 2 4 3 4 3 2 3 3 2 2 2 2 2 2 2 1 2 3 1 1 1 1 1 4 4 2 2 2 3 6 7 6 6 5 5 7 9 8 8 10 12
25 16 2 7 14 17 13 2 9 5 2 2 3 3 2 3 3 2 3 3 1 1 1 2 1 1 2 1 1 2 1 1 1 2 2 4 4 4 3 3 4 4 4 6 8 7 7 6 7 9 10 8 5 6
21 3 10 17 20 10 4 1 4 3 2 3 3 3 5 5 5 3 2 2 3 2 2 2 3 2 1 2 1 2 2 1 1 1 2 3 4 5 5 5 5 3 2 3 4 4 5 6 6 7 7 5 6 5
9 16 23 20 10 1 2 6 3 2 4 4 3 2 2 3 3 2 2 2 1 1 2 2 1 1 2 5 4 3 2 1 1 3 2 2 3 5 6 6 5 4 2 1 1 3 3 2 3 6 6 4 6 7
28 16 4 4 2 1 2 3 3 3 3 2 3 2 2 2 1 2 3 1 2 2 4 0 3 3 4 1 5 6 2 1 2 1 1 3 3 5 6 3 3 4 4 2 1 3 2 2 4 4 4 4 6 8
6 1 3 6 4 2 2 2 2 2 3 1 2 2 2 2 3 2 2 1 1 1 2 3 2 3 4 5 5 4 1 2 1 2 3 3 2 3 4 5 1 3 4 1 1 2 4 4 5 5 5 6 7 7
2 2 5 1 1 3 2 1 3 2 2 2 1 3 2 1 2 3 3 3 1 2 3 1 2 5 9 7 5 5 5 6 3 2 2 3 5 5 5 4 1 3 4 3 2 2 4 4 3 4 6 7 7 6
1 6 2 2 2 2 3 3 2 2 2 2 2 2 2 2 2 2 3 2 2 1 1 2 2 3 4 4 3 6 6 7 3 2 1 1 3 4 7 8 5 6 5 4 2 2 4 4 5 5 6 7 9 11
5 2 2 1 2 0 2 1 2 2 2 3 3 1 1 1 2 2 1 0 0 1 2 1 3 3 4 4 2 4 3 5 3 2 4 6 5 4 6 8 7 5 3 3 0 1 6 6 6 3 5 6 8 10
3 2 1 1 2 2 1 0 1 1 2 2 3 3 2 2 3 2 1 1 1 1 1 3 5 4 2 2 2 1 2 3 4 4 3 4 5 7 7 10 10 9 7 4 4 4 4 5 8 5 4 8 9 9
2 1 1 3 1 2 1 1 1 0 1 1 2 2 1 2 2 2 2 2 2 2 2 3 3 2 3 4 4 4 2 4 5 4 5 5 8 9 11 15 11 11 10 6 6 6 10 11 10 8 7 9 9 8
1 2 4 2 2 2 1 2 2 2 2 2 2 2 0 1 1 1 0 1 1 2 2 3 3 3 3 3 3 1 3 7 5 4 3 6 9 8 4 2 4 6 8 7 4 4 5 6 10 10 8 3 5 6
1 2 2 1 1 2 1 1 0 2 2 2 1 1 1 1 1 1 0 2 2 2 4 4 4 4 4 4 3 5 6 3 1 2 15 13 6 7 8 8 7 6 8 9 6 4 5 4 8 8 7 6 6 6
4 2 4 4 3 2 1 2 2 3 2 2 1 2 1 1 1 1 0 1 3 3 7 9 10 9 9 8 8 7 8 9 14 16 18 16 14 12 14 13 12 12 11 11 10 5 5 8 8 6 5 7 6 4
3 3 3 3 3 4 4 4 3 3 3 4 2 2 2 2 1 2 2 2 5 8 9 10 9 9 11 12 12 10 8 6 3 2 6 6 7 5 6 4 5 5 7 8 8 8 8 10 9 8 4 6 6 7
3 5 3 3 3 4 2 5 1 2 1 2 3 2 2 2 3 2 2 3 6 8 8 8 6 7 9 9 11 14 14 13 12 9 4 4 6 7 4 5 7 6 6 5 7 8 9 9 8 7 7 6 6 6
2 4 2 3 3 2 2 4 4 3 2 2 1 2 3 3 2 5 4 6 9 10 10 10 10 9 8 7 8 8 9 11 11 11 8 6 7 8 6 5 5 5 4 4 5 5 4 4 4 5 4 5 5 4
4 6 3 3 1 2 5 3 4 3 3 3 2 2 3 3 4 3 6 9 8 7 8 10 10 8 9 11 12 12 12 10 10 10 11 12 12 10 9 8 7 6 6 6 6 5 5 4 5 5 5 5 4 4
2 2 3 2 3 4 4 3 3 2 2 3 3 4 3 3 1 3 2 7 3 8 12 13 14 13 11 12 14 13 13 14 13 11 10 10 10 9 9 8 7 7 7 6 6 6 6 5 5 5 5 4 4 4

GFSWCAN_925_spd_048.txt.gz
Wind_Speed
12 15 18 19 20 19 15 13 12 10 7 7 4 2 2 1 3 4 4 3 2 2 4 2 0 4 3 3 3 6 6 2 2 2 2 2 3 2 3 2 3 7 6 7 9 9 15 8 16 6 4 11 7 2
12 15 18 18 19 17 14 12 10 7 5 5 3 1 2 1 4 4 3 3 4 3 4 4 6 6 6 5 3 3 5 3 2 3 2 3 2 3 7 2 1 2 4 2 5 4 4 12 17 11 8 4 3 7
12 15 18 18 18 14 12 11 8 6 3 3 2 0 2 2 4 2 1 4 2 3 4 3 3 2 2 4 4 3 2 6 2 0 2 2 2 3 4 3 3 2 7 4 3 6 10 10 11 12 3 3 5 8
12 15 17 18 17 12 11 11 8 3 2 2 0 3 5 4 5 3 1 1 3 4 4 5 4 3 2 3 1 7 12 7 6 2 3 2 3 5 3 3 2 2 7 6 5 5 12 7 12 11 9 8 9 9
12 15 17 19 15 10 9 10 7 3 2 2 3 4 5 4 5 4 5 3 2 4 4 3 5 2 1 2 5 6 7 5 2 1 2 2 3 3 3 4 2 7 5 4 2 11 5 10 12 12 8 10 9 9
12 14 17 18 15 10 8 8 7 3 2 2 2 3 4 4 3 4 2 3 3 2 3 3 3 5 2 4 6 6 4 3 3 2 1 2 3 4 3 3 12 16 12 12 8 14 10 14 12 16 13 10 7 9
12 14 17 17 16 12 8 7 6 5 3 5 4 3 4 5 3 5 5 3 2 3 3 4 2 2 1 2 2 3 2 2 3 2 5 2 3 3 3 5 17 16 16 15 15 14 14 17 13 18 15 11 11 13
11 14 16 17 16 12 7 6 6 7 3 5 6 4 3 5 6 5 3 2 2 5 3 3 1 4 1 1 2 3 4 2 3 3 3 6 2 4 3 15 16 18 15 18 16 14 11 14 16 17 20 18 16 14
11 13 15 16 15 11 7 5 6 8 4 3 5 4 2 3 3 0 3 2 3 3 2 2 3 4 3 1 1 2 3 1 1 2 3 4 3 3 8 12 13 15 17 17 16 16 17 18 17 18 19 20 17 16
11 13 14 15 15 11 7 6 7 6 2 3 5 5 3 3 3 3 0 2 3 3 3 3 1 2 3 3 1 1 2 1 1 2 2 2 2 2 7 9 9 10 13 15 17 19 21 21 18 18 15 13 14 13
11 13 14 16 15 11 8 7 7 3 3 2 4 1 4 5 3 4 2 4 3 3 4 3 4 5 2 2 1 2 1 1 1 1 2 1 3 4 6 6 5 7 9 11 13 14 14 15 14 16 18 18 20 19
13 15 17 18 17 13 9 6 7 1 3 2 1 1 3 3 4 4 1 2 3 3 0 5 4 2 0 1 1 2 2 2 2 1 1 2 3 5 5 6 6 3 5 7 10 11 14 16 18 17 18 19 20 20
14 17 20 22 18 9 5 5 8 6 2 1 3 3 3 3 2 1 2 4 4 5 3 4 4 1 2 2 2 3 4 1 2 2 2 3 4 3 5 5 5 4 2 2 5 8 10 12 13 16 16 20 21 20
16 18 21 12 6 4 3 11 9 3 2 3 3 3 3 2 3 4 7 7 6 5 6 5 1 3 3 4 2 3 2 3 2 1 3 1 3 2 3 5 6 7 4 3 3 5 8 10 13 14 16 15 17 21
18 20 10 4 1 8 13 11 6 6 3 3 3 3 3 4 6 4 4 5 3 4 5 4 4 3 3 3 2 0 3 1 2 2 4 6 5 3 1 4 6 7 7 4 4 5 8 9 11 13 12 13 13 15
19 14 5 2 11 16 10 3 7 3 3 3 4 5 4 6 8 5 4 6 1 3 1 1 3 2 4 2 3 4 4 3 3 3 5 4 4 2 3 4 4 5 7 6 6 7 7 9 10 10 11 12 12 11
16 1 8 15 18 13 6 2 4 4 4 3 4 4 6 7 7 7 7 7 2 4 3 3 4 2 4 4 4 1 2 6 5 5 3 4 2 3 4 5 3 2 4 4 4 5 8 5 8 11 9 10 11 11
4 8 17 17 5 4 3 5 3 3 5 6 5 6 4 5 6 6 5 4 4 3 2 3 4 3 3 1 3 3 6 4 3 3 2 2 3 4 5 6 4 3 1 2 4 4 5 4 5 7 7 8 10 11
20 16 7 4 4 3 3 5 4 3 4 4 5 4 4 3 2 2 3 2 2 1 2 3 3 1 3 4 6 5 5 2 1 1 1 0 3 4 4 5 3 4 3 2 2 7 6 5 8 9 10 10 11 12
5 1 1 2 4 3 3 3 3 4 4 3 3 3 4 3 3 2 3 4 2 1 2 2 4 4 5 4 4 6 5 1 4 6 1 4 4 3 2 6 5 1 6 4 4 4 3 3 5 8 9 7 10 9
1 1 3 3 3 4 3 2 3 3 4 3 3 4 2 0 2 3 4 3 1 3 3 0 2 3 6 7 10 8 4 1 3 5 5 5 6 5 5 3 3 4 5 7 3 2 1 6 5 5 6 9 8 6
1 3 2 2 3 3 3 3 4 3 3 3 3 3 2 2 2 3 3 2 3 3 3 3 4 5 4 6 8 3 2 4 1 1 2 0 3 7 6 6 4 3 3 3 2 2 4 5 5 4 6 6 6 10
3 1 3 3 3 2 3 2 3 2 3 2 3 2 1 1 2 2 1 2 3 2 2 3 5 4 5 4 3 2 2 1 3 3 5 8 5 4 2 6 8 7 5 4 2 1 5 4 4 1 4 2 4 5
1 2 2 2 4 3 2 3 2 2 2 3 2 3 2 3 2 1 2 3 4 2 2 5 6 5 3 1 4 5 2 3 4 7 2 4 7 4 3 5 7 8 8 10 3 1 5 5 4 3 3 4 4 5
2 2 2 4 3 3 3 2 2 2 2 2 2 1 1 1 1 2 2 3 3 3 3 4 5 2 5 8 11 6 1 2 5 6 3 3 5 7 7 4 3 3 2 3 1 2 4 5 4 3 5 5 5 5
1 5 4 3 3 3 2 2 2 2 3 2 1 2 1 2 1 1 2 3 4 4 4 4 6 7 7 6 7 10 8 4 3 2 5 7 13 2 5 4 5 7 5 4 4 7 7 7 5 4 7 6 3 5
2 4 4 2 3 2 3 2 3 3 3 2 2 2 1 2 2 2 2 3 4 7 6 6 6 9 7 11 11 10 8 6 6 12 12 7 5 6 5 7 7 6 6 5 4 4 5 7 6 4 7 6 7 7
4 2 5 5 4 4 3 2 3 3 3 2 1 3 1 1 3 3 4 4 5 6 8 9 10 10 10 10 9 9 12 14 14 13 14 12 8 8 8 9 9 8 8 7 6 5 6 8 5 5 6 6 5 5
4 3 4 5 5 3 3 3 3 2 1 3 2 2 3 3 4 7 8 7 6 6 7 6 6 7 8 10 9 8 5 2 2 3 6 6 5 7 6 4 4 5 7 11 9 10 11 9 9 7 8 7 6 5
3 5 4 3 3 4 2 3 1 2 2 1 2 3 4 4 5 4 7 9 7 5 6 6 4 6 7 7 8 9 9 8 7 6 4 7 9 8 8 9 8 7 7 10 11 10 6 7 6 5 6 6 5 5
1 4 3 4 4 1 1 2 1 2 3 3 1 2 4 4 6 5 3 6 8 8 7 6 6 6 7 8 7 5 9 9 10 7 6 8 8 8 8 7 7 6 6 8 7 5 4 3 5 4 4 5 5 5
4 5 4 4 2 2 3 2 1 2 1 2 3 3 4 4 5 6 9 11 9 7 7 7 8 9 8 9 10 11 10 9 9 11 11 10 9 8 7 6 6 6 5 4 5 5 4 4 5 5 4 5 6 6
3 4 5 4 3 3 2 1 2 2 2 1 3 5 6 5 3 3 5 6 5 10 10 12 12 11 11 10 11 12 12 11 11 12 10 9 9 7 6 6 5 5 4 4 5 5 5 4 5 5 5 5 5 6

GFSWCAN_925_spd_051.txt.gz
Wind_Speed
9 13 16 17 19 18 14 12 10 7 4 3 2 1 2 2 4 1 3 1 3 4 5 1 3 2 3 1 3 8 3 3 2 2 2 3 3 2 3 3 7 4 6 9 12 12 19 10 4 5 12 18 21 38
9 12 15 17 18 17 13 12 8 5 1 1 1 1 3 2 4 1 2 1 3 2 5 4 2 2 2 3 4 4 5 3 1 1 1 2 2 3 5 4 2 3 4 4 4 2 7 2 9 14 14 17 26 23
10 12 15 16 18 15 11 11 7 4 1 1 3 3 3 3 4 2 3 1 2 4 5 9 4 6 3 3 3 2 2 4 3 1 0 1 3 3 4 5 3 2 3 3 3 5 13 15 14 14 15 19 10 14
9 12 14 17 17 13 9 9 6 3 1 1 3 5 5 4 4 4 4 3 7 8 4 2 6 6 4 4 3 4 7 5 6 2 2 1 2 3 3 5 2 3 5 5 5 8 15 8 8 12 14 8 8 4
9 11 13 17 16 13 9 7 7 3 2 1 1 3 4 4 4 5 9 8 6 7 5 6 9 7 9 5 8 7 6 7 4 3 3 1 3 2 3 4 2 3 4 3 3 11 11 10 10 14 8 10 7 3
9 11 14 16 15 13 10 7 6 4 4 4 3 4 4 4 2 5 2 4 5 6 5 3 2 5 6 7 9 10 5 5 5 2 2 4 4 4 2 2 6 3 7 5 3 11 10 12 13 17 7 7 7 6
8 10 13 15 15 14 9 6 5 5 4 6 6 5 5 5 4 5 4 3 5 6 3 4 3 4 2 4 3 4 8 5 5 2 3 1 2 3 3 3 14 13 11 11 10 7 9 14 9 14 15 16 12 14
7 10 13 14 14 12 7 5 5 5 5 5 6 6 5 5 7 8 6 2 2 6 5 3 4 1 3 3 2 3 3 3 4 4 4 6 2 5 2 11 9 14 12 13 14 11 8 6 11 13 16 14 13 13
7 9 12 13 13 11 8 6 4 4 4 3 4 4 2 4 4 0 3 4 3 5 2 2 4 5 2 3 2 3 3 2 1 0 2 3 2 2 3 6 8 11 14 14 13 15 15 15 12 13 14 14 14 14
8 10 12 13 14 13 9 7 5 3 1 5 4 7 4 2 4 1 3 4 4 4 4 3 3 5 3 1 3 3 2 3 1 1 3 2 2 5 5 7 4 6 10 13 15 17 17 16 16 14 15 13 11 9
9 11 13 15 16 16 12 8 3 3 7 3 5 1 4 4 2 3 4 5 4 4 4 7 4 6 2 3 2 3 2 1 2 3 2 1 3 2 5 6 5 5 6 10 12 12 14 15 14 14 17 18 19 19
10 12 15 18 19 18 12 8 4 3 4 5 5 3 2 3 5 5 2 2 5 4 4 4 4 3 2 1 3 2 2 3 4 1 2 2 3 4 4 6 6 4 7 7 10 11 12 13 15 16 16 18 21 20
11 14 18 21 19 9 4 6 4 6 4 3 4 4 4 3 2 5 4 4 3 5 6 7 5 3 3 2 2 4 5 4 3 1 2 3 2 4 5 5 7 8 4 4 8 10 13 13 13 13 14 18 20 20
12 16 18 11 3 4 2 6 8 4 3 4 4 3 4 4 5 4 8 5 7 5 6 7 5 2 2 5 4 5 4 3 3 2 2 3 6 4 4 5 6 8 7 6 6 10 9 11 12 14 12 14 16 19
14 18 16 9 3 6 12 11 6 5 5 4 3 2 6 7 6 7 5 8 9 10 11 9 4 2 3 2 6 5 6 4 2 2 4 4 6 4 5 6 8 7 8 7 5 4 8 9 12 10 15 13 13 16
16 13 6 7 8 14 11 3 8 4 4 3 5 8 7 6 6 7 8 5 5 6 5 3 4 4 5 3 3 3 6 3 3 4 5 8 5 3 4 5 4 8 8 8 7 7 5 7 7 12 12 11 12 11
12 3 4 11 15 6 7 3 6 5 4 4 5 5 7 10 7 8 8 8 8 5 4 3 4 1 1 1 2 2 3 4 6 6 4 6 3 3 5 7 8 6 5 6 6 5 7 5 6 8 9 11 9 8
4 8 14 18 6 3 3 6 4 4 6 8 7 4 6 5 5 7 6 5 5 5 3 3 3 2 2 2 2 3 4 5 7 5 5 2 2 5 7 6 9 7 3 5 3 7 3 6 7 7 5 9 9 11
17 19 18 15 7 4 4 6 5 4 6 5 3 2 4 4 2 1 3 4 4 1 5 3 1 2 2 3 6 6 5 7 2 2 4 2 2 3 5 7 10 6 5 3 5 6 6 3 6 9 13 12 12 12
9 3 2 3 7 5 4 3 3 5 5 3 4 4 5 5 4 2 2 4 3 3 1 4 3 5 3 5 5 5 7 6 3 3 6 5 7 3 2 6 10 2 8 2 1 8 5 7 5 9 10 8 10 11
0 3 3 5 5 7 4 3 4 3 4 5 3 4 2 2 2 4 3 2 1 5 4 3 3 3 3 6 12 13 11 8 4 3 8 5 9 6 8 11 10 11 7 1 3 7 6 5 5 7 8 11 11 10
1 4 4 4 5 6 4 5 4 6 3 5 3 4 3 4 4 4 4 3 4 6 5 5 6 7 4 4 8 8 7 3 6 8 5 4 4 6 5 5 5 11 9 0 7 6 6 7 9 8 4 6 7 12
3 3 5 5 3 2 5 2 3 3 3 4 4 2 1 2 3 2 1 4 2 5 5 6 7 8 8 11 8 5 1 5 5 8 4 8 8 5 4 6 5 4 5 9 17 2 3 4 6 3 4 4 4 4
3 4 3 4 6 4 3 4 4 3 2 3 3 4 3 4 2 2 4 3 4 5 5 2 6 6 3 4 3 1 7 8 3 2 3 6 9 2 2 6 14 11 7 8 4 9 6 6 2 2 6 3 5 9
2 4 3 4 4 3 5 4 5 4 5 2 2 0 2 1 2 2 1 2 5 6 6 9 7 2 1 5 9 10 3 10 4 4 3 4 3 1 9 5 8 4 4 8 13 8 4 2 8 3 4 7 7 9
2 6 5 5 5 5 3 2 3 2 3 3 3 2 1 2 0 2 2 6 7 5 5 6 6 6 7 11 8 11 12 12 7 10 7 9 8 5 5 1 5 4 8 6 8 12 3 7 8 10 1 6 6 6
3 6 5 4 4 2 3 3 3 4 3 4 2 1 2 3 2 2 3 3 3 7 6 7 8 8 7 9 9 10 10 11 14 14 12 7 8 9 6 2 8 10 10 10 8 7 5 10 9 6 5 5 8 10
5 3 7 8 5 6 5 5 3 4 4 2 1 3 2 4 3 4 4 4 6 6 8 7 8 10 10 9 7 8 8 8 10 11 11 8 9 8 8 9 8 6 8 11 7 10 7 9 8 5 7 7 7 6
4 5 5 5 7 4 4 5 5 3 2 4 4 2 3 3 6 7 7 4 5 4 3 4 4 4 7 8 6 6 6 4 6 10 3 5 5 7 6 4 4 3 7 10 11 12 11 9 9 9 6 6 6 5
7 6 6 6 7 8 5 3 4 6 5 6 3 4 7 8 9 7 6 6 4 3 5 5 5 5 5 4 7 7 7 5 6 5 7 6 10 9 8 6 4 8 7 7 9 10 6 4 6 3 4 4 6 6
1 5 6 9 9 7 5 4 3 2 1 3 3 4 7 3 3 2 4 2 4 4 4 4 6 6 6 5 4 7 8 8 5 4 5 9 11 10 8 5 4 5 7 6 4 5 4 3 4 5 4 6 5 5
4 6 8 11 2 2 2 2 1 1 3 2 4 4 2 3 5 5 5 5 6 5 5 3 6 7 7 8 8 9 10 9 9 8 4 7 8 7 5 6 5 5 3 4 5 3 2 5 5 4 5 6 5 5
3 5 4 6 5 1 3 2 3 4 4 4 4 4 7 7 1 3 6 7 4 5 6 8 8 8 8 8 10 10 9 8 8 7 7 8 7 4 2 4 4 3 3 3 4 4 3 4 4 4 1 1 2 4

GFSWCAN_925_spd_054.txt.gz
Wind_Speed
10 10 13 16 18 19 17 14 11 7 4 3 3 2 2 2 1 8 5 4 6 5 6 4 2 2 3 2 2 7 1 3 4 4 3 3 3 3 3 3 7 5 6 3 8 10 14 17 13 9 10 13 13 17
9 10 12 15 17 18 16 13 11 7 3 3 2 2 1 1 2 2 4 3 5 5 5 7 4 3 3 1 3 5 2 4 3 1 1 0 1 2 4 2 3 2 4 4 4 5 13 16 12 17 16 17 22 18
9 9 11 14 17 17 15 11 10 7 3 3 4 3 2 2 3 3 6 5 7 6 8 10 6 8 5 5 2 3 2 4 3 2 2 0 3 2 3 3 1 6 6 3 6 4 16 19 20 18 18 19 15 20
9 9 10 13 16 16 15 11 10 7 3 3 4 5 5 5 5 6 7 7 11 10 4 3 2 5 5 5 4 3 7 4 10 4 3 2 2 4 2 3 2 2 5 5 7 13 13 9 10 14 16 14 18 24
8 8 10 13 15 14 14 11 9 8 5 4 3 3 5 5 5 6 10 10 9 6 5 9 9 11 10 6 7 10 10 10 3 4 4 5 3 3 3 2 1 3 3 2 4 11 9 10 13 15 21 16 17 11
8 8 9 13 14 14 15 11 8 7 6 6 5 5 5 5 3 5 2 3 2 4 4 4 2 4 7 5 7 8 11 9 4 4 5 2 2 4 2 0 5 4 6 1 4 11 6 13 12 17 15 16 10 9
8 7 9 12 13 14 14 10 8 7 6 6 8 7 6 6 6 5 3 1 4 5 3 4 3 1 2 3 3 7 9 6 6 4 7 5 5 4 2 2 9 6 1 1 3 4 5 10 8 13 15 20 18 12
8 7 9 11 12 12 12 10 7 6 7 6 8 7 6 7 8 8 8 7 3 6 5 3 4 3 6 2 2 5 2 5 3 5 3 1 3 4 0 6 6 9 7 2 2 3 2 6 7 11 14 15 14 15
7 7 9 10 11 12 12 11 9 7 7 4 4 3 3 5 5 2 5 5 6 6 3 2 3 4 6 1 1 3 3 3 4 3 0 3 2 2 4 6 4 4 7 9 7 9 6 6 5 8 12 12 12 10
7 7 10 11 12 13 13 12 9 6 4 5 4 6 4 2 3 3 2 4 5 5 5 5 8 5 5 2 2 3 4 4 2 3 5 3 3 6 5 4 4 1 7 7 8 8 11 12 9 5 9 10 11 10
6 8 11 13 14 16 16 12 7 1 4 4 7 2 4 4 4 4 4 5 7 5 6 8 6 8 4 3 3 2 2 2 1 4 5 4 2 3 6 4 2 3 4 3 6 7 6 7 9 9 7 11 11 11
7 9 12 15 18 22 18 11 9 7 5 7 11 10 5 4 5 6 5 4 2 3 3 7 2 3 3 3 3 4 3 3 3 5 3 1 1 1 4 3 10 3 3 4 3 4 5 5 7 6 7 11 12 12
8 11 14 16 18 9 2 5 9 7 12 7 5 4 3 4 2 5 1 4 6 6 7 12 12 1 2 1 3 3 3 2 4 4 2 2 2 4 4 5 5 2 3 1 9 3 10 7 5 6 8 13 10 11
10 12 15 15 7 1 3 3 5 5 3 4 4 3 4 5 1 4 4 10 1 3 2 4 6 2 5 3 3 5 4 3 2 2 1 4 3 4 5 5 6 8 12 3 6 2 2 4 7 10 7 7 10 10
12 16 18 16 9 4 9 13 6 6 5 4 3 3 6 4 6 2 4 4 2 2 3 6 5 4 3 2 3 3 3 3 3 3 3 1 2 6 5 5 6 8 6 8 7 4 6 5 7 10 13 4 7 8
15 15 4 1 5 10 18 6 9 5 5 4 5 9 3 3 6 9 3 9 8 10 7 3 5 3 3 1 2 1 5 2 3 5 1 4 2 4 4 5 7 9 7 5 6 8 8 6 5 7 10 12 5 7
13 3 1 5 11 13 7 4 8 6 4 4 5 4 5 10 7 11 6 5 10 4 4 4 3 1 3 2 2 2 3 5 6 6 4 5 3 4 5 8 7 9 8 7 6 6 10 11 9 7 7 10 10 11
3 3 8 13 10 5 4 6 5 5 9 9 8 4 7 5 5 4 6 6 6 7 6 6 1 2 2 5 4 4 6 5 5 7 6 4 4 5 7 8 8 11 7 4 6 6 3 9 9 8 10 13 12 24
14 18 24 24 9 5 5 8 7 5 7 4 3 6 4 4 4 7 8 2 8 7 4 2 2 3 3 4 6 6 10 8 2 9 4 1 6 6 6 9 9 8 10 8 7 6 3 5 10 11 12 14 13 12
21 9 4 3 12 5 5 4 9 4 4 3 6 4 4 9 7 4 5 4 2 3 1 2 3 3 4 2 5 5 4 7 2 4 6 3 7 6 6 18 10 11 13 10 5 6 4 2 6 6 10 12 10 15
4 5 3 6 7 9 5 4 7 5 3 5 5 4 3 3 0 3 6 2 2 4 4 6 4 4 2 8 13 10 7 10 7 7 7 5 4 6 14 14 13 15 20 17 6 8 14 5 7 2 11 11 12 8
0 2 4 7 5 7 6 10 4 6 4 3 4 1 3 5 3 3 5 1 3 4 3 3 5 7 2 5 3 8 14 15 7 7 12 14 8 9 7 10 9 8 14 2 5 12 13 12 7 8 8 8 9 12
5 5 6 7 6 1 5 9 4 6 4 3 4 1 3 1 1 6 3 4 3 2 4 5 4 6 8 3 6 6 3 8 4 2 3 4 8 8 9 12 11 13 6 4 9 12 18 16 5 4 9 9 10 10
5 4 4 4 9 5 7 7 7 6 5 2 6 3 2 2 2 3 2 1 2 3 4 1 3 0 9 8 5 6 6 11 10 5 10 9 6 9 13 11 11 7 8 16 20 13 9 11 25 11 10 11 10 9
2 5 3 6 4 6 7 6 13 4 7 10 12 3 4 3 3 3 3 2 3 6 5 8 7 4 4 7 10 11 14 15 11 10 7 13 6 3 4 4 9 10 8 9 8 14 13 8 5 9 10 7 10 12
4 6 5 5 8 9 6 11 6 1 8 10 4 4 2 3 4 3 3 7 5 6 6 6 6 7 7 11 8 10 12 11 16 14 9 9 14 10 12 8 8 11 17 16 7 8 4 9 8 6 13 13 13 10
4 6 8 9 8 7 6 3 7 5 10 6 5 6 6 5 3 3 5 6 2 6 7 9 9 9 7 8 11 11 12 13 15 12 11 11 12 10 9 7 7 11 14 14 11 14 12 13 8 8 11 11 5 10
7 6 11 9 8 8 12 7 10 4 6 5 3 2 5 6 5 5 8 8 6 6 6 7 8 8 9 7 7 8 8 10 10 10 8 10 10 10 10 11 10 12 12 14 10 9 6 11 8 3 7 9 12 7
7 9 10 12 12 7 8 12 3 2 3 6 3 2 4 6 12 11 8 8 7 7 4 5 3 7 10 7 5 6 6 2 10 6 6 4 8 9 7 7 7 7 10 10 10 9 11 10 11 10 7 6 8 7
12 10 12 11 12 11 5 3 1 4 7 8 10 11 9 9 11 9 4 2 3 3 6 5 6 3 3 4 9 6 5 4 6 4 5 7 11 10 7 8 7 8 7 8 10 8 5 2 7 6 6 7 9 9
10 8 9 10 6 2 2 6 14 14 7 11 9 9 5 3 1 2 3 2 4 3 3 4 7 7 6 4 4 8 8 6 6 7 8 11 10 8 6 6 7 7 5 5 6 5 4 6 6 8 8 9 8 6
8 9 9 12 6 6 7 3 14 2 4 8 6 5 4 3 4 7 4 3 2 5 4 2 7 7 6 5 6 11 12 12 11 10 9 10 9 8 6 5 5 6 4 4 4 6 5 5 8 7 6 6 5 4
8 4 8 5 4 5 1 3 8 3 7 6 1 3 5 1 3 3 4 4 1 3 9 9 8 8 8 9 9 9 10 10 10 10 10 10 9 6 11 8 6 5 4 3 5 5 5 5 5 2 1 2 5 6

GFSWCAN_925_spd_057.txt.gz
Wind_Speed
11 9 10 13 15 17 18 15 13 10 7 6 6 5 6 6 8 11 4 10 6 3 0 4 3 2 3 3 2 3 2 5 4 4 3 2 2 2 2 2 5 4 5 3 5 3 5 20 13 6 11 19 14 19
10 8 10 12 15 17 17 14 11 9 7 6 5 5 4 4 4 8 4 6 10 4 4 15 15 2 0 4 2 3 4 2 2 1 1 0 1 2 2 2 2 1 2 3 3 5 13 8 9 13 11 16 18 17
9 8 11 12 14 16 17 14 10 9 7 6 6 5 4 3 3 5 7 10 14 4 8 8 4 10 8 10 3 1 3 4 3 2 2 1 2 2 2 1 1 2 2 2 5 3 10 14 12 10 14 16 20 21
7 8 11 12 14 15 16 14 10 8 7 6 6 6 5 4 5 6 6 11 10 5 3 1 5 8 10 11 7 4 2 6 11 3 2 3 3 4 2 1 2 2 5 3 5 10 13 8 13 13 15 15 18 22
8 8 9 12 13 15 16 14 9 7 7 6 5 5 5 4 5 9 9 10 8 1 3 6 18 16 12 9 11 9 10 5 3 4 2 3 2 3 3 1 2 3 4 2 3 8 9 11 13 17 15 17 19 22
9 8 8 11 13 14 15 13 7 6 7 7 7 6 6 5 5 4 2 3 2 1 2 3 4 4 5 12 13 11 8 3 3 3 3 4 4 5 4 4 5 8 7 8 4 5 8 11 11 13 14 14 13 16
9 8 7 10 12 12 13 11 9 7 8 8 7 8 7 6 7 6 4 2 2 3 2 3 3 2 11 9 4 3 7 4 4 3 3 2 3 4 1 2 5 6 7 8 8 4 7 8 6 10 14 15 16 14
10 8 7 9 11 11 13 12 9 9 9 10 8 8 7 7 11 11 12 15 12 5 4 3 4 4 13 5 4 5 4 3 3 4 2 5 4 0 2 4 3 8 8 6 6 7 10 10 7 5 11 12 11 11
10 8 7 9 10 11 12 13 10 9 10 9 5 3 3 4 5 2 5 6 4 4 4 3 3 3 7 4 4 3 3 3 4 4 5 3 3 2 6 5 5 5 3 3 6 8 4 7 5 4 5 9 11 11
8 7 7 10 12 13 14 14 10 8 10 3 2 4 3 5 4 1 2 3 3 3 3 3 3 6 4 3 4 3 1 2 2 4 4 3 3 5 6 5 5 5 5 5 4 3 4 6 3 3 2 2 4 6
7 7 8 11 14 16 18 17 10 5 2 1 5 2 2 4 2 4 3 4 3 2 1 4 5 8 3 4 7 5 1 1 2 3 5 3 2 4 5 6 4 6 7 4 2 1 4 6 3 3 2 2 2 8
6 7 10 13 15 20 19 12 9 9 4 4 13 15 5 4 4 4 1 4 3 3 2 3 3 2 2 1 3 0 2 1 2 5 3 1 2 6 5 5 2 5 4 7 1 6 6 7 1 5 3 1 4 4
5 8 11 13 14 13 11 2 5 8 10 5 3 4 3 3 1 3 3 2 3 3 3 3 5 1 2 3 3 1 4 2 2 2 2 1 4 4 5 4 9 6 5 10 11 10 5 8 5 7 6 4 3 3
6 11 14 16 15 9 3 4 3 5 2 3 3 4 4 4 1 4 4 5 4 6 5 8 5 3 1 1 2 2 1 2 2 2 1 1 3 4 3 4 1 7 4 4 5 5 8 6 12 8 6 1 1 1
9 13 18 21 13 10 5 10 11 4 3 4 4 3 5 4 4 3 3 3 4 5 2 2 2 3 2 3 2 3 2 2 2 3 1 1 2 2 3 2 4 10 5 5 5 6 8 10 7 11 8 6 1 2
12 14 2 5 4 4 12 11 4 4 5 4 5 6 3 3 4 3 1 2 5 1 3 2 3 3 3 1 2 2 5 3 3 4 2 3 5 2 1 4 2 7 10 9 15 5 2 8 9 4 7 3 1 10
12 2 2 4 9 12 2 4 6 5 4 5 5 5 2 2 3 1 3 2 8 4 3 2 3 3 1 1 0 1 3 6 8 3 4 5 6 5 3 3 4 6 3 6 9 2 2 6 12 11 1 10 7 12
2 3 6 12 16 6 4 6 4 5 9 7 6 4 6 8 4 3 2 5 3 2 2 3 1 1 3 3 2 2 3 5 2 4 1 2 8 2 2 3 4 5 10 5 6 9 5 8 2 14 14 18 14 15
14 16 21 26 20 5 4 8 7 4 5 5 5 5 3 2 2 1 2 1 7 6 3 2 2 2 1 3 4 3 3 3 3 1 2 7 12 9 6 7 9 17 8 10 9 11 13 20 8 12 16 19 16 6
21 14 10 10 11 5 4 4 11 5 4 4 3 6 2 2 1 3 3 4 4 3 2 0 1 3 3 3 3 3 3 3 4 3 5 5 14 22 6 3 10 16 15 14 14 11 13 11 7 8 16 16 15 9
10 4 6 6 7 8 4 5 4 1 3 4 1 4 2 3 1 3 2 3 1 2 2 1 1 3 8 6 4 6 7 6 4 4 4 1 3 12 3 10 18 17 9 8 8 10 13 9 20 11 11 15 15 15
4 4 2 8 6 7 6 9 4 1 3 4 2 3 1 3 3 3 2 1 2 3 1 2 2 3 3 2 2 1 2 7 7 6 5 5 5 4 5 10 8 6 5 10 13 11 16 11 14 19 13 21 23 14
5 6 5 8 7 3 6 7 6 4 6 5 3 7 5 4 4 4 2 1 1 3 6 4 6 4 3 4 2 3 6 10 2 4 7 7 12 15 16 18 22 3 15 10 7 9 7 5 17 16 4 14 17 19
7 4 4 4 7 4 4 5 4 5 4 1 3 5 5 2 2 2 3 2 2 3 1 1 10 4 5 5 3 3 8 18 16 15 15 13 9 9 8 9 7 12 16 17 15 11 10 12 15 14 12 14 20 15
3 5 2 6 4 5 6 6 8 8 3 3 4 3 4 5 2 1 4 3 1 3 2 7 6 5 6 6 10 13 18 20 14 7 9 8 13 11 13 10 21 21 15 12 12 10 7 9 9 10 12 15 13 11
3 5 5 4 6 6 5 10 4 7 4 6 6 3 2 0 3 1 3 3 2 1 3 4 4 5 7 13 7 12 14 15 13 11 13 15 13 10 9 7 13 10 11 17 19 12 4 2 3 11 12 10 12 15
3 6 6 5 5 6 4 2 2 2 4 3 2 2 2 5 7 2 3 2 2 10 12 12 11 9 9 14 14 13 16 12 11 13 13 14 15 15 15 12 12 7 9 15 14 13 8 10 11 12 11 14 12 11
6 5 10 7 5 6 12 9 3 3 3 1 1 3 3 5 4 3 3 6 10 13 14 12 10 8 9 11 15 16 15 13 11 13 17 14 14 15 15 14 14 16 16 14 12 11 7 12 12 11 12 10 10 10
5 5 9 13 13 8 3 5 3 2 4 3 1 5 2 1 8 8 9 7 12 12 11 12 16 15 13 11 8 7 5 13 11 8 8 7 9 9 9 10 12 12 12 10 9 11 12 12 12 13 9 13 15 12
10 9 10 12 14 6 3 3 5 5 3 4 6 3 2 7 10 11 10 9 9 6 9 9 7 5 6 13 11 9 5 10 15 8 7 8 11 11 11 10 11 12 11 11 10 9 7 6 8 11 10 10 7 6
7 8 11 11 4 6 5 6 6 4 1 3 5 3 5 3 1 5 8 2 8 7 8 12 12 8 8 10 8 12 8 9 10 12 15 16 14 10 10 10 10 8 8 8 6 14 8 5 10 8 9 8 7 8
8 10 4 4 2 4 5 4 2 3 4 2 3 4 6 5 5 3 3 3 5 9 7 11 13 11 8 11 16 22 20 15 13 13 15 17 13 7 5 9 10 7 5 7 8 7 9 11 7 8 7 5 5 6
2 7 6 4 3 3 3 4 5 2 4 4 6 8 6 4 4 2 5 1 3 12 17 16 17 15 14 17 15 14 14 16 14 14 14 13 11 11 14 14 8 7 5 6 7 8 8 7 4 2 2 7 9 10

GFSWCAN_925_spd_060.txt.gz
Wind_Speed
9 9 6 7 12 14 16 15 12 12 9 8 7 6 6 7 10 10 3 9 7 0 5 2 5 4 1 2 3 4 4 5 3 4 2 1 2 1 1 1 0 1 2 1 3 3 5 10 6 2 8 10 14 16
9 8 6 7 10 13 15 14 11 10 8 6 6 5 4 4 6 9 3 8 12 3 6 12 17 11 7 10 5 1 6 4 4 3 2 3 2 2 3 1 2 3 4 3 6 5 5 2 5 8 8 13 14 18
8 7 6 6 10 12 14 13 12 8 8 6 6 6 4 3 5 7 6 11 11 3 5 3 5 11 12 12 11 4 2 5 3 4 3 2 2 3 3 3 3 3 3 3 1 5 3 10 8 6 12 14 16 16
8 8 6 6 9 12 14 14 13 8 8 5 4 5 5 3 4 7 7 8 7 3 2 6 12 8 16 18 17 11 10 6 9 3 3 3 3 5 3 4 3 4 3 5 6 8 6 6 7 9 11 14 14 17
9 9 6 6 9 11 12 13 12 7 7 6 4 4 4 4 5 8 10 1 2 2 2 5 21 19 18 22 22 13 23 6 3 2 2 3 3 4 2 2 5 6 6 5 5 7 5 9 7 9 10 15 12 13
11 9 7 5 7 10 11 12 11 8 6 6 6 4 4 3 3 4 3 5 3 1 1 4 5 6 12 20 23 14 15 4 3 4 3 3 3 4 4 3 5 8 6 7 5 5 7 9 8 10 7 12 14 12
13 11 8 5 6 8 9 10 10 10 7 7 8 5 5 4 4 3 4 7 6 4 0 4 4 3 3 2 2 2 3 4 4 3 3 4 2 4 3 4 6 9 11 8 11 5 9 7 5 6 8 12 17 16
13 11 7 5 6 7 8 9 11 11 10 8 8 5 3 4 7 7 7 16 9 4 2 2 4 4 5 2 3 4 2 2 2 4 2 3 2 2 3 5 6 8 7 7 8 9 12 8 7 9 11 7 10 12
14 11 6 5 5 8 9 9 12 14 11 8 3 1 1 3 2 2 5 11 10 2 2 2 2 3 3 3 3 1 4 3 1 3 4 4 2 4 6 6 7 7 7 7 7 7 8 9 12 10 6 4 7 10
13 9 6 5 6 8 11 12 12 13 10 2 1 0 2 3 7 12 4 2 2 2 2 3 2 3 3 3 2 2 3 2 2 3 3 2 3 4 5 6 5 7 7 6 3 5 5 5 7 6 5 4 5 5
11 8 5 4 7 10 15 15 13 8 3 2 3 2 3 7 3 3 3 2 2 3 3 3 4 3 2 2 3 1 2 2 4 3 1 3 3 3 1 2 4 7 9 9 8 5 6 6 6 6 3 8 8 7
9 6 4 6 8 11 14 15 4 8 3 1 8 8 3 3 2 3 2 2 4 3 2 2 5 4 1 2 2 1 2 2 1 3 2 1 4 7 6 5 6 7 6 7 10 10 12 12 11 8 5 8 7 9
6 5 5 7 8 9 9 10 4 5 3 4 2 2 3 2 1 3 2 4 3 2 4 4 2 3 3 3 2 1 2 1 3 1 2 4 4 8 7 6 7 7 5 10 10 14 15 18 13 12 10 9 10 4
5 6 8 11 12 12 6 2 5 3 1 2 2 4 4 4 4 3 5 4 5 4 5 2 1 2 2 3 1 1 3 1 1 3 3 3 6 7 7 7 3 7 6 7 9 13 13 12 14 13 12 5 8 0
6 8 12 12 8 5 7 6 10 2 2 3 2 4 6 3 2 3 2 2 6 3 3 2 1 3 1 3 0 2 1 2 3 3 3 4 4 4 5 3 6 7 6 5 7 7 6 7 1 6 9 4 7 7
7 6 3 7 8 6 6 8 2 3 4 3 4 3 3 4 3 3 3 5 3 2 2 0 3 3 0 3 1 1 1 3 3 3 3 3 4 4 5 4 5 12 11 11 12 9 13 14 5 8 8 6 15 13
7 2 6 3 7 13 6 3 2 4 4 4 4 4 3 3 4 4 3 4 2 2 1 2 2 2 3 1 1 2 3 4 4 4 3 5 5 1 6 16 4 11 16 16 1 15 15 10 14 1 6 10 15 14
1 2 3 8 12 8 1 6 3 4 7 5 3 3 1 1 2 3 3 4 2 2 1 2 3 2 2 2 2 3 4 3 3 3 3 3 3 5 5 7 15 9 1 14 11 8 3 15 13 10 12 15 16 13
8 14 18 22 17 5 3 5 6 4 5 4 3 2 3 2 2 5 4 5 3 4 4 2 3 2 3 3 4 3 2 3 3 1 0 3 2 6 17 19 14 12 11 8 10 8 9 14 13 4 14 14 15 12
15 14 11 12 9 6 3 4 8 4 4 3 3 1 2 3 4 3 5 3 3 2 2 2 3 4 4 3 3 3 2 1 4 3 2 3 7 12 15 15 12 11 7 8 6 9 13 10 5 10 7 10 7 6
10 1 3 5 8 7 3 3 4 4 3 1 3 4 3 1 2 3 3 3 2 3 2 3 2 1 5 4 4 4 6 8 2 3 2 1 3 5 11 10 7 7 5 3 7 7 15 14 11 11 3 12 16 17
3 4 2 7 4 5 4 9 4 3 1 2 2 2 3 3 2 1 2 3 2 2 3 3 3 4 2 2 2 1 5 10 11 14 18 18 4 8 8 11 11 5 6 7 6 7 10 14 6 13 19 17 14 16
4 5 4 7 3 1 7 5 4 4 3 2 3 1 0 2 4 9 3 2 2 2 5 4 4 6 6 7 4 11 9 14 11 13 15 15 14 13 14 16 13 13 8 3 3 6 5 6 15 15 8 12 15 15
4 3 3 4 6 5 3 3 3 2 2 3 1 3 4 3 0 2 3 1 3 3 2 4 5 4 8 12 5 11 17 22 20 18 17 14 10 9 17 16 14 15 7 3 4 8 11 14 16 15 9 14 13 11
0 6 4 5 4 3 4 3 3 3 2 2 3 3 1 1 2 2 2 1 1 2 3 10 12 8 7 5 9 14 15 16 13 8 14 19 17 17 17 19 15 11 9 9 8 10 12 11 12 16 12 9 10 12
2 5 7 4 3 3 3 1 3 2 2 1 2 3 2 1 1 3 2 2 1 2 3 5 7 6 4 14 7 9 16 19 20 15 14 12 14 18 10 6 6 9 9 11 12 10 8 9 10 13 15 15 14 14
3 5 5 4 3 2 3 1 2 3 3 4 2 3 4 3 4 3 1 3 3 6 15 21 23 18 12 18 20 18 16 14 17 19 19 17 13 15 15 11 5 7 12 11 14 16 16 11 13 17 16 14 16 13
5 4 5 3 2 3 4 2 4 2 2 2 1 2 1 1 1 1 3 7 9 14 14 14 18 22 23 23 21 20 17 20 23 24 21 18 17 16 14 12 14 14 12 12 12 14 14 13 12 12 11 12 11 9
4 4 2 7 4 3 3 3 2 1 3 2 2 1 3 3 4 4 8 12 6 13 14 10 9 15 15 15 17 20 19 25 22 9 8 5 7 14 15 15 13 10 10 10 12 13 14 14 14 15 14 13 13 14
6 5 3 3 2 4 2 2 4 4 1 2 4 1 1 2 2 1 5 7 4 9 18 20 19 17 16 14 13 20 17 8 22 23 8 6 11 16 19 16 13 14 15 13 12 10 8 11 9 9 8 7 6 8
3 4 4 3 3 2 0 1 6 4 4 4 1 2 2 2 1 4 5 6 12 16 21 19 17 20 19 17 18 19 12 14 21 22 22 21 17 15 16 14 13 13 11 12 10 9 11 8 8 8 6 6 6 5
3 4 4 4 3 2 4 1 1 2 2 1 2 2 2 2 2 3 3 2 11 20 21 22 23 19 17 15 19 18 18 16 23 25 23 19 14 9 14 14 11 10 12 13 9 12 11 8 7 6 5 6 10 12
4 4 4 3 4 5 1 1 2 1 0 2 2 4 4 5 4 4 3 1 9 20 23 22 23 23 21 21 21 22 22 22 23 21 20 16 14 14 17 12 9 7 12 13 12 10 7 5 4 3 6 10 8 6

GFSWCAN_925_spd_063.txt.gz
Wind_Speed
10 11 10 7 9 10 12 12 11 9 8 8 8 7 8 9 10 9 6 11 5 2 5 3 5 4 2 2 3 3 4 4 4 4 3 1 2 2 1 2 1 3 3 2 2 1 6 4 4 1 4 6 11 16
11 12 8 7 9 9 11 11 10 7 7 6 7 6 5 7 8 7 1 5 7 4 5 4 13 13 12 12 6 2 4 3 4 4 1 2 1 2 3 2 1 3 5 4 7 5 3 4 5 6 4 9 13 16
12 12 8 7 9 9 10 11 10 7 5 4 4 5 6 4 6 6 4 7 3 3 5 3 5 7 14 16 14 4 1 5 4 4 4 3 2 3 4 5 5 3 3 2 3 4 4 2 2 3 6 8 10 14
14 12 10 8 8 8 9 10 10 6 4 4 2 3 3 3 4 5 5 4 1 3 1 6 5 3 8 19 19 10 10 8 10 3 3 3 3 4 4 3 3 4 4 5 4 9 7 7 6 7 7 7 9 15
15 12 10 8 7 8 9 9 8 5 3 2 3 2 2 2 4 6 5 2 2 2 2 4 16 14 14 17 18 14 19 6 3 3 3 4 3 3 1 1 4 6 6 5 6 7 5 5 5 6 9 8 9 13
15 16 11 10 6 7 7 7 7 7 4 3 3 3 3 3 3 2 3 3 2 4 1 3 6 5 5 18 17 17 15 3 3 4 3 3 3 4 3 4 6 8 6 7 5 5 7 7 6 10 8 10 10 10
17 15 13 9 6 5 6 6 6 6 7 6 5 4 4 4 4 3 3 3 4 2 1 4 5 3 3 2 3 3 4 1 2 2 4 4 3 6 3 4 5 9 13 7 8 2 6 8 7 6 10 14 14 12
17 16 13 9 6 4 5 6 6 7 8 6 6 4 2 4 7 6 4 10 5 2 2 2 4 5 4 1 1 0 2 2 2 3 2 3 3 2 4 7 5 6 6 5 9 10 11 7 6 7 12 10 7 6
14 16 13 9 5 5 6 8 8 8 8 5 3 2 1 3 2 2 5 4 13 1 1 1 2 3 3 1 1 2 1 2 1 3 3 5 3 4 7 7 6 8 8 8 7 8 7 8 10 7 7 6 7 7
15 14 11 7 4 6 8 11 11 10 7 1 2 2 2 2 4 10 1 3 3 2 1 3 2 3 2 1 2 1 1 2 2 4 4 4 3 4 5 6 6 7 9 6 5 6 5 6 5 6 6 6 8 7
15 12 8 4 4 7 10 13 12 6 3 2 2 1 1 8 1 2 0 2 2 2 3 4 5 3 1 2 3 1 1 1 1 3 1 2 2 4 4 3 6 7 10 11 9 5 6 6 5 6 7 8 12 13
11 8 6 4 4 7 10 13 2 8 4 3 1 1 3 1 1 1 2 1 3 4 3 3 4 4 2 2 2 0 1 1 3 1 1 3 4 7 5 4 6 6 8 8 12 11 14 8 12 10 9 11 11 10
7 6 5 5 6 7 7 7 3 4 3 0 1 1 2 3 1 4 3 3 3 3 3 2 1 1 2 2 2 1 1 3 1 2 2 4 4 5 6 4 6 7 7 8 9 14 13 12 13 12 13 14 8 2
4 4 5 8 10 12 11 4 1 2 2 2 2 3 4 4 4 5 5 4 4 3 3 2 1 2 1 2 2 2 2 1 2 2 4 3 5 7 6 5 2 7 6 7 9 12 12 13 15 14 12 10 5 3
3 5 8 6 5 6 8 8 6 3 2 2 3 4 6 4 2 2 1 2 3 2 3 2 1 2 0 2 1 2 1 3 4 4 3 5 6 4 5 6 6 7 7 6 10 9 10 12 11 11 5 6 7 6
4 3 5 5 9 7 3 6 3 3 1 2 4 3 3 0 3 1 3 4 2 2 2 3 3 2 1 2 1 3 1 3 4 3 4 4 5 3 4 2 2 11 11 13 8 7 10 9 9 7 5 10 13 8
6 2 8 3 7 10 3 2 3 2 3 3 4 3 4 3 5 4 4 3 3 2 2 3 2 1 2 1 2 3 4 4 4 4 3 3 4 4 4 5 2 9 15 11 6 3 4 4 4 4 8 13 14 9
1 5 5 4 9 9 1 4 3 3 5 5 3 4 3 3 2 4 3 2 3 3 3 3 4 2 2 2 3 3 4 4 3 3 3 3 3 5 5 5 6 9 13 16 6 0 6 5 4 7 13 17 14 10
5 9 13 17 12 4 2 4 5 3 6 3 4 2 1 3 3 2 1 2 2 2 4 2 3 2 3 4 4 3 3 2 1 1 1 2 1 3 4 8 8 9 7 7 4 8 4 3 7 9 17 18 15 10
13 13 12 11 7 5 3 4 5 3 4 3 1 1 1 2 3 2 2 0 3 2 1 2 3 3 4 3 4 3 3 2 3 1 2 3 5 2 1 4 4 6 6 5 6 5 3 3 14 9 7 9 10 11
8 2 3 7 6 6 3 3 3 4 3 1 1 2 1 2 3 4 3 1 2 2 1 3 2 3 3 3 6 7 5 5 3 3 3 2 5 9 3 4 8 8 5 3 3 4 6 11 14 9 4 6 6 9
2 3 1 4 3 4 3 8 4 3 1 2 1 2 3 1 2 1 2 0 3 2 4 4 3 3 3 3 4 6 9 15 16 16 15 11 2 3 3 4 6 5 5 6 1 2 7 8 9 5 11 10 12 12
5 5 3 5 3 2 7 6 3 3 2 2 2 2 3 2 2 2 1 3 3 3 4 3 5 6 8 9 11 7 10 18 11 9 12 14 11 7 9 9 8 4 3 4 3 4 3 2 8 11 5 10 12 13
5 3 3 4 5 4 2 3 3 2 1 1 2 2 1 0 1 1 3 1 2 3 2 4 13 8 11 9 5 9 12 16 13 15 13 11 8 6 7 2 2 6 11 7 5 6 6 7 8 7 2 6 11 12
0 5 3 5 3 2 3 3 2 1 2 1 1 0 1 1 2 2 0 1 3 4 3 5 9 6 7 3 4 8 12 16 14 6 7 12 12 11 8 5 5 2 2 6 8 8 8 9 9 10 6 7 12 10
2 4 7 4 3 4 4 2 3 3 2 1 2 1 2 1 2 2 1 2 2 1 3 6 7 4 2 9 5 5 11 15 15 11 8 12 13 11 6 3 4 5 5 5 7 10 11 10 10 11 10 10 12 13
3 5 5 4 2 2 3 2 3 3 2 3 2 1 1 2 2 2 2 3 3 6 19 26 23 15 12 14 15 18 20 16 13 12 10 11 10 7 6 6 3 5 7 8 10 12 12 13 11 13 13 9 6 6
6 3 6 3 2 3 4 3 3 4 3 2 3 3 3 6 3 3 3 9 8 18 25 22 22 24 24 22 21 22 18 19 18 16 13 12 10 4 7 9 8 9 9 10 9 9 11 10 10 10 10 9 8 8
4 3 1 4 4 4 4 5 5 3 4 4 4 2 2 2 2 3 5 11 16 20 20 18 16 17 17 19 20 21 25 26 22 7 6 3 2 5 8 8 6 7 10 12 11 10 10 8 7 9 10 8 7 7
5 4 4 3 3 4 2 3 2 2 3 3 2 2 2 2 2 6 11 14 17 17 20 22 22 21 19 20 17 17 24 29 27 22 9 7 14 15 11 9 8 9 9 9 9 8 9 7 8 6 5 4 3 6
2 2 3 2 2 0 1 3 4 3 2 2 1 2 2 2 1 5 11 13 12 10 14 18 19 22 23 22 21 17 12 27 27 21 16 14 13 15 16 13 10 10 7 5 6 7 7 5 4 3 4 4 1 1
4 7 5 4 2 1 1 2 2 1 2 2 0 1 2 3 1 3 2 6 14 14 14 19 23 24 23 21 17 15 13 15 21 25 21 19 16 14 13 12 12 13 10 10 8 5 3 5 4 4 4 6 6 4
1 1 3 3 3 2 1 2 2 1 2 1 2 4 4 4 4 3 1 4 14 24 23 20 18 18 17 18 17 16 16 22 24 24 21 17 15 14 14 11 10 11 12 11 11 9 5 3 2 1 6 4 2 3

GFSWCAN_925_spd_066.txt.gz
Wind_Speed
11 13 13 12 9 9 12 12 11 9 8 7 8 7 6 5 7 4 5 10 4 2 4 5 5 4 2 2 3 3 3 3 3 4 3 2 3 2 1 3 1 3 3 1 3 2 5 3 2 2 2 2 2 5
12 13 14 11 9 9 12 12 11 9 7 5 7 6 7 5 6 6 1 5 5 3 4 3 7 6 7 8 5 2 2 2 4 4 2 3 2 2 4 2 2 1 5 4 6 5 3 4 4 4 3 4 5 7
14 13 14 11 10 9 11 12 12 10 7 5 5 5 5 5 6 6 3 5 1 3 4 2 4 5 12 16 11 4 2 4 1 2 4 3 3 4 4 4 4 4 4 3 3 3 5 7 5 6 6 6 6 7
13 13 14 11 10 9 10 11 10 10 5 4 5 4 4 4 4 5 4 3 3 4 1 5 4 1 3 11 17 5 10 7 9 3 3 3 3 4 4 3 4 5 5 4 4 8 5 7 6 6 7 5 6 11
14 13 13 11 11 9 10 10 9 8 5 4 5 5 4 3 4 5 4 2 4 3 2 4 15 3 6 10 16 10 23 6 3 2 2 3 3 3 1 1 3 6 7 6 7 8 5 4 4 4 6 6 9 8
15 14 14 13 11 9 8 7 8 7 5 5 6 6 5 4 3 2 3 1 2 2 2 3 4 4 6 7 14 14 10 3 3 3 2 2 2 3 4 4 6 7 6 7 4 5 6 4 3 5 5 9 13 10
16 14 13 14 12 9 7 6 6 7 7 6 7 7 5 5 4 2 3 1 3 1 1 4 5 3 4 5 2 2 4 2 2 2 3 3 4 4 3 4 5 9 13 7 5 5 2 5 6 6 8 13 15 15
17 15 13 14 11 8 6 6 6 8 9 7 7 6 2 3 4 3 4 9 3 2 2 1 4 4 4 2 1 1 2 1 2 2 2 1 1 2 4 9 4 3 5 6 9 9 7 3 1 6 11 13 6 8
14 13 13 14 10 7 6 6 7 10 10 7 3 2 1 0 1 3 8 4 8 3 1 1 1 3 3 1 1 2 1 2 2 1 0 1 1 4 6 4 5 8 8 7 7 7 6 7 9 7 7 7 7 10
10 11 15 12 8 7 5 7 11 10 8 1 1 1 1 1 3 5 1 2 2 2 2 3 2 3 3 1 1 1 1 1 1 0 1 2 3 6 6 7 6 7 8 7 4 5 7 6 7 7 8 8 9 10
13 15 13 9 6 4 5 10 13 5 4 2 2 1 2 7 1 2 1 2 2 2 3 3 5 2 1 2 2 1 2 1 1 3 1 2 3 3 4 7 5 5 8 10 10 5 6 6 6 6 7 10 10 11
14 11 8 6 4 3 6 11 5 7 4 3 1 2 3 1 1 1 2 1 3 4 3 3 4 4 2 1 2 0 1 1 3 1 0 2 4 5 5 6 6 7 9 8 14 11 14 14 12 9 10 11 10 8
10 6 5 4 5 5 5 6 1 3 3 1 1 1 3 1 1 4 4 2 2 3 4 3 2 3 1 2 2 1 2 3 2 1 2 4 4 5 6 4 6 8 8 9 10 12 12 13 12 10 13 14 8 6
4 2 4 6 9 10 10 8 3 2 2 2 3 3 3 3 5 5 4 4 3 3 4 3 2 2 1 2 2 2 1 1 2 2 4 3 5 6 5 1 2 4 4 6 9 11 10 10 12 12 12 8 6 11
2 3 6 2 8 4 8 9 7 2 2 2 3 4 6 5 3 3 2 1 3 3 3 2 2 3 2 2 1 2 2 3 4 4 3 4 5 5 6 4 2 2 5 4 5 6 11 12 9 10 7 3 8 11
5 3 4 4 7 8 3 3 3 3 2 2 3 3 3 1 4 2 1 3 1 3 3 2 3 1 2 3 2 5 3 4 3 3 4 3 5 3 4 5 6 6 5 5 6 5 11 12 14 13 7 9 13 12
7 1 7 2 6 8 3 1 2 3 3 3 4 3 3 4 5 4 4 4 7 2 3 3 4 3 3 1 2 3 4 4 4 4 2 2 3 5 4 5 6 5 6 10 10 9 6 8 5 5 8 12 14 11
1 2 7 3 8 9 1 4 3 3 5 4 3 4 3 4 2 1 3 3 3 3 4 4 4 3 4 3 3 4 4 3 2 3 2 3 4 5 5 4 4 6 7 5 6 9 10 14 7 3 6 14 14 10
4 5 8 13 11 4 2 3 4 3 6 3 4 2 3 3 3 2 3 3 3 3 4 2 4 2 2 4 4 3 3 2 1 1 1 4 5 5 6 7 8 9 9 8 8 6 2 2 9 12 5 15 13 9
13 10 12 12 8 4 2 3 4 3 4 3 2 2 2 3 1 2 2 3 4 3 3 3 4 4 4 3 4 3 2 3 3 1 2 2 2 3 4 3 5 6 6 8 8 7 4 5 10 8 9 12 8 6
8 2 4 7 7 7 3 2 3 4 3 2 0 2 3 1 2 3 2 1 2 2 3 2 3 3 5 3 5 5 4 5 2 2 2 1 3 3 1 3 3 8 11 10 8 8 8 8 4 8 6 4 0 5
2 2 1 3 2 4 3 7 3 3 1 2 1 0 1 2 2 2 1 1 1 3 4 4 3 3 3 3 3 3 8 12 10 9 9 5 2 3 3 6 9 8 11 8 7 8 11 15 11 14 3 4 12 9
3 3 3 4 2 2 6 3 2 3 2 2 1 1 1 1 2 2 1 1 2 2 1 3 4 9 10 8 12 14 14 16 10 7 8 8 5 6 8 10 9 10 9 10 9 7 8 13 14 8 6 9 14 13
6 3 3 3 5 4 2 3 3 3 1 1 2 2 1 1 2 2 1 1 2 2 3 5 8 6 8 7 4 6 11 10 13 9 5 4 6 7 7 8 6 9 10 8 8 9 10 10 11 7 10 12 12 14
1 4 3 4 3 2 3 3 3 1 3 1 1 1 1 1 1 1 1 1 1 2 2 6 8 3 5 3 4 7 11 14 13 5 4 5 9 6 7 10 10 8 8 8 10 9 8 4 3 5 6 7 8 9
2 4 7 4 3 4 4 3 2 3 2 1 1 2 1 1 2 2 2 2 2 2 3 4 5 3 2 6 5 5 9 10 11 7 6 7 4 7 5 4 5 7 6 5 6 9 10 11 11 11 11 10 8 8
3 5 4 3 2 2 3 2 1 1 3 3 2 2 1 1 1 2 1 2 2 4 12 19 21 15 10 12 11 10 14 14 9 5 4 8 3 4 4 6 3 4 6 6 6 7 9 9 11 11 9 6 5 5
5 2 4 2 2 3 3 3 3 4 2 1 3 3 2 3 2 3 3 5 3 11 15 16 13 15 19 18 16 18 14 13 13 10 11 8 5 4 7 6 6 4 5 6 6 8 8 8 7 8 8 9 8 6
3 3 2 3 3 3 5 5 3 0 2 3 2 1 2 1 1 2 4 10 9 17 19 14 11 12 14 14 17 19 20 22 18 5 4 2 2 4 6 6 6 7 6 6 6 7 5 5 7 8 8 7 6 8
5 4 3 3 3 4 2 2 2 2 1 1 2 2 2 1 3 5 13 16 16 19 23 22 21 21 20 20 18 16 22 21 21 19 6 5 9 8 6 4 4 4 4 6 6 6 5 5 5 4 3 2 4 6
2 3 2 3 3 2 1 2 3 2 2 2 2 2 1 1 0 4 13 18 20 17 16 15 18 22 21 21 21 16 15 24 21 18 11 8 12 11 10 7 6 5 3 2 1 1 1 0 2 3 4 4 3 3
4 6 4 4 2 1 0 1 1 2 1 1 0 1 0 2 1 2 7 15 16 16 22 23 21 22 26 25 25 24 14 16 27 22 18 13 11 11 11 11 9 7 7 5 3 2 1 1 0 1 2 3 4 4
3 3 2 3 2 2 2 2 1 1 1 1 3 4 3 4 4 3 4 8 15 16 18 20 23 20 20 20 18 16 11 10 16 25 22 16 13 12 10 9 8 9 8 7 6 6 4 3 3 3 2 2 4 5

GFSWCAN_925_spd_069.txt.gz
Wind_Speed
14 13 12 11 11 9 10 11 13 13 11 9 9 9 8 6 8 3 3 8 2 1 2 7 6 5 4 2 2 4 3 2 2 2 1 3 3 3 1 2 3 4 5 3 2 2 5 10 6 5 4 4 3 1
15 16 13 12 10 9 9 10 11 12 10 7 8 7 8 6 6 4 2 5 5 2 2 4 6 4 3 6 4 2 2 3 2 3 2 2 2 4 4 2 4 3 3 3 6 3 2 8 2 4 3 3 2 1
16 16 15 14 12 10 9 10 11 12 9 5 6 5 6 5 5 6 3 6 2 1 2 2 3 3 10 10 7 2 2 4 4 1 3 2 2 3 3 4 3 5 4 3 1 6 10 9 7 4 6 4 5 4
15 15 15 14 12 10 9 9 10 10 7 5 5 4 4 5 5 5 3 4 3 2 1 3 3 2 1 5 11 4 8 8 8 2 2 2 2 5 2 1 4 2 9 6 5 7 4 9 11 8 10 8 8 9
14 14 14 13 11 10 8 8 8 7 6 5 5 4 4 5 4 4 4 4 5 2 2 3 6 1 6 7 11 9 16 7 3 3 2 2 2 4 1 2 4 8 7 6 5 7 3 4 8 11 10 11 10 8
15 14 14 13 11 10 8 7 6 6 6 6 6 5 4 5 2 1 2 1 0 1 1 1 2 2 5 6 10 13 10 3 2 3 1 1 2 4 4 4 6 13 9 9 3 7 4 6 8 10 9 9 9 8
14 14 13 12 11 12 8 5 5 5 6 7 8 7 4 3 2 2 2 3 3 1 1 2 1 1 2 3 2 3 3 2 2 2 3 3 3 4 2 4 1 9 14 11 6 9 5 9 6 12 13 8 6 9
13 14 13 12 12 11 7 4 5 6 6 7 7 5 2 1 2 1 0 6 3 1 1 1 1 1 0 2 2 2 3 2 2 2 2 1 3 2 4 10 6 9 7 12 14 13 3 4 6 8 8 7 8 9
12 12 11 11 11 9 5 4 6 7 9 7 4 3 2 1 0 3 6 7 6 1 0 1 1 2 1 1 1 2 2 3 2 3 2 3 2 4 8 7 4 4 7 8 14 14 12 12 11 9 10 9 9 9
8 8 10 12 12 7 4 5 8 9 8 4 2 2 2 1 5 4 2 1 1 1 0 2 1 2 2 2 2 2 1 1 2 2 2 1 3 11 9 4 3 7 8 7 9 10 12 13 11 11 12 12 10 9
7 12 15 13 7 4 3 6 10 7 4 3 2 1 3 8 2 1 1 2 2 2 3 3 6 2 2 3 2 1 2 2 2 3 2 1 3 3 3 9 9 9 10 16 13 10 10 9 9 9 9 12 10 10
15 15 11 7 4 2 3 7 4 6 4 3 4 3 3 2 1 2 2 2 4 3 4 3 3 4 2 1 2 2 2 2 2 2 2 2 4 3 4 10 11 10 12 13 15 14 14 14 14 13 10 10 11 8
9 8 6 4 3 3 4 3 1 3 4 2 2 2 2 2 2 4 4 2 3 4 5 4 2 2 2 2 1 2 3 1 2 2 3 4 4 3 4 4 7 10 10 11 13 15 13 14 15 16 15 13 9 9
4 2 1 3 6 9 10 7 3 2 2 2 2 1 3 4 5 5 4 1 0 1 4 3 3 2 1 3 1 2 2 2 3 3 4 2 4 4 1 2 3 4 4 6 10 13 15 14 13 14 16 13 10 13
2 2 3 1 5 4 12 13 7 3 2 2 2 4 6 5 4 3 3 2 3 3 3 3 2 3 2 2 2 2 3 3 4 2 2 3 2 5 3 3 3 2 3 5 8 7 10 11 9 12 11 12 13 14
4 2 3 3 6 8 5 7 6 3 1 2 4 3 4 3 4 3 4 3 4 4 3 1 3 3 2 2 3 5 2 4 1 2 2 3 3 3 4 4 5 5 5 7 8 8 6 1 5 8 2 9 13 16
7 1 6 3 6 5 1 1 2 3 2 3 4 5 6 5 6 4 3 2 7 5 3 3 5 2 3 2 3 3 3 2 1 1 1 1 2 3 4 6 7 8 8 8 9 7 6 7 3 2 2 7 12 14
2 2 6 2 6 5 2 3 2 3 5 5 4 2 3 4 3 3 2 3 4 3 3 3 4 3 4 3 3 1 3 2 0 1 1 3 4 4 4 6 6 7 8 7 6 5 8 10 6 5 5 9 10 10
5 5 7 9 6 5 2 3 3 3 5 3 4 4 3 3 3 2 2 4 3 2 2 2 3 3 3 6 6 5 3 2 1 2 3 5 4 4 4 6 9 9 7 6 6 6 6 6 4 4 4 11 12 10
10 9 10 10 8 3 2 2 3 3 3 1 2 2 3 2 1 1 2 3 3 2 2 2 3 5 5 7 5 4 1 3 3 2 4 4 3 2 6 9 8 7 7 7 8 9 8 5 9 14 9 5 4 6
6 2 5 7 5 5 2 2 3 3 3 3 1 2 2 1 1 1 1 2 2 2 2 2 5 7 6 0 3 4 5 3 3 3 3 4 3 5 6 6 4 7 7 7 7 7 9 7 5 10 12 5 3 4
2 2 1 3 3 3 3 5 4 3 3 3 2 2 2 1 1 1 0 2 1 0 1 2 2 3 4 4 5 6 8 10 11 11 8 6 5 6 7 7 8 9 7 6 7 7 12 8 9 6 6 8 7 8
4 3 3 4 2 3 4 3 3 3 3 1 0 2 1 1 0 1 1 1 0 1 0 2 5 8 11 10 13 12 9 10 9 8 8 8 8 7 8 8 9 9 8 9 8 12 13 18 7 6 6 6 8 9
6 2 2 3 5 3 2 3 3 3 2 2 2 2 1 0 2 1 1 1 1 1 3 7 8 7 9 8 6 8 7 8 10 7 4 5 7 6 6 6 6 7 5 7 9 9 10 7 6 5 6 7 8 7
1 2 3 3 3 3 4 3 3 2 2 1 2 1 1 1 1 1 2 1 2 3 2 3 5 5 7 6 7 7 5 7 7 6 4 6 7 7 7 6 7 7 6 8 9 8 4 2 2 5 6 4 4 4
1 3 6 3 2 3 2 3 3 2 1 3 1 2 1 0 1 2 0 2 2 2 3 5 7 7 6 9 7 7 6 6 6 7 5 4 5 6 6 6 7 7 6 5 7 9 9 7 7 7 7 6 5 4
2 3 3 3 3 3 4 4 3 3 3 3 3 3 2 2 2 2 1 3 2 3 6 9 10 11 11 10 9 8 7 6 3 5 6 5 4 4 5 6 7 5 5 6 6 7 8 8 7 6 4 4 5 6
5 3 4 1 3 3 4 3 2 2 1 2 1 3 2 2 1 2 2 6 7 12 11 10 7 9 12 12 12 13 10 8 9 10 10 7 5 5 5 6 6 7 6 6 7 7 7 6 7 6 7 7 6 7
4 2 2 4 4 4 4 4 2 2 2 3 2 3 3 1 1 2 4 9 13 14 13 10 7 9 10 10 10 10 12 14 12 8 7 6 7 6 5 5 6 6 5 7 9 8 7 7 7 6 6 5 6 7
4 5 3 3 3 4 2 3 1 2 1 1 1 2 2 1 1 3 10 12 13 13 14 13 12 13 13 14 12 11 12 12 10 7 6 6 8 8 7 5 5 5 6 6 6 7 6 5 5 5 3 3 4 6
2 4 3 4 3 1 1 2 2 2 2 1 0 1 2 2 2 4 8 9 10 10 11 11 11 13 13 14 14 15 13 17 15 11 3 10 11 10 8 7 6 6 5 4 3 2 2 2 3 4 6 6 4 4
4 7 4 3 1 2 3 1 2 2 2 2 2 2 3 2 3 3 6 11 11 11 14 13 14 15 19 15 14 14 7 10 20 20 14 11 11 10 10 8 7 5 4 1 1 2 2 1 2 2 4 4 4 4
3 3 4 2 2 3 3 2 3 2 2 3 2 3 3 2 2 1 5 12 13 12 12 15 14 10 12 16 18 15 16 11 7 21 21 16 12 11 10 9 8 6 5 4 3 3 1 1 2 2 1 1 3 6

GFSWCAN_925_spd_072.txt.gz
Wind_Speed
15 14 13 12 11 12 9 9 10 11 11 9 7 6 7 6 7 4 1 5 5 3 6 6 4 4 4 2 1 5 5 4 4 3 2 2 2 3 1 3 3 5 4 4 5 4 6 11 6 4 7 6 5 3
15 14 14 13 11 11 9 8 9 11 11 7 5 4 5 5 6 3 1 3 3 5 5 3 5 3 1 3 2 4 3 1 2 2 2 3 3 4 4 2 5 4 3 2 4 1 2 12 3 5 3 4 4 3
15 14 14 12 11 11 9 8 8 10 9 5 4 3 3 4 4 3 2 4 3 3 4 6 7 9 8 7 3 2 2 2 3 3 2 1 2 4 3 4 5 7 5 3 2 5 8 11 7 5 5 5 5 4
14 13 13 12 11 10 8 7 6 8 8 4 3 3 2 2 3 3 3 3 3 3 3 5 3 3 5 9 11 6 7 5 6 3 2 2 3 3 2 2 5 4 9 8 7 9 4 11 12 9 9 7 6 5
14 12 13 11 11 9 9 7 6 6 5 3 2 3 3 2 2 2 1 1 2 6 3 3 3 3 3 7 11 10 10 6 3 3 3 2 3 3 3 4 7 9 9 7 6 7 10 3 14 14 11 11 8 6
14 12 12 12 11 10 10 7 5 4 5 3 3 3 3 3 1 2 4 2 1 3 3 3 4 4 2 7 10 12 11 6 4 3 2 2 3 3 3 3 8 11 13 13 5 6 7 6 8 14 13 11 11 10
14 13 12 11 10 11 10 8 5 4 5 5 5 4 4 3 2 4 4 3 2 1 3 3 4 4 4 5 5 4 7 3 4 2 4 2 3 4 2 4 11 11 10 10 7 7 7 9 8 12 12 11 10 10
14 12 12 11 9 10 11 7 5 3 5 5 5 3 0 3 2 3 2 5 2 4 3 2 3 4 6 3 3 2 3 4 5 2 3 2 3 2 4 12 11 8 6 8 12 13 5 8 11 9 14 13 10 10
11 11 11 10 10 10 10 6 4 4 6 5 2 3 3 2 3 2 1 4 5 4 2 2 2 2 3 2 1 3 3 3 0 3 2 3 3 5 9 12 7 6 10 11 12 14 13 10 10 11 12 12 13 10
6 7 8 9 11 11 7 4 4 6 6 3 2 2 3 3 7 3 2 3 4 3 3 3 2 2 3 3 2 2 3 2 2 2 4 3 3 13 12 9 5 8 3 5 7 12 14 14 14 14 14 12 14 12
4 7 10 14 12 8 4 2 6 7 1 1 3 1 2 7 3 2 2 3 2 3 4 3 4 1 2 3 0 1 1 1 2 3 2 2 3 4 5 2 7 12 8 5 7 14 15 15 13 14 14 14 15 16
13 14 11 8 7 4 2 3 3 4 2 3 3 3 4 4 2 3 3 3 4 2 5 3 3 4 2 2 3 3 2 2 2 4 2 2 4 3 4 5 8 13 12 11 16 16 19 15 16 15 15 16 15 16
9 6 4 3 2 1 1 1 3 4 6 2 3 4 2 3 2 5 5 4 3 5 5 5 3 3 2 4 1 3 4 2 1 3 3 5 2 3 3 4 6 11 14 13 14 16 19 18 19 19 18 19 18 16
2 1 1 3 4 6 7 4 1 1 1 3 3 3 5 4 5 5 4 1 3 3 5 4 4 4 3 5 3 3 1 3 3 3 4 4 3 3 4 3 5 4 5 6 6 8 11 13 15 18 21 21 20 19
4 5 3 1 4 6 10 10 5 2 2 3 3 4 6 6 4 2 2 3 3 1 4 3 3 4 4 3 3 1 2 4 4 4 3 5 2 4 4 3 4 4 5 5 8 10 12 14 14 16 16 19 19 18
4 4 1 3 6 8 6 7 5 2 3 3 5 5 6 5 6 4 5 4 4 4 3 4 3 4 5 3 3 5 3 4 3 2 4 3 4 3 2 2 4 5 5 7 6 9 10 9 10 10 9 10 14 18
4 1 3 2 6 5 2 3 3 4 4 4 4 5 8 7 6 6 3 4 4 5 5 3 5 4 4 4 3 3 4 4 6 4 3 4 4 3 3 4 5 6 6 6 6 5 6 8 10 14 14 12 9 7
3 1 4 1 4 3 1 3 3 3 5 6 5 4 4 5 6 5 4 3 4 4 3 3 2 5 4 5 3 5 4 2 5 3 4 4 4 4 4 5 6 6 7 6 6 7 9 10 8 11 12 13 17 13
4 5 8 8 3 3 3 4 4 4 5 4 6 6 6 6 5 6 4 3 4 3 2 2 2 2 0 4 7 6 2 1 1 4 5 5 5 5 3 3 3 5 6 6 7 7 7 7 7 4 11 12 16 12
9 9 8 8 8 3 3 3 3 4 4 2 4 5 4 4 2 3 3 4 3 3 2 2 2 5 5 7 6 4 3 2 2 4 5 4 3 3 4 4 6 5 3 4 3 7 12 5 7 8 10 5 12 12
4 2 4 6 5 6 3 3 4 4 5 4 3 4 4 3 4 4 1 3 4 3 2 2 5 6 10 3 2 4 3 2 4 4 3 4 3 4 4 2 3 6 7 8 7 9 11 6 5 4 8 8 6 8
2 2 1 2 3 3 4 5 4 4 3 5 3 4 4 3 1 2 1 4 1 2 2 2 3 4 5 5 6 6 9 11 10 9 8 7 4 4 4 5 6 6 8 9 11 5 4 7 8 8 13 13 9 9
4 3 2 3 3 3 5 4 4 4 4 2 2 3 3 1 1 2 2 2 3 2 3 4 6 7 10 11 12 11 9 8 7 8 8 8 6 4 5 6 6 8 9 11 10 9 7 5 7 9 7 7 8 7
6 3 3 3 5 4 3 4 4 4 3 3 3 3 2 1 0 1 1 2 3 5 6 6 8 7 9 10 6 8 6 7 8 8 6 7 6 5 5 7 8 7 7 10 7 5 7 8 6 5 7 7 7 9
3 3 3 4 3 3 4 4 4 4 3 3 3 1 2 2 2 1 2 3 4 6 4 5 5 5 6 6 7 9 5 5 7 7 5 7 6 8 7 7 7 5 5 7 7 7 7 7 5 6 4 7 7 7
3 5 6 4 3 4 3 3 2 3 6 4 1 2 1 2 1 1 2 4 3 4 4 4 6 6 6 8 7 8 8 6 7 8 6 4 4 5 6 6 8 7 5 5 7 6 5 6 7 7 5 5 4 6
3 4 5 4 4 4 5 4 4 4 4 2 1 3 3 2 2 2 4 4 3 6 7 8 8 8 9 11 12 12 10 6 5 8 8 5 5 3 3 5 7 6 5 4 4 4 5 5 5 5 6 6 5 5
5 3 6 4 4 5 6 5 3 3 1 1 1 2 4 3 2 3 4 8 10 12 11 9 9 13 13 13 13 13 11 9 8 8 7 5 5 6 6 7 7 5 5 5 5 3 3 4 4 5 6 7 9 6
4 4 4 8 7 4 4 4 3 1 2 2 3 1 3 2 2 5 10 12 13 14 13 13 11 12 13 12 11 10 10 9 9 6 6 6 7 8 7 8 7 5 6 7 4 5 5 5 6 6 5 5 5 6
7 6 5 5 5 5 2 2 1 1 1 2 1 2 3 3 5 7 12 14 14 13 13 14 15 14 13 13 12 11 10 9 7 5 4 4 7 10 9 8 6 5 5 5 6 5 3 4 4 2 2 3 5 5
1 4 4 5 4 3 3 1 1 1 3 3 1 3 1 3 5 7 11 13 14 13 13 12 13 13 12 13 12 13 11 13 10 6 2 7 10 10 10 8 7 6 5 3 2 1 1 1 2 3 5 4 4 4
5 8 5 4 3 2 3 3 3 3 3 3 4 4 4 4 5 6 11 14 14 14 14 13 12 12 13 11 11 11 8 10 15 16 11 9 11 11 10 9 7 6 4 3 2 2 2 0 1 3 3 3 3 5
6 5 5 6 4 3 4 4 3 2 3 3 4 5 6 4 2 3 4 12 14 14 14 13 10 8 6 12 12 12 13 9 11 18 18 12 10 11 11 10 8 6 5 4 3 3 3 1 1 1 2 1 2 5

GFSWCAN_925_spd_075.txt.gz
Wind_Speed
15 13 15 14 14 12 11 8 9 9 9 8 5 5 6 5 5 4 3 5 7 4 7 4 3 3 4 4 4 8 5 5 6 3 2 2 3 3 2 5 6 4 3 4 8 10 10 12 6 6 10 10 10 7
16 14 15 15 13 13 12 9 8 8 8 6 3 3 4 4 4 2 3 1 4 7 8 1 5 3 4 6 3 3 6 1 5 3 1 3 3 4 5 2 6 4 3 2 4 3 5 5 3 8 6 8 5 6
17 16 13 12 12 12 11 9 9 8 8 6 2 3 2 2 3 2 4 4 5 5 6 7 9 12 9 6 4 6 2 4 3 6 1 3 2 4 4 6 6 7 5 3 2 7 6 9 7 6 4 4 5 5
18 13 12 12 12 11 9 8 8 7 6 5 3 2 2 2 2 2 4 4 5 5 5 6 4 4 7 9 6 5 4 1 2 5 4 1 1 4 6 4 4 7 6 8 10 9 4 10 10 8 7 6 6 6
14 11 12 11 12 11 9 8 7 6 5 3 3 3 3 2 2 3 4 2 2 7 5 5 6 5 7 6 8 9 5 2 3 3 4 2 2 3 7 9 9 8 11 8 7 6 9 10 15 12 11 10 9 8
13 12 12 11 11 10 9 9 6 5 4 3 3 4 3 2 3 5 5 5 1 4 4 4 9 5 4 7 8 9 8 5 2 3 1 3 1 3 3 3 10 13 10 11 11 12 6 5 3 12 12 11 11 9
11 11 12 12 11 10 10 10 6 5 4 2 4 5 4 3 3 7 5 4 0 3 4 3 6 6 5 6 7 5 8 3 4 0 5 4 2 5 2 4 10 13 10 10 13 8 8 7 7 9 12 12 9 10
13 12 11 11 9 8 9 10 6 4 3 3 4 4 0 3 4 6 3 2 2 8 4 3 3 6 11 6 4 4 5 4 4 6 1 2 4 3 4 10 11 10 12 11 9 9 10 11 9 13 13 13 11 10
10 10 11 10 8 8 9 8 5 4 2 3 2 2 1 3 3 4 2 3 5 5 4 3 3 2 6 5 3 3 1 4 2 3 3 4 3 5 9 10 12 13 10 11 11 9 12 8 10 12 12 12 12 11
2 3 5 6 8 10 10 5 3 2 3 1 1 5 4 3 3 2 2 4 1 3 5 5 1 2 5 3 4 4 4 4 3 3 5 3 4 12 12 11 8 4 6 9 11 13 16 14 12 12 13 12 14 14
5 6 9 11 15 12 7 3 3 4 2 2 5 1 3 6 3 2 2 3 3 4 5 4 4 3 2 3 3 4 3 2 2 4 3 2 3 7 1 5 2 3 10 8 9 6 7 6 13 14 14 16 15 14
17 16 15 13 10 7 3 1 2 4 2 1 3 2 3 4 2 3 3 3 4 4 5 6 4 4 3 2 3 3 2 3 2 4 2 2 5 8 2 6 3 4 11 13 11 10 12 21 17 13 16 17 20 19
9 7 5 5 4 2 1 3 3 4 3 2 4 4 2 2 3 5 6 4 4 4 5 5 5 4 3 4 3 3 3 2 1 3 3 5 5 3 2 5 4 5 10 11 15 14 11 12 16 14 13 18 20 19
5 3 1 1 2 3 4 3 2 0 2 3 4 2 5 5 6 7 5 1 4 1 5 3 3 4 3 4 3 3 2 2 1 2 5 3 4 1 3 5 4 7 8 7 8 8 10 13 14 15 18 20 19 20
6 5 2 3 4 6 9 9 5 2 4 3 3 4 7 8 8 1 1 2 3 4 3 2 1 3 4 3 2 2 3 2 4 7 3 2 1 2 4 5 6 6 6 6 4 9 13 14 14 14 17 17 19 22
2 2 2 2 6 7 6 7 4 3 4 3 5 7 7 7 7 6 8 7 4 4 2 2 3 3 5 5 5 4 2 5 3 3 3 6 5 5 5 4 4 7 8 11 12 9 10 12 11 12 13 14 16 15
1 0 2 1 5 4 5 2 4 5 4 4 6 7 8 8 7 7 6 5 2 2 4 1 3 3 4 3 3 1 4 5 7 6 8 6 4 3 3 5 6 9 10 10 11 10 10 10 11 13 13 14 16 19
2 1 2 1 3 4 3 4 4 4 6 7 7 8 6 6 6 7 5 3 1 2 2 1 3 4 2 5 3 6 8 4 3 5 6 2 3 3 6 7 7 7 9 9 9 9 9 9 9 12 17 18 18 13
2 2 6 6 2 4 3 6 5 4 7 7 6 7 8 6 6 5 6 1 5 1 1 3 4 3 3 4 7 7 6 4 4 4 6 4 3 5 5 2 3 5 6 6 8 12 14 10 8 11 15 13 8 9
8 7 8 8 9 4 4 3 5 4 5 4 5 7 6 6 4 6 6 5 3 3 2 3 4 4 6 6 6 4 7 5 4 4 5 6 4 7 4 8 7 9 9 4 5 8 16 12 7 13 19 14 11 13
4 3 3 7 7 7 4 4 5 5 6 8 7 5 5 2 3 4 2 4 3 1 4 3 5 5 5 3 8 4 4 6 6 6 6 3 6 5 2 1 4 9 10 12 11 9 7 10 9 20 21 16 5 7
3 3 2 3 4 3 4 7 5 8 5 7 8 6 7 3 3 2 3 2 0 2 3 2 1 3 4 5 5 5 7 5 5 6 5 4 3 3 5 6 6 11 13 15 10 9 9 7 8 10 14 9 1 6
5 4 5 5 4 4 5 6 6 6 5 4 2 3 1 2 2 3 1 2 2 5 3 3 7 9 8 9 9 8 4 1 5 5 4 6 5 3 4 4 7 11 6 9 9 6 7 2 4 4 6 7 6 7
5 3 3 3 6 4 3 4 5 5 5 5 3 4 1 3 3 2 2 2 4 7 7 5 7 6 8 7 6 6 5 4 5 5 5 5 6 4 3 5 6 6 7 5 8 6 2 3 4 4 8 5 6 5
3 4 4 5 3 4 5 6 7 4 5 8 8 1 2 1 1 2 3 4 4 5 7 7 5 5 7 6 6 7 5 4 6 5 4 5 6 6 5 6 5 5 4 5 8 5 6 3 5 5 6 10 9 6
4 6 5 5 6 5 4 3 3 5 4 4 4 3 3 4 3 2 2 5 5 6 6 7 10 7 4 5 6 7 6 6 7 6 5 2 2 3 5 4 5 5 3 5 4 6 5 4 3 5 6 5 3 5
4 6 6 5 6 5 4 5 6 6 5 2 2 2 2 2 1 2 5 6 5 8 8 5 7 7 8 9 10 8 7 6 4 8 6 3 2 1 1 2 5 5 2 3 3 4 4 3 4 4 4 4 4 5
7 4 8 8 7 6 8 8 10 4 1 1 3 1 1 1 2 2 5 7 9 10 9 8 8 10 11 12 12 10 9 9 9 9 7 5 4 3 2 4 4 2 6 7 6 1 2 2 2 4 4 6 7 7
7 6 7 8 8 6 6 5 6 1 3 2 3 1 1 3 5 6 9 11 11 11 10 10 11 12 12 12 11 10 10 10 10 6 7 5 6 7 6 7 7 8 7 6 2 5 6 6 6 5 3 2 3 4
9 8 8 7 7 6 7 4 3 2 1 4 1 1 3 5 8 11 12 12 12 11 11 11 12 12 12 12 11 10 9 8 9 6 5 4 6 8 8 7 5 5 5 6 8 7 5 6 6 7 3 1 2 4
3 4 6 8 9 8 7 3 2 3 4 3 1 1 3 4 7 8 10 11 12 11 13 13 13 12 12 11 10 10 9 9 7 3 2 3 7 9 8 7 6 5 5 3 1 2 1 3 1 2 2 3 4 3
7 9 9 9 9 4 1 5 4 2 2 2 4 6 6 5 6 6 10 12 13 12 11 9 12 11 11 10 10 9 7 8 11 10 9 7 8 9 9 8 7 6 5 4 4 3 3 3 1 3 1 2 2 4
8 8 8 8 8 7 4 4 3 2 5 4 5 6 7 6 3 3 4 10 9 10 9 11 11 8 6 8 7 8 11 9 11 14 14 8 8 11 10 9 8 6 6 6 4 3 4 3 4 2 3 3 3 3

GFSWCAN_925_spd_078.txt.gz
Wind_Speed
15 13 12 12 12 11 11 11 10 10 11 11 8 6 8 8 9 10 7 4 6 7 6 2 1 1 2 4 4 6 3 4 4 2 2 3 1 1 2 6 8 3 3 4 9 11 4 9 4 4 8 11 9 9
15 14 13 13 12 10 11 10 9 8 10 10 7 5 5 6 7 9 6 2 5 6 6 3 2 1 3 7 6 2 3 4 6 1 1 2 2 3 5 3 5 4 2 2 3 3 5 4 6 8 8 10 8 8
17 16 16 13 10 9 9 10 9 8 9 9 5 4 4 4 5 7 9 7 8 6 9 7 8 9 6 3 4 3 5 5 1 4 7 3 4 4 3 4 7 7 6 2 5 4 5 6 4 3 2 7 5 6
17 16 13 11 10 10 9 8 9 7 7 6 5 4 4 4 4 5 8 8 7 8 5 9 6 3 8 7 4 4 4 1 1 4 5 3 2 4 5 4 4 6 3 7 8 11 6 4 8 8 6 5 7 6
16 15 12 10 9 9 9 7 8 7 5 4 4 4 4 5 6 7 9 6 4 7 5 1 8 10 7 6 5 7 4 3 2 2 3 2 3 3 7 6 7 8 5 5 6 7 6 11 10 11 10 10 10 11
14 13 10 9 10 9 8 8 8 7 4 3 3 4 4 5 5 4 4 6 3 7 4 2 7 4 6 5 7 9 8 3 2 2 3 3 3 3 5 4 8 9 7 8 5 8 11 12 13 14 14 13 13 11
13 10 9 10 10 8 8 9 9 6 3 3 4 4 5 5 4 5 3 4 4 6 3 4 5 6 7 7 8 5 5 2 5 3 5 6 2 3 1 4 6 8 7 6 12 8 11 13 6 7 10 14 14 14
11 11 10 10 8 7 8 9 9 6 3 3 3 5 4 4 6 6 6 4 4 6 5 4 3 6 12 5 4 3 5 5 5 6 1 1 3 2 4 11 11 9 10 10 12 9 6 6 5 10 13 16 12 11
7 7 7 8 6 7 8 9 9 4 2 2 3 1 1 3 4 5 1 2 4 5 4 4 2 4 7 5 3 3 3 2 2 3 3 4 4 5 9 9 10 10 11 12 7 6 1 7 13 10 13 11 13 12
3 0 5 7 7 9 10 12 5 2 0 2 2 5 4 6 4 2 2 3 3 3 5 5 7 3 7 2 1 2 1 5 4 4 5 4 4 11 12 11 10 6 8 7 6 9 8 11 9 3 8 9 11 13
8 6 7 9 11 15 10 9 5 1 1 2 5 0 5 5 3 2 2 3 3 4 5 7 9 3 1 4 4 4 3 3 3 5 5 4 3 7 9 9 5 3 3 5 8 7 9 7 5 12 10 13 16 19
14 15 14 12 9 10 6 4 4 5 3 5 6 1 3 4 2 3 3 3 5 4 3 7 4 5 2 2 2 3 3 3 4 7 3 2 4 8 3 5 2 4 2 5 8 7 9 16 27 23 19 17 18 18
6 6 4 3 3 3 2 1 4 5 2 3 4 4 3 3 1 5 5 4 4 5 3 4 3 3 3 1 3 3 4 1 1 3 3 5 2 9 7 3 2 1 3 6 9 15 10 8 6 18 8 14 14 13
4 1 2 2 4 4 4 4 3 1 4 4 5 2 4 6 6 8 6 4 3 2 6 5 4 2 3 1 2 3 2 4 2 3 4 4 8 9 8 3 3 1 3 7 0 5 9 11 6 10 15 17 19 19
4 4 0 3 6 7 9 8 7 3 5 4 4 3 7 9 10 4 4 1 6 10 3 5 3 4 4 3 2 3 2 1 4 3 0 3 4 3 2 6 6 7 7 5 1 7 11 8 7 9 12 14 17 15
4 2 3 2 5 5 4 8 5 4 4 4 5 7 8 8 8 7 10 5 4 3 4 3 3 1 1 3 4 2 2 5 2 4 1 3 5 5 3 3 9 8 7 9 10 13 12 12 11 12 13 11 12 14
0 1 2 1 4 1 4 2 8 5 4 4 5 9 9 8 7 8 7 6 2 2 2 0 1 3 4 3 4 4 4 5 5 3 4 9 7 5 6 8 6 9 8 9 10 9 6 8 9 13 13 16 17 16
1 2 2 2 5 5 4 6 4 4 9 8 8 9 8 8 8 8 8 2 1 3 0 2 2 3 4 4 3 4 6 6 4 2 5 7 6 9 10 8 4 4 6 5 5 7 9 9 9 11 15 20 21 18
3 5 5 5 4 4 4 7 6 4 7 8 9 9 8 7 8 8 6 5 4 7 2 2 3 4 4 4 6 5 2 2 4 6 7 8 8 5 2 4 2 2 5 3 6 9 9 11 8 10 12 16 15 7
8 8 7 7 6 5 4 4 7 5 5 5 8 9 9 7 5 4 6 7 6 1 3 4 3 3 4 4 6 4 2 3 4 3 4 5 10 9 3 2 4 8 6 12 8 12 11 11 7 9 13 16 13 11
6 4 3 5 6 8 5 4 7 5 7 8 9 11 7 4 4 3 4 2 4 3 2 1 4 5 8 9 4 5 7 6 6 6 6 7 4 3 3 2 3 13 14 15 15 10 8 9 6 10 11 7 5 6
0 1 4 7 5 5 5 9 5 7 6 9 10 10 6 3 2 3 4 4 2 2 2 5 4 2 5 3 3 6 8 6 5 6 4 4 2 4 5 5 9 11 14 15 8 5 7 4 2 2 5 6 4 5
5 5 5 7 4 3 6 10 8 9 9 4 2 2 1 2 2 6 3 2 3 3 9 6 7 9 8 8 8 6 2 1 5 4 4 7 6 2 4 7 9 10 10 6 6 2 8 1 1 7 3 5 9 6
5 4 4 4 6 4 4 4 4 5 4 8 4 4 2 2 4 2 2 2 4 7 7 9 10 8 8 9 8 8 6 2 6 6 4 5 8 3 4 6 5 7 8 6 5 4 6 1 1 6 6 4 4 4
3 5 3 6 5 5 6 6 11 7 10 4 8 4 0 2 2 2 2 4 6 5 7 7 6 8 7 7 8 9 5 8 7 5 3 6 7 8 7 6 4 6 8 8 3 4 3 2 3 9 10 11 9 4
5 6 5 5 7 5 5 2 2 2 6 7 1 3 1 2 2 1 2 5 6 7 8 7 8 7 6 5 6 7 8 4 6 7 6 5 4 4 6 3 5 6 4 4 5 4 4 4 4 5 1 2 1 5
4 6 7 6 6 6 7 5 3 5 5 3 2 2 1 3 2 1 4 5 6 9 13 12 15 12 8 8 10 8 7 7 4 7 7 3 3 2 2 4 8 9 2 2 4 4 3 2 3 3 6 7 8 9
7 5 10 9 9 7 9 8 5 3 3 1 3 2 0 2 2 3 2 8 7 11 9 6 7 9 12 12 11 10 8 8 8 8 7 5 4 3 4 7 7 5 6 7 7 9 5 2 3 5 6 5 4 4
8 11 10 10 8 4 3 4 6 4 4 2 2 3 4 3 3 5 8 10 10 10 9 9 9 11 12 11 10 10 10 11 10 6 6 6 7 8 7 7 8 8 8 5 1 3 2 5 5 5 3 3 5 4
13 9 10 10 10 10 9 7 5 2 2 2 5 1 1 4 10 11 11 10 9 8 9 12 12 12 12 11 11 10 9 11 11 11 6 5 8 10 9 9 8 7 8 10 10 8 8 4 2 4 4 2 1 2
9 9 10 10 10 9 9 8 6 1 4 4 5 3 6 2 10 9 10 11 11 11 10 10 10 10 11 11 11 10 8 9 7 2 1 2 7 9 9 8 8 7 6 4 3 6 8 7 5 4 2 2 3 3
9 10 8 8 8 9 6 4 2 3 4 3 4 1 4 3 4 7 13 12 10 10 11 11 12 12 12 12 12 13 7 8 12 9 7 6 7 9 9 9 8 7 6 6 5 5 5 4 2 3 1 2 3 1
9 9 9 8 9 9 5 5 1 3 3 3 7 8 7 7 4 4 3 9 6 7 8 11 12 8 6 7 6 8 12 8 12 16 14 11 7 11 10 10 9 7 7 6 7 5 6 4 4 1 2 4 4 1

GFSWCAN_925_spd_081.txt.gz
Wind_Speed
15 14 13 11 11 11 11 11 9 10 11 11 12 8 9 11 12 12 7 5 4 3 5 4 3 2 2 4 3 1 1 2 1 1 2 2 2 1 3 4 4 3 2 1 1 2 2 9 7 3 3 5 9 14
18 15 14 13 12 11 11 11 9 9 10 12 11 7 7 9 10 9 4 7 8 3 4 12 8 1 3 6 1 1 2 2 1 3 2 4 1 2 6 2 4 1 3 3 2 3 2 6 6 3 6 5 5 8
17 16 14 13 12 10 9 10 8 8 8 10 8 6 6 7 9 9 6 11 13 2 5 9 7 8 6 4 3 2 2 3 4 2 1 2 2 3 2 3 3 5 3 3 4 1 6 5 4 4 5 5 5 6
17 15 13 12 8 8 8 9 8 8 7 8 7 5 5 6 7 8 5 7 12 4 3 4 10 10 10 6 4 5 7 3 1 1 2 1 2 2 1 1 1 3 1 4 4 6 3 3 7 7 4 2 5 7
17 13 11 11 7 7 7 7 7 7 7 7 6 4 5 6 7 7 8 5 9 2 3 4 5 11 6 3 4 4 3 2 0 2 2 1 2 3 2 1 2 1 2 3 4 4 2 5 6 11 9 7 6 6
15 12 8 8 7 7 6 7 7 6 6 5 5 5 5 6 7 4 2 3 4 6 2 3 3 5 14 12 6 4 5 3 2 1 1 2 5 2 2 2 3 5 5 7 4 6 6 5 7 5 11 10 10 9
13 10 8 7 7 8 7 7 7 6 5 4 5 6 5 6 5 4 2 2 6 6 2 3 3 4 10 6 4 3 7 2 2 1 0 2 2 2 1 3 4 7 6 5 3 2 4 3 4 6 3 17 22 17
10 8 8 7 6 7 7 7 7 8 4 4 5 7 6 5 6 6 5 5 5 3 4 3 1 3 10 3 3 3 3 3 1 2 2 2 2 2 4 7 6 8 8 6 5 6 6 4 4 6 10 13 10 9
6 4 5 6 6 6 7 8 7 8 4 5 4 6 3 2 4 3 3 4 4 3 3 3 2 3 6 3 3 2 2 1 2 2 2 4 3 5 6 6 7 6 4 3 4 4 4 2 3 5 6 5 6 7
6 4 2 4 6 7 7 10 8 5 1 3 2 2 3 2 6 6 1 3 3 3 4 3 3 2 5 3 3 3 1 3 2 4 4 3 3 6 7 8 7 7 4 4 3 3 4 6 5 2 8 7 5 10
9 7 8 7 7 9 13 9 9 5 0 1 4 1 1 5 2 3 2 2 3 3 3 4 6 3 1 3 4 4 3 2 2 4 5 2 3 4 7 9 7 3 6 5 5 4 3 3 4 7 2 5 11 10
13 13 13 13 10 9 8 4 5 4 4 5 11 8 5 3 4 3 3 3 4 4 4 5 4 3 2 5 4 4 1 1 3 2 2 2 3 5 1 7 6 2 3 2 5 6 6 6 8 7 6 11 20 12
4 3 2 2 2 2 2 4 3 6 9 3 3 4 3 2 2 5 5 3 3 4 3 3 5 3 3 3 3 2 2 2 2 1 3 4 4 7 11 12 3 4 2 3 6 8 15 6 12 10 14 20 14 7
5 4 3 3 3 4 5 5 2 3 3 3 4 3 4 5 5 5 6 2 3 4 6 3 3 1 1 1 2 2 2 3 1 3 4 2 7 7 12 11 7 3 7 7 5 7 1 6 7 4 3 4 5 4
6 5 3 3 5 7 9 9 6 2 3 3 3 3 7 7 8 8 7 3 3 6 5 4 2 1 2 3 3 3 0 3 4 2 2 3 4 4 3 1 8 6 5 2 4 7 11 14 13 10 9 7 5 6
5 4 4 4 5 6 1 8 6 2 4 3 5 6 6 7 8 4 5 3 6 4 5 5 5 2 2 4 2 3 3 4 1 3 3 4 3 1 5 6 5 8 9 11 11 8 7 6 5 7 9 11 11 12
1 0 2 3 3 1 2 1 5 5 4 4 5 7 9 8 7 5 4 5 6 7 3 3 5 3 4 3 4 3 4 1 4 5 4 2 4 4 5 6 8 7 10 6 7 11 10 10 12 12 11 16 18 16
0 3 3 2 4 2 3 6 4 4 9 6 7 8 7 7 3 5 5 2 3 3 3 2 3 4 4 5 3 4 5 3 6 5 5 6 6 6 6 4 4 5 4 3 5 7 11 12 10 11 13 14 17 17
3 5 4 4 4 3 4 7 6 4 5 6 7 6 6 5 2 8 10 11 10 7 2 2 2 3 3 3 4 3 3 3 6 6 5 12 10 6 5 7 7 7 6 16 16 12 12 12 11 10 11 12 12 12
9 10 9 6 5 4 4 3 9 4 4 4 5 6 4 1 4 5 7 4 4 4 1 3 2 4 3 4 4 1 2 3 7 6 7 6 12 7 3 1 4 21 16 18 13 12 13 11 10 8 10 12 13 12
5 3 4 8 6 7 4 4 3 5 5 5 7 6 5 4 3 3 2 3 3 2 4 4 3 3 3 9 8 9 7 7 4 4 5 6 14 13 12 10 14 20 14 10 11 11 9 7 5 1 6 7 2 2
1 3 3 5 5 5 4 8 4 5 3 5 7 5 4 3 3 2 2 3 3 4 3 3 4 5 5 5 7 16 13 12 11 8 7 6 4 4 5 12 16 12 10 10 7 7 5 2 2 4 9 8 9 10
5 6 5 6 5 2 6 7 4 4 4 3 1 2 2 3 2 1 2 3 2 1 5 6 8 12 7 15 16 11 5 6 7 7 6 12 9 6 9 15 18 14 10 8 10 9 6 6 5 0 4 2 4 8
5 3 4 4 7 4 4 4 4 3 3 5 2 3 2 2 3 2 3 2 3 3 6 7 10 5 5 9 5 6 6 6 13 8 7 13 8 2 10 8 13 16 11 11 8 12 5 4 7 6 8 8 5 4
2 5 2 5 4 4 4 4 8 5 3 2 3 3 3 3 2 3 2 4 6 5 6 6 5 6 6 7 7 10 8 9 11 6 6 15 15 9 10 8 9 18 10 10 10 7 6 2 6 5 8 11 4 7
4 5 6 5 6 5 3 4 0 4 3 3 1 2 1 2 2 2 4 6 4 6 6 6 6 6 5 9 8 7 9 7 13 11 10 10 14 12 10 6 7 9 9 12 8 7 3 4 4 6 4 5 3 4
4 6 6 5 4 6 5 2 6 7 3 3 3 3 2 2 2 2 5 5 6 10 14 12 15 10 6 12 15 16 13 9 5 14 10 2 3 13 13 10 12 11 8 9 7 6 4 1 5 10 6 8 7 5
6 5 11 8 9 7 11 9 7 2 2 3 4 3 3 3 2 3 5 18 16 15 17 17 19 12 18 19 17 14 13 15 13 12 8 2 3 16 16 14 13 11 10 11 9 9 10 7 5 7 5 3 5 7
5 6 9 14 12 4 8 11 8 7 6 6 1 2 2 2 3 6 10 12 18 17 10 11 17 22 19 18 15 14 12 13 11 6 8 5 6 11 12 8 8 11 8 4 6 2 2 2 1 4 7 3 3 2
12 10 12 15 15 12 8 7 8 3 3 4 5 2 0 2 5 16 13 11 10 8 11 14 14 15 14 13 13 14 15 17 16 13 7 6 13 20 19 15 13 15 15 12 10 9 9 4 3 3 5 3 4 7
9 10 13 11 11 9 9 8 7 2 4 3 4 3 3 2 3 13 12 13 11 11 12 13 14 15 16 14 15 13 8 15 16 12 5 9 19 20 17 15 12 11 14 17 19 17 12 12 12 11 7 8 6 0
9 11 10 13 8 7 7 8 5 2 2 4 4 2 3 2 5 3 7 10 13 11 13 14 11 11 15 16 20 22 17 17 18 14 10 7 14 15 13 12 11 11 10 6 6 9 10 6 1 5 8 6 6 6
9 9 9 9 9 10 6 4 2 2 2 1 2 1 3 2 4 3 12 18 19 12 8 11 13 17 17 12 12 15 17 15 22 19 16 14 15 14 13 12 12 12 11 9 11 10 10 8 7 8 5 6 6 8

GFSWCAN_925_spd_084.txt.gz
Wind_Speed
19 17 14 13 14 13 13 12 11 9 7 9 10 9 8 9 11 13 4 5 5 1 5 5 4 3 4 3 5 4 4 5 4 4 3 2 2 3 3 2 2 2 3 1 2 2 4 4 5 4 4 4 5 6
20 17 17 16 14 13 13 11 10 8 7 7 9 7 6 7 8 9 3 10 8 3 5 8 7 1 9 4 5 2 6 4 4 4 1 3 2 2 4 1 0 1 5 4 5 5 6 4 5 4 5 5 3 10
20 18 16 16 15 14 10 10 8 8 7 5 7 7 6 5 6 8 5 10 5 3 4 4 4 5 5 2 4 4 3 3 2 4 4 3 2 4 3 5 3 2 3 3 4 3 3 3 3 4 4 7 8 8
22 18 15 14 14 11 9 7 6 7 6 5 6 6 5 6 7 6 4 6 3 1 2 5 4 12 10 3 11 10 7 5 5 3 2 2 2 2 3 4 4 5 3 4 2 5 1 3 4 7 5 6 7 7
21 16 13 12 13 9 7 6 6 7 7 4 4 5 5 5 7 7 7 2 6 3 2 4 12 8 12 5 10 14 11 4 3 3 3 0 1 3 2 2 2 3 5 4 5 6 5 5 2 3 9 8 8 8
16 13 11 10 8 6 6 7 6 6 6 5 3 4 5 5 6 3 3 2 6 3 3 3 3 4 8 11 9 6 6 3 3 3 2 0 2 3 2 2 5 1 3 6 4 5 5 6 5 3 7 7 9 11
12 11 9 9 6 7 7 7 5 6 4 5 5 5 5 5 4 2 3 0 5 4 2 4 4 3 12 6 2 1 2 2 3 2 1 3 1 3 3 4 6 5 1 4 5 5 2 2 4 2 3 15 20 21
10 8 7 8 7 6 7 5 6 6 5 3 5 6 5 4 4 3 2 5 2 1 2 1 4 3 5 1 0 1 2 3 2 3 2 3 2 2 3 7 5 5 4 3 5 6 6 4 4 5 9 12 9 10
9 6 4 6 6 5 5 6 6 7 6 2 5 5 1 1 1 2 3 1 1 1 2 1 3 4 1 2 2 3 3 1 1 2 3 4 2 4 7 7 6 6 4 6 3 1 5 5 4 2 2 4 10 7
10 8 3 2 4 5 5 5 7 5 2 1 2 1 2 2 4 6 1 2 4 1 1 2 1 3 4 1 2 2 2 2 1 4 3 2 3 6 8 8 6 6 7 6 3 4 2 3 4 1 3 3 1 12
13 9 6 5 5 7 10 6 7 7 0 2 3 1 3 4 2 1 1 2 1 1 3 4 5 2 2 3 3 2 1 2 1 4 4 2 3 3 4 7 7 5 6 8 7 6 6 6 6 6 5 4 5 6
10 10 9 8 8 9 7 2 3 4 2 4 8 7 3 1 1 2 3 2 3 4 3 4 4 4 1 3 3 2 3 1 3 2 2 2 3 5 4 3 5 5 8 6 7 7 7 7 10 8 8 5 4 5
4 4 3 2 1 2 0 3 5 4 5 2 1 2 3 2 2 5 4 3 2 3 3 1 3 3 3 3 3 2 2 3 2 1 2 4 2 5 2 5 6 8 5 11 7 6 3 4 7 8 8 9 9 13
3 5 5 4 4 3 3 3 3 3 2 0 2 3 4 4 5 5 5 4 3 2 1 2 3 2 2 3 2 3 1 1 2 2 4 2 5 5 3 4 5 6 6 6 6 7 2 3 6 7 9 11 10 15
6 6 4 3 4 6 7 7 4 1 1 2 2 4 6 5 3 4 6 4 2 3 2 3 3 2 3 4 2 3 2 3 4 4 3 3 6 5 2 1 4 5 6 7 11 8 7 7 5 4 6 7 6 3
7 6 3 3 4 5 2 6 5 1 3 3 4 3 3 1 4 3 1 3 4 5 4 3 3 2 2 4 3 5 3 6 4 3 3 5 5 4 5 5 7 12 10 8 6 6 6 7 7 6 7 9 10 10
5 1 0 2 2 1 3 2 3 3 4 4 4 4 4 4 5 5 2 4 9 4 1 3 4 5 4 3 4 4 5 4 4 4 3 4 5 7 5 8 10 11 8 5 7 7 9 8 7 11 12 15 17 17
1 1 2 3 2 2 1 5 3 4 6 5 3 5 3 4 3 3 1 3 4 5 6 6 5 4 5 6 4 4 4 3 4 5 5 4 7 11 11 7 9 11 8 7 13 11 10 9 9 7 8 10 14 16
6 5 4 3 3 2 2 5 5 3 5 4 4 4 3 2 1 2 2 1 3 3 4 2 3 3 4 4 4 4 4 4 5 4 4 9 11 9 10 8 3 14 15 14 13 12 9 8 6 4 5 7 12 15
10 11 9 7 4 2 3 3 8 3 4 3 2 3 3 3 3 3 2 2 2 2 2 4 4 4 4 4 4 3 3 7 7 5 3 3 11 12 6 19 19 20 18 18 14 12 14 9 4 4 6 4 4 6
5 3 5 8 5 6 3 3 3 4 4 3 3 1 2 2 1 1 1 1 2 2 3 4 4 3 3 5 11 10 9 15 8 7 8 4 14 13 15 23 22 16 14 12 12 11 8 7 2 4 7 8 7 5
1 2 1 6 4 5 4 8 3 4 2 4 4 3 3 2 2 1 2 1 3 3 3 3 3 4 4 5 7 17 17 15 13 16 18 15 3 4 14 20 21 13 17 15 14 11 9 6 6 6 8 6 8 9
3 4 3 6 4 2 6 4 3 3 3 3 2 2 3 2 0 1 1 2 3 2 2 4 7 14 11 18 19 16 17 17 10 12 16 19 16 22 22 25 24 19 13 12 12 12 9 6 4 5 2 6 4 7
3 2 3 3 5 4 3 3 4 3 3 2 1 3 2 3 2 1 2 3 3 2 2 4 9 4 4 8 4 4 8 15 14 18 20 16 9 17 26 26 22 20 18 15 16 11 10 11 11 8 4 4 3 4
2 5 4 5 4 4 4 3 4 2 3 3 3 3 3 3 3 4 3 3 3 3 4 5 4 4 4 3 3 8 13 21 15 5 14 17 14 14 18 25 23 21 20 16 15 15 11 6 11 10 5 4 3 5
3 4 7 4 4 4 4 1 2 2 3 5 5 3 3 3 2 3 3 5 4 5 7 5 5 4 3 7 5 4 13 16 17 11 19 22 21 19 13 8 8 15 19 17 15 12 11 11 10 8 3 4 2 3
3 5 5 5 3 2 3 3 3 2 4 3 3 3 2 3 3 3 1 3 4 8 20 23 21 12 7 14 24 18 15 15 26 22 15 8 11 20 25 20 17 18 19 18 15 11 9 8 15 9 7 7 7 5
5 4 5 4 4 3 4 3 2 4 4 3 4 4 3 4 3 4 4 11 17 19 19 16 18 14 22 29 25 22 18 15 21 17 17 18 18 18 22 21 19 21 19 16 15 13 10 11 11 10 8 6 8 8
4 4 2 6 4 4 5 6 5 4 3 4 3 3 3 2 2 2 8 22 21 21 13 7 14 27 27 27 27 27 24 23 18 7 7 5 5 15 20 19 18 14 11 12 11 9 9 10 11 11 9 7 5 2
5 5 3 3 2 4 4 3 4 4 2 3 3 3 4 4 8 11 21 22 16 11 20 22 26 26 20 21 21 22 20 19 21 20 7 6 15 24 21 17 19 15 11 14 11 9 9 8 8 8 5 4 10 7
3 2 4 5 5 6 10 5 1 3 3 2 2 4 3 2 4 15 10 11 18 26 22 17 18 23 23 22 21 15 11 26 26 25 23 24 21 29 24 20 22 21 19 18 15 14 13 12 11 10 8 9 11 10
4 6 4 6 10 10 5 3 3 3 3 2 2 1 3 3 3 4 17 12 5 10 24 25 20 21 31 33 33 30 29 30 32 25 19 17 21 31 26 21 21 24 27 25 22 19 18 18 18 17 17 14 15 12
5 6 6 3 3 4 4 1 3 3 3 2 2 2 1 3 2 0 7 16 19 15 16 9 12 9 30 31 32 33 27 22 27 27 19 18 23 25 24 21 18 15 18 15 14 16 22 22 17 14 17 18 16 16

GFSWCAN_925_spd_087.txt.gz
Wind_Speed
19 20 19 18 19 16 15 12 11 9 8 8 8 8 7 8 9 8 3 7 3 2 5 2 3 3 3 3 5 3 4 4 3 4 3 2 2 3 2 3 3 3 4 2 2 3 3 2 5 1 4 2 0 6
18 19 19 18 18 18 15 13 10 7 7 6 7 7 5 6 8 6 0 5 5 3 4 4 5 3 5 9 6 2 4 3 4 4 1 3 1 2 2 2 2 1 5 4 5 5 5 4 3 2 2 3 2 6
21 21 20 18 16 16 14 11 8 6 7 7 6 5 4 5 6 6 3 9 2 3 4 4 2 4 5 4 5 4 2 4 2 4 4 3 2 4 3 4 1 2 3 3 4 3 4 3 1 1 3 4 6 9
22 21 21 17 14 13 13 10 5 6 7 7 5 3 2 3 5 6 2 5 3 3 2 5 7 2 6 8 9 7 9 5 6 3 3 3 3 3 4 3 4 5 4 4 2 4 4 3 3 5 4 5 6 7
18 17 16 13 11 11 10 7 6 6 7 7 5 3 3 2 4 6 0 1 2 3 3 4 14 2 7 13 14 13 13 4 2 2 2 2 2 3 1 2 2 4 6 4 5 6 5 5 3 3 6 8 9 8
15 14 13 10 8 6 6 6 6 7 7 6 5 3 3 3 2 1 3 2 4 3 3 1 4 2 4 13 14 9 6 3 3 3 2 1 2 3 2 2 5 4 4 6 4 6 5 2 4 2 5 7 7 10
12 11 9 7 6 5 5 6 5 6 6 5 4 3 4 4 2 2 3 3 2 1 2 3 4 3 5 4 3 2 3 2 3 2 1 3 1 3 3 3 5 7 5 5 4 6 1 3 3 5 2 5 11 17
11 8 6 4 5 4 5 4 4 6 5 4 4 4 5 5 2 1 1 4 1 3 3 1 3 2 3 1 0 2 2 3 3 2 1 2 1 2 3 6 4 4 3 1 6 6 4 2 2 5 5 4 3 6
10 8 4 2 4 4 4 4 5 5 4 4 6 4 2 1 1 3 4 2 1 2 2 2 4 4 1 2 2 3 2 1 1 2 2 3 0 4 7 6 5 6 6 6 4 4 3 4 6 4 2 1 3 6
11 9 7 4 3 4 5 5 4 4 4 3 3 1 1 2 3 6 1 2 3 3 2 2 1 3 4 1 1 2 1 1 1 3 2 2 3 6 6 7 5 6 6 6 5 3 1 1 4 3 4 4 5 4
14 11 9 7 5 6 7 6 4 3 1 1 1 2 2 1 1 2 1 2 0 1 2 3 5 2 3 3 3 1 2 1 1 3 2 2 3 4 5 6 6 6 6 7 5 3 5 5 5 5 6 6 5 6
6 7 8 8 8 7 7 6 3 1 2 2 4 4 2 1 2 2 2 1 3 4 2 3 4 4 1 3 3 2 3 1 3 2 1 2 4 5 5 1 4 5 6 6 7 6 6 6 5 6 7 6 7 9
4 5 4 2 1 1 2 1 3 4 2 1 1 2 2 1 2 4 4 3 2 3 2 2 2 3 2 3 3 2 2 4 1 2 3 4 2 4 2 3 3 4 6 6 4 4 6 3 3 6 7 8 9 10
6 5 6 3 3 3 3 2 2 2 1 2 2 2 4 3 4 4 4 4 4 3 3 2 2 3 2 3 2 4 2 1 2 3 5 3 4 3 1 3 6 6 7 7 7 5 3 4 3 3 6 7 9 12
6 6 7 5 2 5 5 5 4 1 1 2 2 3 5 4 4 3 4 1 2 4 3 3 3 3 2 3 1 2 2 3 4 4 3 3 4 4 3 3 6 6 6 6 8 6 6 6 7 8 12 12 12 11
5 5 4 3 2 5 2 6 4 2 1 2 3 3 3 1 3 1 3 5 4 4 2 2 3 3 2 4 3 5 4 5 4 4 3 4 4 3 3 5 7 10 11 9 6 6 6 7 8 6 8 12 14 14
4 1 1 1 1 0 3 2 2 2 3 3 4 3 3 3 5 3 3 2 6 3 3 3 4 5 3 2 3 4 5 4 4 3 3 6 7 7 7 9 11 11 9 9 9 7 6 6 6 8 10 12 14 15
1 1 2 2 2 2 2 4 2 3 5 4 3 4 3 3 3 4 2 5 4 4 4 4 4 3 5 6 4 4 4 2 1 4 4 4 6 11 15 12 12 10 10 10 9 8 6 4 6 6 6 6 10 22
6 4 2 2 2 2 2 4 4 3 6 3 4 2 3 3 3 2 3 5 1 2 4 3 3 4 4 4 5 4 4 4 4 4 3 8 16 16 12 9 10 9 10 13 10 7 7 9 7 3 1 1 7 18
9 11 10 6 2 2 3 3 5 3 3 3 2 2 3 3 2 2 2 1 1 3 2 3 5 4 5 4 5 4 4 5 6 3 3 3 10 10 10 10 13 13 14 12 9 10 10 6 4 2 1 5 5 4
3 3 5 9 4 5 3 3 3 3 3 2 2 3 2 1 1 3 3 3 2 3 3 4 4 3 3 4 12 9 9 13 8 5 7 5 9 13 11 14 17 16 16 13 11 11 9 8 3 2 5 10 9 8
0 3 1 6 4 4 3 7 3 4 2 3 3 3 2 2 3 3 3 2 3 4 4 3 3 3 3 5 6 15 20 18 16 11 13 21 5 5 10 21 18 13 15 16 16 15 12 10 8 7 6 5 8 5
2 3 3 6 3 3 6 2 2 3 2 3 2 2 1 1 2 2 2 3 3 4 5 3 3 5 7 10 16 14 19 22 10 13 15 15 20 20 20 24 20 18 13 14 14 12 11 8 6 5 5 4 3 6
3 3 3 3 5 4 1 3 3 3 3 2 1 0 2 2 2 1 3 3 3 2 2 4 8 5 5 6 4 5 12 19 16 14 19 18 13 16 24 27 24 22 23 17 15 14 12 11 8 7 6 5 2 4
1 4 3 4 3 3 4 3 3 2 3 2 3 3 3 2 2 3 3 2 3 3 3 4 3 5 4 3 2 6 15 21 15 4 18 22 21 15 16 19 24 23 17 15 14 15 13 11 10 10 8 7 6 5
4 4 7 4 3 4 3 3 3 3 2 3 3 2 2 3 2 4 3 3 3 4 5 7 6 3 2 5 5 4 14 20 25 14 19 19 25 22 15 8 9 19 21 20 18 18 17 12 9 10 10 7 3 4
3 5 4 4 2 2 3 1 2 3 4 4 3 3 2 2 4 3 2 3 3 9 18 19 20 11 9 12 13 15 15 21 23 24 21 24 25 27 28 23 19 27 24 25 21 18 16 15 16 12 7 6 8 8
5 3 5 2 3 3 3 3 3 3 3 1 3 3 2 3 3 3 4 6 9 17 20 22 23 22 22 21 20 18 16 17 14 15 15 13 15 20 25 25 22 23 21 23 19 18 15 14 16 16 12 9 7 7
3 3 1 4 4 4 5 6 5 4 3 3 4 4 4 3 2 2 3 10 16 21 17 13 11 15 16 15 19 21 22 26 20 8 7 4 2 7 12 18 22 22 21 20 18 16 14 17 16 15 13 12 11 8
5 4 3 4 4 5 5 5 4 3 3 3 2 2 1 2 5 5 10 18 17 14 21 21 20 20 15 18 17 20 25 28 29 21 8 8 16 24 25 25 24 23 22 20 18 15 13 12 12 14 13 11 11 10
1 2 3 4 4 5 6 2 3 1 1 2 3 2 1 1 5 17 15 5 10 16 17 14 16 19 21 18 17 14 10 26 25 22 22 24 24 24 27 24 22 20 19 20 19 17 16 14 14 15 14 12 10 12
4 7 4 4 4 5 1 3 3 4 2 2 2 2 3 3 3 4 18 12 11 6 8 17 20 21 30 33 34 32 28 25 27 24 22 23 23 23 29 24 22 24 22 21 19 19 19 17 16 16 15 15 14 14
4 4 4 3 3 3 1 3 2 3 3 2 2 2 2 3 3 2 4 18 20 14 17 20 7 3 10 20 22 29 30 26 23 26 26 24 23 23 28 31 28 27 26 25 24 23 22 20 20 19 19 21 23 23

GFSWCAN_925_spd_090.txt.gz
Wind_Speed
21 19 18 18 17 15 15 14 12 10 9 9 7 8 7 8 8 6 2 4 2 2 4 3 3 5 3 2 4 3 4 4 3 4 3 2 2 2 3 1 1 3 4 2 2 3 4 2 3 1 5 2 2 6
20 21 21 19 17 15 13 15 11 8 7 8 7 7 5 7 8 6 1 5 4 2 4 3 5 3 4 10 6 1 4 3 4 4 1 3 2 1 3 2 2 1 5 4 6 5 5 4 2 1 4 3 3 5
22 23 23 19 16 14 12 12 9 5 6 7 5 5 4 5 6 5 2 7 1 3 4 3 0 1 2 6 5 5 2 3 2 3 4 2 2 4 3 5 2 2 3 3 3 3 4 3 2 2 1 1 2 4
23 22 18 16 14 12 10 11 8 6 6 6 4 3 2 3 4 4 1 3 2 3 2 4 4 1 2 7 5 3 10 6 7 3 3 3 2 3 3 2 3 4 5 4 3 5 4 5 4 2 1 3 3 4
21 19 16 14 11 9 8 9 6 7 7 6 5 2 2 3 4 4 2 1 2 1 3 4 6 3 4 10 13 14 16 5 2 2 2 2 2 3 1 1 3 5 6 5 5 7 6 6 2 2 5 5 7 7
18 16 13 12 9 7 6 6 6 8 9 7 4 2 2 1 3 2 4 3 2 2 2 1 3 2 4 10 14 10 6 3 3 3 2 1 2 3 3 3 6 4 4 6 5 4 5 1 3 3 4 5 4 4
16 14 11 9 8 7 7 5 6 8 8 5 4 3 2 2 1 3 3 2 0 0 2 3 3 3 5 4 3 3 5 2 3 2 1 3 1 3 3 3 5 6 6 5 3 6 1 2 2 4 4 3 2 12
15 13 10 7 6 5 6 6 7 8 6 4 4 4 4 2 2 2 2 4 2 2 3 1 3 2 3 1 2 2 2 2 4 2 1 2 1 1 3 7 5 3 3 2 7 3 4 4 2 0 2 2 1 3
13 12 9 3 3 4 4 5 6 6 6 4 3 3 2 1 2 2 6 4 2 1 2 1 4 4 2 2 2 3 2 2 1 1 1 3 0 3 6 6 5 6 6 5 5 5 4 3 2 4 2 2 2 4
13 11 8 4 1 4 4 4 3 4 5 2 2 2 1 1 6 5 2 2 3 3 2 2 1 1 3 1 1 2 1 2 0 2 1 1 3 6 6 6 4 4 7 6 6 5 4 2 4 3 3 2 2 3
9 11 11 6 4 4 5 4 3 3 2 2 1 1 1 4 3 2 2 1 0 2 2 3 4 3 2 3 3 1 2 1 1 3 2 2 3 4 2 4 6 6 7 7 4 4 5 5 3 3 3 5 5 6
5 6 5 5 5 4 4 5 3 2 1 1 2 1 1 2 3 2 2 1 3 4 2 3 4 3 1 2 3 1 2 1 2 2 1 3 4 4 3 4 0 5 7 3 6 5 6 6 5 5 4 4 6 6
6 5 5 4 3 1 1 2 4 3 2 3 3 0 2 1 2 5 5 3 2 3 4 3 2 3 2 3 3 2 3 3 1 2 3 5 3 2 1 2 3 3 5 8 6 5 5 5 3 0 4 4 2 4
8 7 5 5 4 3 3 3 2 1 1 3 3 0 4 3 4 5 4 4 4 3 4 3 3 3 2 3 2 3 0 2 2 3 5 3 4 3 3 1 4 5 6 7 8 8 7 7 12 14 12 10 7 8
6 6 7 6 4 4 5 4 3 1 1 2 2 3 5 4 3 3 3 0 2 3 3 3 3 3 2 3 1 3 3 3 4 4 3 3 3 5 5 4 6 6 6 6 8 10 9 9 11 10 9 9 10 11
7 6 4 3 2 4 2 4 3 1 0 2 3 2 3 1 3 1 3 3 4 4 3 3 3 3 2 4 3 5 5 6 4 3 3 4 6 5 5 6 7 10 10 9 8 9 9 9 8 6 7 12 15 17
3 1 2 2 1 0 3 1 1 1 2 3 4 3 2 2 4 4 3 2 6 3 3 3 4 5 3 2 3 4 5 4 4 3 2 5 7 7 7 10 11 11 10 8 9 8 9 7 6 8 9 9 15 19
2 2 2 2 2 0 1 3 2 2 4 4 3 3 3 3 2 3 2 3 4 3 4 4 4 3 5 5 4 4 4 2 1 3 4 4 6 12 15 12 12 10 9 9 9 8 6 5 9 5 5 6 11 17
4 5 1 1 2 1 1 3 3 3 5 2 3 2 2 3 3 2 2 4 3 3 4 2 3 4 4 4 5 3 4 3 4 4 3 7 14 16 14 13 12 9 10 11 11 8 8 8 6 3 2 4 8 12
6 8 7 5 2 1 2 2 4 3 3 3 2 2 3 3 1 1 3 3 3 3 2 3 5 4 4 4 4 4 4 5 6 4 3 3 12 16 15 16 14 11 11 11 10 12 11 7 5 2 4 6 9 14
1 1 3 8 4 3 2 2 3 3 3 2 2 2 3 1 1 2 3 3 2 3 4 4 4 3 3 2 7 8 9 12 7 5 6 4 10 14 12 10 12 14 12 12 12 11 10 8 5 3 7 9 9 10
2 4 3 6 3 3 3 6 3 3 1 3 3 2 2 2 2 3 3 2 3 4 4 4 3 3 3 3 5 15 17 15 14 14 16 21 5 5 8 17 17 11 12 14 16 15 13 10 6 6 7 8 9 7
3 3 2 3 3 3 5 3 2 2 2 3 1 2 2 1 2 2 2 3 4 4 5 4 3 4 4 5 8 7 14 20 10 12 15 18 20 19 19 21 17 16 12 12 14 15 11 6 7 6 5 5 4 6
3 1 3 3 5 4 1 2 3 3 2 2 2 2 1 2 2 1 3 3 3 2 3 5 6 4 4 5 2 5 12 17 12 14 20 20 11 15 23 25 22 18 16 14 15 13 10 9 7 6 5 5 5 4
1 4 4 3 2 3 3 3 4 2 3 3 2 2 2 2 2 3 3 3 2 3 3 4 3 5 5 3 2 6 12 17 14 5 20 23 18 15 14 19 22 19 16 14 14 14 12 10 8 7 7 6 7 6
2 4 6 4 2 3 3 2 2 2 1 2 2 2 2 2 2 5 3 3 3 4 4 7 7 4 2 4 5 4 14 18 18 11 19 26 26 21 15 8 8 17 20 20 17 16 14 12 9 8 7 7 5 4
3 4 4 3 2 2 3 3 2 2 5 3 2 3 3 3 4 3 2 3 3 8 18 19 18 10 9 11 13 16 21 22 24 22 23 24 25 24 26 22 17 28 25 24 22 19 16 14 14 12 10 10 11 11
5 2 5 2 3 3 2 3 2 3 4 2 3 3 3 3 3 3 4 3 6 11 20 22 21 20 22 23 18 18 16 20 19 14 10 18 20 21 22 23 23 21 22 24 23 21 19 16 14 14 15 13 9 8
3 3 2 3 3 4 5 5 4 3 3 3 2 3 3 2 1 3 4 3 10 19 16 14 14 14 15 16 17 20 20 25 17 6 8 5 4 14 20 21 22 19 17 22 22 20 18 17 16 15 17 15 11 9
4 4 3 3 3 4 4 5 3 2 1 2 1 2 2 3 7 11 6 3 9 9 15 18 22 21 15 15 12 15 20 24 25 15 7 6 13 15 14 12 12 14 18 21 19 18 15 14 14 14 14 13 12 12
2 3 2 3 4 4 5 3 3 2 1 2 1 1 0 1 2 13 15 8 2 4 9 9 14 18 16 14 13 10 7 21 22 21 16 16 19 17 16 15 13 14 16 19 19 17 16 14 14 13 14 14 14 13
4 6 3 3 4 4 2 3 1 1 1 2 3 2 3 3 3 4 16 10 6 5 11 8 8 6 3 1 3 6 8 19 19 18 16 15 16 18 19 19 19 19 20 19 18 18 17 16 16 16 16 17 17 16
2 2 3 2 3 3 1 2 1 2 3 2 3 2 2 2 3 2 5 10 10 6 13 23 20 19 13 7 17 13 12 13 16 19 18 16 14 15 17 22 25 23 23 21 20 20 19 19 18 17 17 18 19 19

GFSWCAN_925_spd_093.txt.gz
Wind_Speed
21 20 19 20 19 16 16 15 16 16 12 8 7 5 6 5 5 2 2 1 1 1 1 4 4 4 3 2 3 3 3 2 2 2 2 2 2 2 2 1 2 3 3 2 2 2 5 4 1 2 3 2 3 6
19 20 21 22 21 17 15 14 15 15 9 7 7 5 5 5 6 3 2 2 2 2 1 3 4 2 2 4 4 2 1 2 2 3 2 3 2 3 2 3 2 3 2 1 4 1 1 2 2 1 1 3 3 4
20 21 21 19 17 15 14 13 13 13 9 7 7 5 4 5 5 3 2 2 0 1 1 2 3 2 2 5 5 3 2 3 3 2 3 2 1 3 3 3 3 3 2 2 3 4 4 3 3 3 2 2 3 1
21 21 18 17 15 12 12 11 12 11 8 7 6 6 4 4 5 3 1 0 2 2 1 2 3 1 1 5 4 2 8 7 6 1 2 2 2 3 2 1 3 1 8 5 3 5 4 7 6 2 3 1 3 5
20 18 16 14 13 10 10 10 11 9 8 7 6 5 4 4 4 4 3 1 1 2 1 1 4 3 1 5 9 11 14 6 2 2 1 2 2 3 1 1 3 6 5 5 4 6 6 2 3 5 4 3 1 4
17 16 15 12 10 8 8 8 7 9 8 7 6 5 4 3 2 2 1 4 2 2 2 2 3 1 5 10 13 10 7 3 2 1 2 2 1 2 3 3 4 7 6 4 2 3 4 2 3 3 4 3 3 4
15 15 13 10 7 7 8 8 6 8 8 8 6 6 5 4 3 2 1 2 4 3 1 2 2 2 5 4 3 2 4 3 1 2 2 2 2 2 2 3 2 4 7 6 3 6 4 5 3 5 6 5 2 2
14 13 12 8 5 5 6 8 8 8 8 7 5 5 4 4 4 3 4 5 4 2 0 1 1 3 1 2 3 1 2 1 3 2 2 2 3 1 4 8 4 1 4 5 8 4 0 7 6 6 4 3 2 0
12 11 11 7 2 3 4 5 5 6 6 5 3 3 2 3 3 3 7 6 3 1 1 1 3 3 1 2 2 2 0 2 1 2 1 2 2 4 6 6 6 7 6 3 7 7 3 4 6 3 1 1 1 1
9 13 11 7 3 0 2 3 4 5 5 3 2 3 2 2 7 7 2 1 1 1 0 2 1 3 1 1 2 3 1 2 2 1 2 2 3 7 7 5 3 4 7 6 8 7 7 5 3 3 3 2 1 1
6 7 10 10 5 2 3 2 0 2 4 3 3 1 3 6 3 1 2 2 1 3 3 1 4 3 1 2 3 1 2 1 2 2 2 2 3 2 1 1 5 7 7 8 4 6 6 6 6 5 4 2 2 3
5 4 5 5 4 3 3 5 3 3 3 3 2 3 2 2 2 2 2 1 4 3 4 3 3 1 3 1 2 1 2 2 1 3 2 3 3 2 2 1 1 7 9 9 6 7 7 7 6 5 3 0 2 2
7 5 4 4 3 1 0 4 4 4 4 2 2 2 1 1 2 5 6 3 3 4 5 4 4 2 2 1 3 2 3 2 3 2 3 4 1 2 1 3 7 7 8 8 9 8 8 7 6 5 3 3 3 3
6 7 6 5 3 4 4 2 1 3 2 0 2 1 3 4 4 4 4 3 2 2 6 4 3 2 2 2 2 3 2 2 2 3 5 2 4 5 4 4 7 8 9 11 12 12 11 11 11 11 8 7 8 7
6 5 6 6 4 4 5 5 5 5 4 3 3 4 6 3 2 1 3 0 2 4 5 4 3 2 2 3 1 3 4 4 4 4 2 3 5 7 6 6 8 9 9 10 12 11 11 10 9 8 7 8 9 8
5 3 4 5 2 3 3 5 5 3 2 2 3 3 3 2 2 3 4 3 5 5 3 1 3 3 2 4 4 5 4 6 3 3 3 4 7 8 8 8 9 11 11 11 11 11 10 9 7 7 7 7 8 8
2 3 5 4 3 3 2 1 3 3 2 2 3 3 3 3 3 2 3 1 7 6 3 2 5 3 4 3 4 4 4 3 3 4 4 7 10 10 9 11 11 11 11 11 11 9 9 7 7 8 7 6 7 8
2 4 4 4 3 3 2 4 2 2 4 4 4 2 3 3 2 2 2 4 5 3 4 4 5 4 4 5 4 4 5 3 2 3 6 8 9 11 14 14 12 11 11 10 9 9 7 7 10 8 5 2 4 6
5 6 4 3 1 1 2 3 3 2 4 2 3 3 2 3 4 2 3 6 2 2 4 3 3 4 4 4 5 4 3 5 5 5 6 11 13 15 14 12 12 10 11 11 10 7 6 9 7 6 2 2 4 5
6 6 6 2 1 1 2 2 3 2 3 1 3 3 3 2 1 2 4 5 5 3 3 4 5 4 4 3 3 4 3 6 8 8 7 6 12 15 15 15 12 11 10 9 8 9 10 8 7 4 1 3 5 6
4 4 4 7 4 3 1 2 3 3 3 3 1 2 2 2 3 4 3 5 3 3 4 4 4 5 5 3 3 5 7 13 10 9 11 9 14 14 13 11 11 10 9 10 9 9 9 9 6 3 1 2 4 5
3 5 3 5 2 2 2 5 3 3 3 3 2 3 3 3 3 3 5 4 4 4 5 5 4 4 5 5 6 11 9 15 12 11 15 21 9 9 11 12 11 10 10 10 10 12 11 8 5 3 2 3 3 4
5 4 2 2 3 3 4 3 3 3 3 2 1 3 3 2 1 4 3 3 4 5 6 5 4 5 5 6 7 8 13 17 12 11 15 16 16 15 13 14 12 12 10 9 11 10 9 8 6 4 2 2 3 2
3 2 3 3 5 3 2 3 3 3 3 3 3 3 2 2 3 2 4 3 3 2 5 7 7 4 3 6 6 7 13 15 11 10 14 16 13 13 15 15 13 10 9 11 12 11 10 8 7 5 5 5 4 3
1 2 2 3 2 3 4 3 4 3 3 3 3 1 1 2 2 2 3 3 2 4 4 6 6 5 5 6 5 8 11 15 14 9 13 16 16 14 11 10 11 10 10 12 12 12 10 9 8 6 6 5 2 1
3 4 6 4 2 3 2 2 3 5 2 0 2 2 1 1 2 4 2 2 2 3 6 7 7 6 5 7 7 6 11 12 12 10 14 18 19 18 14 10 11 11 14 14 13 13 11 10 8 7 5 6 4 2
2 3 3 2 2 3 4 4 4 1 3 0 2 3 4 3 3 2 2 2 2 3 7 10 11 8 7 9 7 7 12 14 8 6 11 20 17 17 19 18 16 19 21 20 17 15 14 12 10 9 7 5 5 6
4 2 4 3 3 3 3 3 1 4 4 3 3 4 2 2 1 2 2 4 2 2 5 6 6 7 7 9 10 11 10 10 8 6 8 8 9 13 15 12 13 16 19 22 20 16 15 13 10 8 8 7 5 4
3 2 3 4 4 3 4 4 3 2 1 1 3 2 1 1 3 3 3 6 1 4 5 7 5 6 5 7 8 9 11 15 13 10 10 7 6 12 18 16 16 16 15 16 23 21 18 15 12 9 8 9 7 5
4 5 3 3 4 5 4 4 2 1 1 2 2 2 1 1 2 6 6 3 5 8 10 9 10 12 11 13 11 10 11 13 15 13 8 8 13 14 16 19 19 17 15 14 14 18 21 15 13 10 8 9 9 8
1 4 4 4 4 5 8 7 7 6 2 1 1 2 1 1 0 6 11 8 4 5 8 10 10 1 5 5 6 3 3 11 16 15 13 9 8 13 16 15 13 11 12 13 15 15 15 14 12 11 10 11 11 11
4 6 3 3 3 3 4 3 2 0 1 1 3 3 2 3 3 4 12 10 4 2 4 7 15 8 10 11 10 7 4 3 11 17 12 6 6 11 14 13 13 12 10 10 12 13 14 13 11 11 10 11 11 12
4 4 5 4 3 3 2 1 2 2 3 2 3 4 4 4 4 3 5 11 8 11 14 14 13 11 11 16 18 13 8 7 7 3 9 9 8 10 13 15 17 16 14 13 14 13 13 13 12 11 12 12 12 12

GFSWCAN_925_spd_096.txt.gz
Wind_Speed
16 16 17 18 18 20 19 17 15 14 14 13 11 9 9 5 5 3 1 2 4 3 5 5 3 4 4 4 4 6 5 5 4 3 2 2 3 2 3 2 4 3 3 4 2 4 4 3 4 4 5 5 5 2
15 16 17 19 18 18 16 15 14 13 13 10 7 8 9 6 4 2 4 3 3 5 5 1 2 2 2 4 2 4 4 1 3 1 1 2 3 3 4 3 3 3 2 1 3 3 5 4 8 5 4 5 6 4
17 17 18 18 15 16 14 13 12 11 11 8 6 7 8 6 5 2 3 3 3 4 4 5 8 4 3 3 4 4 3 2 3 3 1 1 2 2 4 4 3 4 3 3 3 8 5 5 4 4 3 5 5 5
15 17 17 16 13 14 12 11 10 8 10 7 6 7 8 7 5 2 3 3 4 4 4 7 5 5 1 3 3 4 7 4 5 3 3 3 3 2 1 2 5 2 7 7 6 3 3 6 4 4 4 3 4 4
17 16 15 14 13 12 11 9 8 7 6 7 6 7 7 6 4 3 5 4 4 6 3 5 7 3 4 5 4 4 8 6 5 4 4 3 1 4 2 3 7 8 7 7 4 3 6 1 7 7 5 4 3 4
15 14 14 13 12 11 9 9 7 4 6 7 6 7 7 5 3 3 4 6 5 4 4 5 4 5 6 9 9 8 4 2 2 3 1 2 2 3 3 3 5 7 7 7 6 2 4 3 4 5 5 4 4 3
15 14 13 12 10 8 8 8 4 5 6 7 6 6 5 5 3 5 3 3 4 3 3 4 5 4 10 11 5 4 3 2 3 1 3 2 4 4 4 5 3 5 6 6 4 5 5 7 5 5 6 5 4 1
13 14 13 12 8 6 6 5 5 6 6 7 6 5 4 4 3 5 2 4 3 5 4 3 3 6 10 6 5 3 4 4 3 1 2 4 3 3 4 7 3 3 4 7 8 6 2 8 8 8 7 4 2 2
10 13 12 10 5 3 2 2 3 4 5 6 4 3 2 3 5 4 3 5 5 5 2 3 5 5 6 3 3 4 3 4 2 3 2 2 4 5 7 5 4 6 6 7 8 7 7 10 9 8 5 3 3 1
7 8 11 9 4 1 3 3 3 4 5 6 3 4 4 5 5 10 3 4 4 4 3 4 2 4 7 7 5 5 3 2 3 2 3 4 5 10 8 4 1 5 6 6 9 11 9 8 8 5 3 2 0 1
6 6 6 7 5 1 3 4 2 4 7 3 4 1 4 10 5 4 4 4 4 4 4 3 6 6 3 8 6 3 3 3 3 4 3 3 3 2 2 3 7 7 6 7 5 7 11 9 6 5 5 5 3 2
8 6 5 5 4 2 3 5 5 5 3 3 2 2 5 4 3 4 5 4 5 5 5 6 7 2 4 1 2 4 3 4 3 4 3 2 3 3 3 2 3 5 8 9 9 10 10 9 7 6 5 3 1 0
8 8 7 5 3 2 3 5 6 7 5 2 4 3 1 1 1 6 7 4 4 6 7 7 9 5 4 4 3 4 6 3 3 3 3 5 3 4 3 3 6 9 10 13 10 10 10 10 7 5 5 2 1 1
7 7 8 6 4 3 2 2 4 6 3 1 2 1 4 5 6 5 5 4 3 4 8 8 7 4 3 5 3 4 2 4 3 4 4 2 6 7 6 5 8 10 9 10 11 12 11 11 10 9 7 5 3 2
7 7 7 7 4 4 5 4 4 4 2 2 4 4 7 6 2 1 3 4 3 5 9 7 4 4 5 4 3 3 5 4 4 4 3 4 7 9 8 8 9 10 10 10 12 12 12 11 9 7 5 4 3 4
6 5 6 6 5 3 4 8 6 4 3 3 5 5 3 5 6 5 4 3 5 6 6 4 4 5 5 3 6 6 5 5 3 4 3 7 9 10 9 9 10 12 12 13 11 10 9 8 7 6 5 3 4 5
3 3 4 7 6 6 7 4 6 4 3 3 4 5 5 4 1 5 4 4 9 8 5 4 5 4 4 4 5 4 4 2 2 4 4 7 11 12 11 12 14 14 13 12 11 11 9 7 6 6 6 4 5 5
4 4 7 5 5 5 3 2 1 3 5 5 4 2 4 4 3 4 3 4 5 6 5 3 2 6 4 5 3 5 4 3 2 4 6 10 12 15 15 15 15 14 12 12 11 10 8 7 9 8 6 4 4 1
4 6 6 6 5 3 3 4 3 3 5 4 5 5 4 4 4 3 3 5 4 2 2 3 4 5 6 4 3 5 3 3 4 5 7 14 17 17 16 17 15 14 14 13 12 9 7 9 8 8 5 3 2 1
7 8 5 3 2 3 2 2 3 4 4 1 4 5 5 5 3 5 6 6 6 4 5 5 6 5 4 4 2 3 3 3 6 8 9 9 16 18 18 17 15 15 14 12 10 7 9 10 10 8 4 1 3 2
4 5 6 6 2 3 2 3 4 3 4 4 3 4 5 6 7 7 6 6 7 4 6 7 8 8 5 3 4 4 4 7 8 7 11 11 18 19 18 16 16 15 12 11 10 9 10 11 10 8 7 6 4 2
2 7 3 5 3 4 4 6 4 3 3 4 4 5 5 6 6 6 6 7 5 9 9 9 8 9 7 8 6 8 5 10 9 8 16 19 12 11 14 16 16 12 10 9 9 10 11 10 9 7 6 4 5 2
6 5 3 6 5 3 4 3 5 4 4 3 3 3 4 3 2 5 4 5 8 9 10 10 11 9 9 5 6 8 10 14 10 13 17 18 18 18 17 17 16 13 10 9 10 13 13 9 9 7 6 5 4 3
4 3 4 4 5 3 3 4 4 3 3 5 3 4 3 3 4 3 4 6 8 5 7 8 8 7 6 6 7 8 13 15 15 16 18 17 14 16 17 17 15 13 10 12 13 13 13 13 10 11 7 5 5 5
1 2 2 4 3 4 4 4 5 5 4 5 4 3 2 3 3 3 4 2 3 4 4 6 7 8 8 7 7 10 15 18 14 10 16 17 17 18 17 17 16 13 12 14 15 15 13 12 13 10 6 5 3 3
3 6 4 4 3 4 3 2 3 4 3 3 2 3 2 2 3 3 1 2 2 2 3 5 5 6 7 6 7 8 15 16 15 13 15 17 19 19 15 12 12 14 14 14 15 15 14 14 12 10 9 7 5 6
2 5 5 4 3 3 4 5 6 2 4 4 3 2 3 3 3 1 1 3 3 5 2 5 5 6 5 9 10 12 15 13 12 10 14 16 17 19 20 17 16 17 19 16 14 15 14 14 12 12 9 7 7 9
3 3 4 4 5 5 4 4 2 1 2 3 2 2 1 3 3 3 4 6 5 3 5 6 4 3 5 13 13 15 16 14 13 11 12 12 12 13 14 14 14 17 18 19 17 14 14 13 12 11 9 7 6 5
4 4 4 6 5 4 3 3 3 4 4 3 3 2 4 3 3 4 7 9 8 6 4 6 7 9 10 12 13 14 16 16 15 13 13 9 9 10 12 12 10 13 16 16 21 17 15 13 12 11 9 9 8 6
6 5 4 4 6 5 4 4 4 3 2 4 3 4 3 2 4 6 9 7 3 2 6 7 7 11 11 12 12 12 11 12 13 12 8 8 9 13 15 15 15 14 15 15 16 19 20 17 14 12 10 10 10 9
2 4 5 6 8 7 7 6 6 7 6 3 2 3 3 1 3 5 10 10 7 4 3 2 4 3 7 7 8 8 7 4 3 2 2 4 5 6 11 15 15 14 13 14 15 17 19 22 19 16 15 14 12 11
5 8 5 4 4 3 3 4 5 3 2 2 2 2 2 2 3 4 11 13 9 7 5 3 8 9 12 14 8 3 6 13 14 9 8 5 3 6 11 12 12 12 11 11 12 15 18 20 19 15 14 13 12 11
6 5 6 6 4 4 5 4 5 3 3 2 2 4 4 5 4 3 6 11 9 6 7 11 10 14 21 22 15 9 3 7 13 15 14 15 13 11 11 11 12 13 13 12 11 13 16 17 15 13 13 11 11 11

GFSWCAN_925_spd_099.txt.gz
Wind_Speed
15 15 17 17 17 18 18 17 16 14 12 12 13 10 7 6 5 7 7 4 7 6 1 5 2 2 2 5 4 10 5 5 7 4 3 3 5 1 5 7 3 3 5 5 4 5 5 2 4 3 6 5 4 1
15 15 17 18 19 19 17 16 15 13 11 10 11 9 6 5 4 4 8 4 5 6 6 3 3 3 6 9 7 5 5 2 5 4 0 1 3 3 6 5 5 5 4 4 4 6 6 6 9 5 4 5 4 3
15 16 17 19 19 18 16 15 13 11 10 9 8 8 7 6 5 5 8 4 7 6 9 9 12 11 9 7 7 7 5 3 3 5 4 1 0 3 4 5 2 7 1 5 1 8 3 5 5 4 4 5 4 4
14 15 18 18 17 17 15 13 11 10 10 8 8 8 7 7 6 5 8 4 9 7 7 11 8 9 6 4 4 6 3 2 1 5 5 4 4 2 3 3 4 3 8 7 6 4 3 5 5 5 5 1 2 3
14 16 17 17 16 15 13 10 9 8 9 8 9 7 7 6 6 6 9 11 9 9 4 6 13 12 11 7 6 5 6 5 5 5 5 5 2 1 5 4 6 7 6 6 3 2 7 2 10 5 5 4 2 3
12 15 15 15 14 13 11 8 7 7 8 8 9 7 6 6 5 4 5 12 10 8 5 4 6 8 9 8 6 4 6 5 4 4 3 1 4 4 4 4 4 8 7 6 3 3 6 1 4 6 6 4 5 2
10 13 13 14 13 11 8 7 6 6 7 8 7 7 6 6 6 6 4 4 7 5 4 4 5 9 12 11 7 5 4 3 5 2 3 3 4 3 6 7 3 3 3 4 4 3 4 5 5 5 5 5 3 2
9 10 13 12 11 7 4 4 6 7 8 8 6 5 5 5 6 8 6 5 5 10 4 4 3 7 16 7 7 5 6 5 5 4 1 5 6 4 4 4 5 2 3 5 7 8 6 7 5 6 6 6 5 3
8 8 10 11 8 4 2 3 4 6 7 7 7 4 2 4 6 6 5 6 7 5 4 5 7 5 11 11 7 5 4 6 3 4 4 0 5 4 7 5 3 6 6 7 8 8 8 8 8 8 7 5 4 2
7 6 6 9 7 4 1 2 3 5 6 8 4 5 4 6 5 10 5 6 6 5 4 5 9 6 9 8 6 6 5 6 3 2 3 3 6 9 10 7 5 4 7 6 8 9 8 9 9 8 4 1 2 0
8 7 5 5 6 5 1 2 3 3 8 3 5 1 5 12 8 5 5 5 6 5 6 8 7 6 4 9 9 5 3 2 3 4 4 3 4 5 3 4 7 5 6 7 5 4 8 7 7 7 5 3 3 2
8 8 6 5 5 4 2 1 4 7 4 3 1 1 6 5 4 6 5 5 5 7 7 10 7 6 5 4 3 4 3 3 5 7 4 2 4 4 5 4 5 6 8 7 7 7 9 9 9 6 6 5 3 1
7 7 7 5 3 2 0 2 4 6 3 3 4 5 3 3 2 6 9 6 6 5 6 9 13 6 3 6 2 4 5 6 4 3 2 5 7 6 5 4 5 6 8 8 8 9 9 8 6 6 5 2 2 3
7 5 6 7 5 5 2 0 4 5 3 1 1 1 3 4 6 6 7 6 3 5 8 9 9 7 5 4 3 5 4 4 4 6 5 3 11 8 6 6 7 9 10 10 10 11 11 9 6 6 5 2 0 1
6 5 6 9 7 7 7 5 3 2 3 1 1 3 7 8 7 5 3 3 5 8 10 10 5 3 6 3 4 3 4 5 4 6 5 10 10 10 9 9 10 9 9 8 9 10 10 10 9 6 4 2 1 1
5 4 5 5 7 5 6 6 5 2 0 2 6 7 6 7 7 7 7 6 4 3 2 2 2 2 5 4 6 8 4 5 5 5 9 9 10 10 10 9 9 10 11 11 11 11 11 9 6 5 4 2 3 2
3 2 4 9 8 5 11 6 8 5 5 5 6 8 9 2 2 6 5 5 10 8 5 4 7 6 5 4 5 5 8 5 4 5 6 8 11 11 11 11 11 12 12 12 11 9 8 6 5 5 5 3 5 3
2 3 9 9 9 6 3 4 4 4 7 7 7 6 5 5 5 6 3 6 7 8 7 2 4 5 4 4 5 6 5 4 3 3 7 9 10 14 14 12 14 14 13 12 11 10 9 7 6 8 6 6 6 7
3 6 10 9 8 3 2 3 4 3 5 7 5 5 4 4 4 4 6 5 5 1 4 3 4 6 6 3 3 4 6 4 5 5 8 12 16 16 16 16 16 15 14 13 13 12 11 8 9 8 9 7 8 1
4 7 8 8 5 4 3 3 4 4 5 4 6 7 6 6 7 8 7 6 7 6 3 4 7 6 1 1 2 3 2 2 4 5 7 9 16 17 18 18 16 16 15 14 13 6 9 10 10 9 5 1 5 4
5 5 6 5 2 5 3 2 4 4 4 4 5 7 6 7 9 8 8 8 8 10 9 9 8 8 8 5 1 1 0 3 4 5 7 8 15 18 19 17 16 17 15 14 13 11 6 11 11 10 8 8 11 6
3 8 4 6 3 3 5 9 4 4 3 5 4 4 4 6 6 7 7 7 10 10 9 10 10 10 8 7 6 8 7 7 8 6 13 20 11 11 14 17 17 14 14 13 12 12 12 12 12 10 8 8 4 7
7 5 3 5 3 3 5 4 4 4 4 2 4 7 6 6 5 6 4 8 10 11 12 10 12 13 11 11 5 8 9 10 7 11 14 17 18 19 18 17 17 14 12 12 11 10 13 10 9 8 9 4 8 5
2 2 2 3 7 4 3 4 4 3 4 6 4 5 4 3 3 4 7 9 9 9 10 10 7 9 9 9 8 8 12 14 12 11 16 17 12 16 17 17 16 15 13 13 12 12 14 13 12 12 10 9 7 9
2 4 4 4 4 4 4 4 8 5 5 6 7 3 3 3 3 4 4 3 5 3 4 6 8 9 9 7 9 14 15 15 11 8 16 18 16 16 15 15 15 14 14 13 14 14 14 14 15 14 14 10 8 4
2 4 5 5 4 5 4 2 2 3 4 2 2 1 1 3 3 2 1 4 1 4 2 4 7 8 4 2 3 6 16 16 14 11 16 17 18 17 13 10 9 14 13 14 14 15 15 14 14 14 11 6 1 7
3 5 6 6 3 3 4 3 5 4 4 4 3 1 2 3 2 2 3 4 5 6 3 0 2 3 3 5 7 6 11 15 14 14 19 16 19 23 17 16 15 16 16 15 15 15 15 15 14 14 11 10 12 12
5 3 5 3 6 4 4 2 3 2 3 1 3 2 1 3 1 2 2 7 6 3 1 2 1 2 13 9 11 13 13 13 12 16 17 16 15 15 14 16 16 21 19 17 15 15 15 15 14 14 13 11 10 11
6 5 4 6 5 3 3 2 4 3 3 3 3 4 5 4 1 4 7 6 2 7 4 5 4 2 6 9 8 10 12 12 12 9 9 8 7 13 15 16 16 21 20 20 18 14 15 14 15 15 13 12 10 10
7 4 5 5 4 4 5 6 8 9 7 11 4 3 1 2 5 6 8 8 6 3 4 7 7 2 1 7 10 10 12 12 14 15 10 9 11 15 14 14 16 18 19 19 21 20 17 13 12 11 11 11 12 12
1 3 8 6 6 8 9 6 5 4 5 2 3 2 0 3 4 7 11 12 9 7 6 7 4 4 11 8 11 10 9 8 7 8 10 6 14 17 17 17 17 18 19 19 18 19 21 23 22 19 17 17 17 14
5 7 5 8 8 5 4 6 6 5 2 2 2 3 4 2 2 4 13 13 9 9 10 9 5 6 7 12 18 15 12 8 5 5 6 6 9 5 5 11 15 15 15 16 18 18 19 21 21 22 22 20 17 15
8 7 6 5 5 5 5 4 1 3 3 2 3 5 7 4 4 3 7 12 11 8 7 6 5 6 8 11 14 15 8 5 4 2 2 6 16 13 12 13 14 14 14 14 13 13 13 15 17 20 23 17 13 13

GFSWCAN_925_spd_102.txt.gz
Wind_Speed
14 13 14 14 16 16 17 19 17 16 16 14 14 13 12 10 8 8 13 7 6 6 14 8 5 3 2 5 5 7 5 4 6 8 4 4 3 13 10 6 2 2 3 4 6 9 6 6 10 2 5 2 9 9
13 14 15 15 16 17 17 17 15 15 14 12 12 13 11 9 6 6 8 4 7 6 7 17 10 2 4 8 7 2 2 8 5 4 2 1 3 4 2 3 3 4 6 4 7 3 6 9 6 5 7 5 6 7
13 15 15 17 16 16 16 15 14 13 12 11 11 11 10 9 7 8 9 11 7 5 10 14 10 10 10 8 7 7 3 2 2 5 7 1 3 4 3 3 1 5 2 2 3 11 10 7 5 4 7 6 4 6
13 14 15 17 15 15 15 14 12 10 10 9 10 9 9 10 8 8 7 10 11 8 7 12 23 21 13 12 2 10 3 5 3 3 6 5 3 2 3 5 2 6 5 3 3 7 6 4 4 6 7 2 3 4
14 13 15 16 15 14 13 13 9 8 8 9 10 8 8 8 7 9 13 13 11 8 5 8 13 13 14 8 7 6 6 4 4 5 4 5 1 2 3 4 4 4 3 3 1 5 7 2 8 3 5 3 2 3
13 12 14 14 14 14 13 10 7 7 7 8 7 7 7 7 6 5 4 12 13 9 4 5 12 12 14 13 8 4 7 5 7 6 5 1 10 3 5 4 5 4 4 3 2 4 4 1 6 6 5 4 5 2
12 10 12 14 13 13 10 7 6 7 5 5 6 5 7 7 7 7 4 4 1 4 3 4 6 9 13 11 8 5 3 4 5 4 4 4 4 3 4 6 3 4 3 5 2 2 2 6 5 3 3 5 4 1
11 11 11 13 12 9 6 4 4 5 5 5 5 5 7 7 9 11 11 6 6 6 5 4 3 1 11 6 7 5 5 5 4 6 3 3 5 3 3 6 4 2 4 3 4 5 5 6 6 7 5 5 6 8
10 9 9 9 9 6 4 3 3 5 5 6 5 5 3 5 6 7 8 4 8 5 4 4 10 4 10 10 7 7 4 6 3 6 6 4 5 3 5 6 4 6 3 5 6 7 8 5 8 8 7 5 3 3
9 8 8 7 7 5 3 2 2 3 5 6 4 6 4 8 7 11 3 4 4 4 5 7 8 4 7 10 9 6 5 5 5 3 4 3 6 8 8 8 6 2 7 6 7 8 7 6 8 6 3 4 3 5
9 9 9 7 6 6 4 3 3 3 7 4 5 1 5 12 6 3 5 6 6 5 5 8 10 6 3 9 6 2 3 3 2 5 4 4 4 6 9 8 9 8 5 7 6 5 4 6 7 6 6 7 5 3
9 9 9 7 6 6 4 4 4 7 4 3 8 5 5 4 4 5 4 5 6 12 7 13 12 4 4 3 3 2 2 6 5 4 4 2 6 7 6 6 4 6 8 7 7 8 10 7 13 10 9 5 5 6
8 8 8 9 6 4 2 4 5 9 5 2 5 4 3 4 1 6 9 5 7 5 7 9 11 3 2 4 4 5 6 4 3 5 3 4 4 9 8 7 7 7 7 6 6 5 15 14 14 10 9 9 7 6
8 8 7 9 8 6 4 2 3 5 1 2 2 2 4 5 6 7 8 9 4 7 9 8 8 4 3 6 3 4 5 5 4 4 8 7 11 10 9 7 7 8 8 8 10 16 14 13 11 9 8 6 3 1
8 8 8 9 9 8 7 3 5 3 1 1 1 3 6 8 8 8 5 3 4 6 8 7 7 8 2 3 4 4 4 5 5 11 8 10 12 10 9 9 9 9 9 8 17 16 13 11 11 7 6 4 3 2
7 7 8 7 7 7 7 6 5 2 1 1 3 5 7 8 7 9 9 6 6 3 5 5 1 3 4 2 10 8 6 5 10 7 9 10 10 9 8 9 9 12 15 15 14 12 13 11 11 11 7 5 5 3
7 4 5 9 10 8 12 6 6 3 4 4 6 7 10 9 8 8 7 4 4 9 8 4 3 2 5 6 8 9 11 8 3 8 5 12 11 10 9 9 15 16 15 14 14 14 11 11 9 9 7 5 9 6
5 5 6 10 10 9 6 7 4 5 8 7 8 11 14 9 6 4 2 5 1 4 3 3 1 3 3 4 8 10 8 6 6 1 11 11 11 11 12 10 16 16 16 16 17 13 11 9 9 9 9 8 7 8
3 5 10 13 6 3 3 4 4 4 5 5 8 8 4 5 8 8 7 13 10 7 3 3 3 3 6 3 4 2 3 9 10 8 10 12 14 13 12 14 14 14 14 13 12 12 13 11 11 12 11 13 11 10
4 7 11 11 7 2 2 3 4 5 4 4 6 7 6 6 5 6 7 6 6 6 1 3 7 10 4 4 12 9 3 6 5 9 9 9 14 13 13 15 15 16 15 14 14 13 14 11 12 11 8 6 4 5
7 6 8 9 4 6 4 4 5 6 4 4 6 3 4 8 7 8 8 8 7 6 8 8 13 3 9 4 14 14 6 4 4 6 7 9 12 14 13 14 15 17 15 16 14 14 6 11 13 12 9 7 6 9
4 12 5 6 4 4 5 7 5 2 4 7 5 4 5 5 6 8 7 6 9 9 8 9 7 8 5 14 16 11 4 6 3 2 7 19 10 8 11 14 16 14 15 16 16 15 14 12 12 13 12 11 7 6
10 5 5 8 5 3 6 7 3 3 4 3 6 10 6 5 4 3 3 8 10 10 10 9 9 9 8 8 9 5 7 6 5 9 14 16 17 17 19 20 20 16 14 16 15 13 15 14 9 11 10 7 8 11
4 3 4 5 7 4 4 4 3 3 4 6 3 5 5 4 4 4 7 9 9 8 10 12 10 9 10 10 9 7 14 13 10 9 21 17 9 15 20 19 18 17 16 15 14 12 14 15 14 13 9 12 13 10
2 3 4 4 4 4 5 6 8 5 4 6 6 5 2 3 3 4 7 1 4 5 4 2 3 5 9 7 7 13 17 17 10 7 20 22 19 18 18 18 15 16 16 14 15 14 15 16 15 14 15 14 12 9
3 5 4 4 3 3 3 1 2 4 5 5 3 1 2 3 3 1 3 2 3 2 1 6 8 9 6 1 2 5 8 15 13 9 17 18 17 16 10 10 7 14 16 15 14 16 16 16 16 16 17 8 2 4
3 5 6 6 4 6 2 0 3 2 3 3 3 3 3 2 3 4 6 1 5 5 1 2 4 8 8 6 5 3 6 6 7 15 17 11 13 18 18 16 15 17 17 14 13 15 16 17 17 16 16 13 12 10
5 3 6 5 4 5 5 2 2 1 3 3 3 1 2 2 3 1 3 28 18 5 3 3 6 7 5 7 8 10 7 5 12 16 17 11 13 11 7 17 15 20 21 17 15 15 17 17 15 15 15 12 12 14
7 4 3 7 4 3 3 3 3 2 2 2 1 2 2 3 4 6 2 6 5 2 11 10 17 3 8 10 14 13 15 13 12 6 10 6 6 13 26 17 22 24 21 19 18 15 16 15 16 15 14 14 13 12
8 6 4 2 3 3 2 5 5 8 7 8 3 3 3 2 11 10 12 13 12 9 9 7 14 15 2 6 1 5 11 12 10 10 6 4 4 6 11 21 18 18 16 17 18 11 10 10 7 7 8 9 11 13
3 3 5 5 7 7 7 7 10 10 6 4 4 6 3 1 8 13 16 14 12 10 12 11 11 18 16 14 1 6 5 13 9 8 7 7 24 26 17 13 12 11 15 17 19 18 17 16 14 13 14 15 16 13
3 4 2 4 7 8 11 9 4 4 3 3 3 3 2 3 3 5 16 15 13 11 11 12 11 12 12 11 14 15 14 8 7 8 10 12 15 16 12 11 12 12 15 15 16 16 19 23 22 21 20 21 20 19
7 7 8 6 4 5 6 3 2 2 4 3 5 4 5 5 4 3 5 12 14 13 11 9 8 7 10 11 11 12 10 6 4 3 1 2 5 3 3 4 6 13 15 14 13 16 19 20 20 23 26 20 20 14

GFSWCAN_925_spd_108.txt.gz
Wind_Speed
14 13 13 13 13 13 14 15 14 16 15 14 12 12 11 10 8 8 10 6 3 3 6 4 2 2 5 2 4 4 4 5 4 4 3 2 3 5 2 4 5 3 4 3 2 1 1 6 2 6 4 1 7 4
14 13 13 13 13 13 15 14 15 15 15 15 12 11 10 10 7 7 7 4 6 5 5 19 21 25 16 21 4 2 5 3 5 4 1 3 3 2 4 3 1 1 6 7 8 5 5 5 3 5 4 6 4 6
15 14 13 14 13 14 15 14 14 15 14 14 11 10 10 10 8 8 10 11 4 2 5 1 7 13 11 11 6 4 3 3 1 4 4 2 2 4 4 4 3 3 5 4 3 3 4 4 8 5 4 8 5 5
15 15 14 13 13 14 15 15 14 14 12 11 10 8 10 9 8 9 9 6 6 3 2 6 6 9 10 10 7 5 6 4 5 3 2 2 1 3 4 3 4 5 4 6 2 2 3 3 6 8 9 10 11 12
16 15 15 13 12 13 15 15 14 12 10 8 8 9 10 7 8 11 15 17 12 1 2 4 19 23 18 15 8 9 9 4 3 2 2 3 2 3 2 3 1 3 6 4 5 6 4 4 5 8 9 7 8 10
16 16 16 14 12 13 16 15 12 8 7 7 9 8 6 5 6 5 3 2 15 7 1 3 6 5 9 17 14 7 4 3 3 3 3 3 1 4 3 2 5 4 4 7 5 6 7 8 7 5 7 8 8 9
15 16 14 13 11 12 14 12 10 7 6 7 6 5 4 5 7 6 3 8 8 2 2 4 4 4 2 9 2 3 3 2 3 2 1 3 1 4 3 3 5 1 6 5 7 8 6 6 6 7 10 10 17 16
14 14 13 11 9 9 11 10 7 6 5 6 6 3 5 6 10 10 15 8 11 5 1 2 4 4 2 2 2 1 3 3 2 3 2 2 2 2 2 5 5 6 7 8 8 6 6 6 8 8 17 15 8 8
14 13 11 9 7 6 8 7 6 6 6 5 3 3 3 4 4 5 5 3 8 1 2 1 2 3 5 1 2 3 3 2 2 2 2 4 1 3 7 6 3 7 7 9 7 8 8 7 9 9 9 7 12 9
12 11 9 9 6 6 7 6 5 5 4 1 1 1 2 6 5 9 3 2 3 2 0 3 2 3 1 1 1 3 1 3 1 5 3 4 4 4 7 9 8 8 9 9 7 6 5 6 9 8 9 14 15 13
10 9 9 9 7 6 6 6 4 3 1 1 2 3 6 5 6 1 2 2 2 2 3 4 5 2 3 2 3 0 2 0 3 5 6 2 2 4 7 8 7 8 8 7 9 8 8 11 9 11 8 12 20 20
9 9 9 9 8 7 6 5 3 2 2 2 7 7 4 1 1 2 3 3 4 5 3 4 4 4 0 2 3 3 3 3 3 5 2 3 4 7 8 8 8 8 9 9 16 10 16 17 19 17 17 18 20 23
9 9 8 8 8 7 4 2 3 4 5 3 1 2 2 1 1 5 6 4 3 3 4 4 2 3 2 3 3 3 3 2 3 3 4 5 4 5 8 7 7 9 12 13 9 18 23 18 21 26 18 21 26 27
8 8 8 8 7 7 4 2 2 3 2 0 1 1 3 4 5 5 4 3 5 1 2 4 4 4 3 3 2 4 4 3 4 6 7 4 7 8 7 7 8 8 9 12 11 18 19 20 20 23 27 29 28 24
8 8 7 8 7 8 6 4 3 5 2 1 2 4 6 5 4 2 4 3 3 3 1 2 3 3 2 4 3 2 3 5 7 5 4 4 8 10 9 7 8 7 7 9 16 17 19 24 23 23 27 27 26 25
6 5 8 6 5 10 9 6 4 2 1 1 3 3 4 3 4 3 2 2 3 4 2 4 4 3 2 4 5 7 4 5 4 3 4 5 9 8 8 7 7 11 14 16 19 21 23 24 25 26 28 26 24 23
7 4 3 4 6 10 9 4 3 2 2 3 4 4 6 4 4 3 2 2 1 4 0 3 2 3 3 3 2 3 3 3 2 0 1 5 11 9 8 7 12 18 18 19 22 23 24 24 26 25 20 24 24 20
4 3 5 7 11 12 5 4 3 3 6 6 3 4 4 3 3 3 2 2 4 3 3 2 1 1 4 5 2 3 4 3 1 3 6 6 6 7 13 9 17 21 21 22 25 25 26 24 20 17 27 27 23 18
3 7 5 13 10 4 3 4 5 3 7 4 5 3 3 3 5 4 2 1 3 3 5 3 2 3 4 3 3 3 3 2 2 2 2 7 16 12 14 18 19 18 21 23 22 20 24 28 25 30 30 27 22 19
3 3 6 13 6 1 1 3 2 3 3 3 2 3 3 4 4 7 7 4 3 3 3 1 5 4 4 4 3 1 6 3 3 3 3 3 13 16 16 17 16 20 20 19 23 24 23 19 24 27 27 25 23 20
5 5 7 9 3 1 2 2 3 3 4 3 3 1 3 1 2 4 5 4 2 3 4 5 4 4 5 4 13 11 5 5 3 5 4 3 7 15 16 20 24 20 16 17 14 20 26 23 24 25 27 25 24 22
4 9 4 5 2 2 3 8 3 4 2 3 3 3 2 1 2 2 5 3 4 4 4 4 4 4 4 5 5 17 16 13 8 10 11 6 4 4 7 17 17 14 18 21 22 21 25 25 21 18 25 28 19 17
9 4 3 4 4 3 6 3 3 3 2 3 2 1 2 2 3 2 2 4 4 4 6 4 5 11 9 14 11 16 23 18 6 10 17 14 17 14 17 22 22 18 13 17 28 26 26 26 22 23 25 26 21 16
4 3 3 5 5 4 3 3 3 3 2 1 2 3 2 3 0 2 2 2 3 2 1 4 4 4 1 2 2 5 17 21 14 13 23 18 6 14 22 22 25 23 25 29 29 29 30 30 27 29 32 26 23 22
1 4 3 4 3 3 4 4 4 3 3 4 3 3 2 2 1 2 3 2 4 3 5 5 2 5 5 4 1 9 23 17 12 12 19 23 20 12 14 20 22 26 29 28 23 25 27 30 27 31 29 26 25 25
1 3 5 3 3 3 2 3 2 3 2 2 4 2 1 1 2 2 1 2 3 3 5 4 4 4 1 4 4 4 7 3 5 2 14 26 25 20 12 9 8 18 27 31 30 26 25 27 27 27 27 29 26 23
2 4 4 4 3 0 2 3 3 2 2 2 3 3 0 2 1 3 3 2 2 3 11 11 11 4 4 6 9 12 11 9 11 19 19 23 19 13 13 15 13 22 28 34 36 35 31 29 27 27 26 24 21 18
4 3 3 2 3 4 4 3 2 2 2 2 2 3 3 3 2 3 2 11 18 14 9 19 14 15 11 8 10 9 11 15 16 11 13 10 12 16 28 20 18 18 22 30 35 36 35 33 30 30 26 23 21 19
4 3 2 6 4 2 2 2 1 2 2 2 2 2 3 3 2 3 8 15 17 19 13 11 14 19 22 7 7 10 14 19 12 9 8 3 2 7 12 20 21 22 24 24 26 20 31 35 35 31 27 25 20 17
5 4 3 3 0 3 2 1 2 1 1 2 1 2 1 2 6 8 9 8 8 8 7 14 18 19 12 11 7 20 17 9 16 12 5 5 8 20 14 10 10 12 7 12 15 12 19 26 28 27 26 22 20 18
3 2 2 3 2 5 8 6 3 3 0 2 1 2 1 2 5 15 16 13 16 17 14 13 16 18 16 12 7 8 10 22 22 20 17 11 6 4 9 15 20 26 28 26 26 31 27 20 23 24 21 17 15 14
1 2 2 2 4 4 4 4 6 3 3 1 3 3 2 3 1 2 11 13 14 12 13 12 11 10 12 13 16 17 20 19 16 13 13 6 8 8 14 18 20 20 25 19 26 23 21 20 19 18 18 17 16 15
3 4 5 3 3 2 2 4 3 3 3 3 2 4 3 3 2 3 6 11 12 8 7 7 6 6 7 8 10 11 11 10 8 7 7 9 8 9 12 14 18 24 26 20 25 25 24 24 24 22 21 20 21 20

GFSWCAN_925_spd_111.txt.gz
Wind_Speed
15 15 14 13 13 13 12 13 14 13 14 13 12 10 8 7 8 7 8 7 8 2 6 5 5 2 3 1 3 4 4 4 3 4 3 3 3 4 2 3 3 4 4 3 2 1 3 1 2 4 5 2 7 4
15 16 14 14 13 13 12 14 13 13 14 13 12 10 8 7 7 7 5 3 1 4 6 14 21 28 17 21 2 1 5 5 5 4 2 3 2 2 4 2 2 2 6 4 6 5 5 5 4 3 4 4 4 6
16 16 16 15 14 13 13 14 14 14 13 12 12 10 8 7 7 10 9 9 3 2 5 2 9 14 12 24 18 3 2 4 3 4 4 3 2 4 4 5 3 3 3 2 2 2 1 4 4 4 2 4 6 4
17 17 16 15 14 13 13 14 15 14 12 12 9 8 7 8 7 11 10 5 3 3 2 6 5 13 3 8 11 13 8 5 6 3 3 3 2 4 4 3 4 5 5 3 1 2 4 3 3 6 6 6 7 6
18 17 16 16 15 14 12 15 15 14 11 8 7 7 8 9 7 10 14 19 15 2 2 4 18 23 15 14 9 10 13 5 3 3 2 2 2 3 1 2 1 4 6 4 5 8 5 6 4 5 9 6 6 6
17 17 16 16 15 14 13 13 13 12 8 7 7 8 6 5 5 4 3 6 20 8 0 3 5 5 4 8 16 8 6 4 3 4 3 2 3 3 3 2 5 4 4 6 5 6 3 7 7 3 10 7 6 6
16 15 16 16 14 12 11 12 10 9 8 7 7 5 4 5 7 5 3 2 17 10 1 4 5 4 3 4 2 3 4 2 3 2 1 3 1 3 3 3 5 5 5 5 6 9 5 4 6 7 11 9 15 13
14 14 15 14 12 10 9 9 9 8 7 7 7 4 5 6 9 9 12 16 11 3 1 2 4 4 5 1 3 1 3 3 3 3 1 2 2 1 1 6 5 2 2 6 7 4 7 7 8 7 15 16 10 7
14 14 15 12 10 9 7 7 7 6 6 7 6 4 4 5 4 3 4 11 19 3 2 2 2 3 5 2 2 3 3 2 1 3 3 4 0 3 6 7 6 8 8 9 5 8 9 8 9 9 10 10 12 6
14 15 12 10 9 8 7 6 6 6 5 3 2 1 2 5 2 8 2 2 1 2 0 3 1 3 2 3 3 3 2 3 2 4 2 3 4 4 6 8 8 9 8 9 8 6 5 5 8 9 9 11 14 12
14 12 10 9 9 8 6 6 6 4 2 2 2 3 5 1 4 1 2 2 1 2 3 4 5 2 2 2 2 2 2 1 3 4 4 3 3 6 6 9 7 9 10 10 11 10 11 13 9 8 7 15 20 22
10 10 9 9 9 7 6 6 5 3 2 2 5 6 4 1 2 3 3 1 3 5 3 4 4 4 2 3 3 3 1 1 4 1 2 2 4 7 8 9 8 8 9 9 10 9 11 15 19 17 17 17 20 23
9 9 9 8 8 7 6 5 4 5 4 3 2 1 2 1 1 5 6 3 3 3 3 2 1 3 1 3 3 4 3 5 1 1 3 5 4 4 8 6 7 7 10 8 7 11 17 18 21 23 18 20 26 25
9 8 8 7 7 7 6 5 4 3 2 1 1 1 2 3 4 4 4 3 4 1 1 3 3 2 1 3 3 4 3 3 0 2 5 3 7 8 8 6 7 9 9 9 9 15 17 20 18 20 25 30 29 24
7 7 7 9 8 8 7 4 2 4 2 2 1 4 6 5 3 3 4 1 2 1 2 2 3 3 2 3 1 4 3 4 5 4 5 5 9 7 8 6 8 9 8 7 13 14 17 22 23 21 27 30 31 30
5 4 8 6 6 10 8 5 2 2 1 2 3 3 3 1 3 2 2 2 2 1 2 4 2 2 1 3 4 5 4 6 4 4 4 2 4 7 7 7 7 9 12 13 15 20 22 23 24 26 30 31 31 30
6 3 1 6 8 10 9 3 2 3 2 3 4 3 3 3 4 3 2 3 2 2 2 3 4 5 2 3 3 4 4 3 3 4 2 4 6 9 8 7 8 13 13 16 19 21 21 22 28 27 20 26 28 25
4 2 4 6 13 12 5 4 2 3 5 5 3 3 3 3 2 3 2 2 2 2 3 4 3 4 4 4 3 3 3 3 4 4 3 2 4 8 13 9 12 16 17 18 23 22 24 26 22 18 22 29 25 22
3 5 6 11 10 3 3 3 4 3 6 3 3 2 3 3 4 7 3 2 2 3 2 2 3 3 4 3 4 3 3 3 2 2 1 3 4 7 12 16 19 18 20 22 21 21 25 30 28 30 30 30 24 24
2 3 6 14 8 1 2 3 4 2 3 3 2 2 3 3 3 3 4 3 3 3 2 3 4 4 4 4 5 5 4 4 2 1 2 3 5 7 12 16 13 17 18 18 18 21 19 16 22 30 31 29 26 24
4 3 6 11 4 4 2 2 3 3 3 2 3 1 3 1 2 3 3 3 2 3 3 4 4 4 4 4 7 7 4 5 5 3 4 4 5 9 8 12 20 18 15 15 14 15 20 19 28 31 31 29 27 24
4 8 4 5 3 2 3 5 3 3 2 3 2 2 3 1 2 3 4 2 3 4 4 4 3 4 4 5 6 13 13 7 6 5 4 9 4 4 4 13 14 10 14 18 19 20 23 29 30 31 32 31 27 22
10 4 3 4 3 3 5 2 2 3 2 3 1 1 2 2 3 3 2 3 4 4 5 5 5 8 6 10 8 13 17 11 3 5 7 8 7 7 9 14 16 15 9 16 19 20 23 32 33 33 32 29 24 21
4 3 3 4 4 4 2 3 3 2 2 2 2 3 2 3 1 1 2 2 3 3 4 4 2 2 2 3 4 5 14 18 11 9 13 14 4 10 17 20 22 24 27 23 26 24 24 30 30 28 28 28 28 25
2 2 2 3 3 2 3 3 3 2 3 3 2 3 2 1 1 1 1 2 2 2 4 4 4 2 4 2 2 6 13 20 8 6 14 12 5 9 14 20 24 28 27 26 22 23 27 29 30 28 27 25 24 27
1 3 5 3 2 3 3 2 1 3 2 2 4 3 2 1 0 0 1 3 2 2 3 3 4 4 3 3 3 4 14 25 24 9 19 20 16 11 5 6 7 16 30 35 32 26 26 30 28 27 26 29 32 29
2 4 4 3 3 2 2 3 2 1 2 1 2 3 2 3 2 1 2 2 1 5 13 13 10 5 4 6 11 11 9 13 17 12 18 14 18 26 21 12 6 12 20 30 34 33 31 29 28 29 27 25 30 33
4 3 3 1 2 3 2 2 2 1 2 3 1 3 2 1 2 2 3 4 8 12 12 9 10 8 8 11 11 8 3 9 8 6 7 7 11 14 18 19 17 17 19 25 35 34 32 31 32 30 28 29 30 32
3 2 2 5 3 1 1 1 2 1 1 1 1 2 0 2 2 2 8 15 16 7 6 12 19 14 13 15 11 4 4 18 11 6 4 2 1 1 6 9 9 11 15 20 25 18 15 15 20 23 23 26 26 27
4 4 2 3 3 3 2 2 1 1 1 1 2 1 2 3 5 11 8 11 14 10 11 10 12 12 8 8 7 13 8 5 6 9 5 4 5 12 13 15 15 18 20 18 12 15 18 15 10 6 10 21 21 19
2 1 2 3 3 5 5 2 1 1 0 1 1 1 1 2 5 10 11 10 10 9 11 11 14 14 10 12 9 7 9 18 17 14 16 15 7 8 9 9 11 16 16 20 23 21 21 20 19 22 21 25 23 21
1 2 1 3 2 5 7 1 2 1 1 1 2 1 1 1 1 3 11 7 8 8 8 9 10 11 13 14 16 16 15 13 14 11 9 5 4 10 8 10 11 14 20 19 19 14 22 27 22 22 27 33 28 23
1 1 1 2 2 3 4 4 2 3 2 1 3 4 3 3 1 3 2 5 5 5 5 7 8 7 8 7 7 8 9 7 7 8 9 10 5 7 12 12 11 10 14 19 18 20 23 25 25 26 30 27 25 23

GFSWCAN_925_spd_114.txt.gz
Wind_Speed
16 15 15 16 15 14 14 13 13 13 12 12 11 10 8 8 8 9 6 8 6 2 6 4 3 2 3 1 3 3 3 3 3 4 3 3 3 4 1 4 3 4 4 2 2 1 3 1 1 5 4 2 4 2
15 15 16 16 16 15 14 13 14 14 12 12 11 10 8 8 8 8 5 2 13 3 5 10 19 23 15 10 2 2 3 5 5 5 1 3 2 2 2 2 0 1 5 4 6 5 5 4 5 3 4 3 3 5
15 15 17 16 16 16 14 13 14 15 13 12 11 10 9 9 9 11 10 7 3 2 5 3 7 12 16 24 23 3 2 4 2 3 4 3 2 4 4 5 3 2 3 3 2 3 3 4 4 2 4 3 4 4
14 15 16 16 15 16 14 13 13 15 13 11 9 8 7 7 10 10 13 11 7 2 2 6 5 9 6 10 23 25 2 2 6 3 3 3 2 3 4 1 2 4 5 5 1 3 4 3 3 3 4 7 6 7
17 14 16 16 15 15 16 14 14 14 13 9 7 7 6 7 8 10 14 18 16 1 2 5 19 12 8 14 14 12 13 4 3 3 2 3 3 3 1 2 2 4 6 4 5 8 5 5 3 0 5 6 8 8
18 16 13 15 14 14 14 13 13 12 11 8 7 7 8 6 6 6 3 14 25 11 1 3 5 4 5 8 9 5 4 2 3 4 2 1 1 3 3 3 5 4 4 4 3 6 5 6 6 1 4 7 6 7
17 15 13 13 13 14 13 12 11 10 9 7 7 6 4 5 8 6 3 3 13 18 1 4 5 2 3 3 3 3 4 1 3 3 2 4 1 3 3 4 5 6 7 5 3 7 6 5 6 6 3 8 8 8
17 14 12 12 13 12 11 10 9 8 8 7 7 6 5 6 9 10 14 13 19 5 1 2 4 5 6 2 2 4 2 2 4 3 2 3 2 2 2 7 4 3 4 3 9 4 7 8 9 7 6 9 8 7
13 12 11 12 11 10 10 9 7 8 7 6 7 5 3 4 3 4 4 19 15 2 2 2 2 3 4 1 2 3 2 3 2 1 2 4 0 4 7 8 6 7 8 8 5 5 9 10 10 8 7 5 8 6
12 12 11 12 11 10 9 8 7 7 6 3 2 1 2 5 1 8 2 3 3 3 1 3 1 3 1 2 2 3 2 4 3 3 2 2 4 5 6 8 7 8 8 10 8 5 5 7 12 9 11 8 9 8
11 11 11 10 9 10 8 7 7 6 4 3 2 3 3 2 5 1 2 3 2 2 3 4 5 2 1 2 2 2 1 0 3 3 4 2 4 6 8 9 8 7 10 11 10 11 13 16 13 9 7 8 15 19
9 10 9 8 8 8 8 7 6 4 2 2 5 6 3 2 1 3 3 1 3 5 3 4 4 4 1 1 4 4 2 2 2 1 2 3 5 8 7 9 9 8 9 8 8 10 11 15 20 16 16 16 17 19
8 7 8 8 8 8 8 6 5 5 4 3 3 2 2 1 1 5 5 3 2 3 3 2 1 2 1 3 3 3 5 3 0 1 4 5 4 5 8 6 6 6 9 6 5 7 13 15 19 21 16 18 24 24
7 7 7 9 8 8 8 6 4 2 2 2 2 1 3 3 4 4 3 3 4 2 1 1 2 2 1 3 3 6 4 3 3 3 5 3 6 8 6 4 6 9 10 9 9 12 13 16 17 21 23 31 29 22
6 6 7 9 9 7 7 4 3 4 2 2 1 4 5 3 2 3 3 2 3 1 2 2 3 2 0 3 2 4 5 5 5 5 4 5 7 6 5 6 8 8 8 7 9 11 14 18 20 20 24 25 24 26
4 4 7 7 7 8 8 5 2 2 2 2 2 2 2 1 3 2 2 3 2 2 1 1 3 1 3 2 3 5 5 5 4 4 3 2 3 5 6 7 8 8 10 11 16 17 20 20 21 23 27 28 29 32
6 3 2 7 7 9 8 3 3 2 2 3 3 2 2 3 4 3 3 3 2 3 2 3 2 1 0 1 3 3 4 3 3 3 2 3 5 4 4 6 6 11 12 15 16 17 17 21 26 24 18 23 30 31
4 1 4 6 12 12 4 4 2 2 5 4 2 3 3 3 2 3 3 2 3 2 2 4 2 1 3 3 3 4 4 3 3 4 4 4 4 2 7 7 12 15 15 17 20 21 22 23 21 18 22 29 29 27
4 4 5 9 9 3 3 3 3 2 5 2 3 2 3 3 4 3 3 3 3 3 3 2 4 4 4 4 5 4 3 3 2 2 3 3 2 5 10 12 11 15 18 20 20 19 23 28 26 27 28 31 23 26
2 5 8 12 7 2 1 2 4 3 3 3 2 2 3 3 2 3 4 3 3 3 3 3 4 4 4 4 4 3 2 3 1 3 3 2 3 7 8 12 11 14 16 15 16 20 20 16 20 26 31 28 25 26
4 3 8 12 5 3 2 2 3 3 3 2 2 3 3 1 1 2 2 3 2 3 3 4 4 4 5 4 6 5 4 4 4 4 2 2 3 9 11 11 16 17 12 13 12 13 18 19 25 30 32 31 30 29
4 7 4 5 3 2 3 5 2 2 1 3 3 2 2 2 3 3 4 2 3 4 4 4 3 4 2 4 6 13 11 8 8 5 2 7 4 3 4 13 13 7 12 15 17 18 21 22 25 28 29 31 30 26
9 6 3 4 3 3 5 1 2 3 2 2 1 2 2 2 1 3 2 3 3 2 2 3 4 7 5 10 8 8 8 9 3 4 6 6 4 6 9 15 17 14 9 16 18 18 19 24 29 30 29 29 30 27
3 3 3 3 4 3 1 2 3 2 2 2 2 3 2 2 2 1 2 1 2 3 4 5 3 3 2 2 3 4 9 13 8 7 9 8 3 6 14 16 22 23 22 22 25 22 24 25 29 29 30 27 25 26
2 2 1 3 3 2 3 3 3 1 3 3 2 3 2 1 2 1 1 2 2 2 3 4 4 2 3 3 4 5 7 11 5 5 12 13 9 4 6 13 17 17 22 21 19 19 18 23 28 28 27 26 25 24
1 3 5 2 2 3 2 2 2 3 2 2 3 2 1 1 1 0 1 2 2 2 3 4 4 5 3 4 3 2 6 13 13 5 12 19 20 12 6 5 4 10 20 24 23 23 23 26 27 28 27 29 30 27
2 3 3 3 2 2 2 2 2 0 2 1 2 3 1 1 3 2 2 2 2 4 9 10 8 5 5 7 13 11 8 7 12 8 8 8 15 24 23 13 7 12 10 22 23 23 23 23 26 30 29 25 28 30
4 2 2 0 2 2 2 2 1 1 2 2 1 3 1 1 1 2 3 6 11 14 12 12 9 9 9 11 10 9 6 4 6 6 3 1 1 2 8 11 13 7 9 14 17 20 26 25 23 25 28 29 28 31
3 3 2 3 2 2 2 1 1 1 1 1 1 1 1 2 2 2 7 16 11 3 7 11 12 11 7 11 7 1 3 8 5 1 1 1 1 2 2 3 5 6 10 12 13 19 22 24 23 17 14 14 21 26
3 3 2 1 3 3 2 1 1 1 0 1 0 1 1 1 2 5 5 8 8 5 6 9 11 12 9 6 5 16 11 2 2 3 3 2 3 4 4 4 5 8 12 13 15 17 19 19 19 18 14 8 9 16
2 1 2 2 4 2 3 2 2 0 1 1 2 2 2 3 5 6 12 8 8 11 13 13 15 14 14 14 9 6 8 17 15 14 17 11 7 8 11 10 11 14 18 22 23 23 23 24 22 22 20 17 9 9
2 3 1 1 2 1 1 1 1 2 2 2 2 2 2 3 3 3 10 10 11 10 11 11 13 11 12 13 12 12 13 14 15 12 9 7 5 5 5 4 5 11 11 12 14 16 18 22 21 21 21 19 19 14
1 2 1 3 2 3 1 1 1 2 2 2 3 4 2 2 0 2 4 8 8 6 7 8 8 8 8 7 8 9 8 9 10 9 10 10 8 4 5 5 6 7 11 13 14 14 17 18 18 20 21 19 17 17

GFSWCAN_925_spd_117.txt.gz
Wind_Speed
15 12 13 13 12 13 13 12 9 10 11 9 10 11 9 7 7 7 3 5 5 3 7 4 4 2 2 1 2 2 3 1 3 3 3 3 3 4 3 2 2 4 3 3 2 3 5 2 2 4 2 2 1 8
16 13 14 13 13 13 14 12 10 10 12 10 10 10 10 9 8 9 3 4 11 5 5 5 14 20 12 6 1 1 3 3 4 4 2 3 3 3 2 2 2 3 2 1 5 2 2 3 7 5 4 2 1 10
14 14 13 13 14 14 13 12 10 11 13 12 11 10 10 9 9 12 6 5 2 3 7 5 10 14 18 28 17 3 2 0 3 1 4 2 2 4 4 4 3 4 3 2 2 1 3 4 6 4 4 2 7 13
15 15 14 12 13 13 13 12 11 11 12 12 10 8 8 8 8 13 11 8 5 3 4 4 4 8 6 11 20 26 2 4 3 1 2 2 2 4 2 2 2 1 8 4 2 3 3 3 2 1 5 10 13 11
16 16 15 13 13 13 12 13 12 10 10 10 9 7 6 6 6 9 13 16 14 1 3 6 16 7 6 13 16 21 14 3 1 2 2 2 3 4 2 2 3 6 5 4 1 8 2 5 5 5 7 10 14 12
17 16 16 13 12 12 11 12 11 9 8 9 8 7 7 7 6 4 2 7 18 11 3 4 4 3 3 9 12 12 9 3 2 2 2 3 1 2 4 3 2 7 7 3 2 7 1 5 5 2 4 9 10 11
17 15 14 13 11 10 11 12 10 7 6 7 7 6 5 4 8 5 2 2 11 16 3 4 4 1 2 3 4 4 5 3 0 1 1 3 2 2 2 3 4 8 8 7 4 11 4 8 7 7 4 8 10 10
16 15 14 11 10 10 11 9 7 6 6 6 6 6 5 5 8 9 11 20 10 4 3 3 4 2 5 1 3 2 4 2 3 1 1 2 3 1 4 7 4 4 6 7 11 5 6 10 9 8 8 10 10 10
15 13 11 10 9 10 10 8 6 5 6 6 4 4 3 4 3 4 1 14 18 3 3 2 2 1 4 2 2 2 1 3 1 1 1 2 2 4 7 7 9 10 9 11 13 4 10 15 14 10 9 9 10 10
13 12 12 10 10 10 8 7 6 5 5 4 3 2 2 4 5 13 5 3 2 2 3 3 1 2 1 0 2 3 1 1 5 2 3 3 3 5 6 9 8 9 8 15 15 7 9 12 14 14 13 10 10 10
10 11 11 10 9 8 8 6 4 4 4 3 3 2 1 3 5 3 3 3 3 3 4 4 6 3 1 1 2 2 3 3 4 3 5 3 3 5 10 10 9 8 12 15 15 17 18 17 15 13 11 12 14 16
8 8 9 9 7 7 8 7 4 3 2 3 3 4 2 3 2 3 4 2 5 4 4 3 2 4 1 0 2 1 3 3 3 2 4 3 4 8 9 12 9 11 12 14 13 13 17 18 21 20 17 16 17 16
8 8 7 7 8 7 7 7 5 5 4 2 2 2 2 2 2 5 6 3 3 3 3 3 3 3 2 2 3 1 2 3 1 3 3 4 3 7 7 8 9 8 11 12 11 12 14 17 17 20 18 15 17 19
8 7 7 8 9 7 7 7 5 3 3 2 3 1 4 4 4 4 2 0 1 1 2 3 2 2 2 2 1 5 3 2 2 3 5 3 5 7 5 6 8 10 13 14 13 14 16 17 18 19 20 22 23 21
5 6 7 8 9 8 6 7 5 6 3 2 2 3 6 3 2 2 2 3 2 1 1 2 2 2 2 3 2 4 6 5 6 4 4 4 3 5 7 7 9 11 11 12 14 13 15 16 18 19 20 21 20 21
4 5 6 7 8 8 9 7 3 4 2 2 3 3 2 2 3 2 2 3 1 2 3 2 2 2 3 2 4 6 4 6 3 3 2 2 4 5 7 7 8 9 12 13 16 18 18 18 19 20 21 22 22 24
6 3 3 8 8 10 11 4 3 3 2 3 3 4 4 3 4 3 2 2 1 2 3 2 4 1 1 2 3 4 3 3 3 2 2 1 6 7 6 6 7 11 12 14 14 15 16 16 18 21 19 20 21 22
3 1 4 10 12 13 5 4 2 2 4 4 3 3 3 3 2 3 2 2 3 2 2 2 2 3 3 3 3 3 4 3 3 5 4 4 6 6 5 6 8 13 14 15 16 17 18 20 20 18 20 23 22 21
2 1 4 11 10 3 3 4 2 2 5 3 3 3 3 3 4 5 3 3 3 2 3 2 3 4 4 4 6 7 3 4 2 2 3 5 7 6 5 7 9 12 15 17 18 16 17 21 20 21 23 25 23 23
0 3 4 9 5 2 2 2 3 3 3 1 2 3 3 3 1 3 5 4 2 1 1 2 4 5 4 4 3 4 3 2 3 2 2 1 2 2 4 7 8 9 13 12 11 13 14 13 14 17 22 25 23 22
4 4 7 8 3 1 1 2 3 3 3 3 1 2 2 1 2 4 3 3 2 3 4 6 7 5 4 5 7 4 4 4 4 3 2 3 1 4 6 7 11 10 11 12 10 12 15 15 18 19 22 21 20 21
4 7 4 4 3 2 2 4 3 3 2 2 2 2 3 2 3 3 4 4 3 4 4 2 3 2 3 4 5 8 10 8 8 6 3 3 3 3 5 9 11 8 10 12 13 14 16 15 17 19 22 22 22 22
9 5 4 3 3 3 3 1 3 3 3 2 1 2 2 2 1 5 3 3 2 0 2 3 6 8 8 9 7 6 6 8 4 6 6 5 3 6 7 9 11 11 7 10 12 12 14 17 20 20 19 20 21 17
3 2 3 4 4 2 1 2 2 2 2 2 2 2 1 1 4 2 2 1 1 2 1 4 4 5 4 5 4 2 2 8 5 3 4 6 3 5 7 7 10 9 9 9 14 14 15 16 22 20 21 23 23 21
2 3 2 3 3 3 3 3 3 2 3 3 2 2 2 2 2 3 1 1 2 3 3 4 4 4 4 5 5 5 4 7 5 5 8 9 5 3 5 6 7 8 9 10 13 15 15 16 20 23 25 26 26 25
2 3 3 3 3 3 2 2 3 3 2 2 2 1 1 1 1 2 1 2 2 2 4 5 5 5 6 4 5 4 4 2 5 5 4 10 10 8 5 5 5 8 15 15 15 15 14 14 16 20 20 24 28 26
1 2 3 3 2 2 3 3 1 1 1 1 2 2 1 1 3 2 2 1 2 5 8 11 9 7 6 9 9 8 6 2 3 1 2 3 6 9 10 9 7 5 8 16 16 19 20 18 19 21 22 24 25 27
2 2 2 1 2 2 2 1 1 1 1 1 2 2 2 3 3 3 2 8 12 11 9 9 5 6 5 5 5 4 1 1 2 2 4 4 2 1 4 8 10 8 8 13 15 16 20 23 21 21 19 17 22 24
2 2 2 3 2 2 1 1 0 1 1 1 2 1 2 0 1 2 5 13 10 6 7 9 10 10 3 6 9 7 6 5 2 3 3 3 2 2 2 3 5 9 10 10 13 13 17 17 18 21 24 22 16 12
2 3 2 1 2 3 2 2 1 2 1 1 1 0 0 0 2 4 6 7 8 7 7 7 7 8 8 9 10 13 13 9 7 6 4 4 3 4 4 4 2 3 4 4 5 8 12 13 13 13 15 18 19 15
2 1 2 1 1 1 2 1 1 1 1 1 1 2 1 1 1 2 5 4 5 7 9 9 12 12 13 13 10 9 9 13 12 12 9 6 5 4 4 4 4 3 4 4 4 5 7 10 11 15 17 20 22 26
2 2 1 2 2 4 2 0 1 1 1 2 2 2 2 0 2 2 6 6 7 9 8 8 9 10 9 9 9 10 10 8 10 11 12 8 4 2 2 1 2 4 4 4 4 5 7 7 9 11 15 19 19 19
1 2 4 3 2 2 3 2 2 2 1 2 4 3 0 2 3 2 1 4 4 5 6 6 5 5 5 6 7 6 8 9 11 10 11 12 13 9 4 2 3 3 4 4 5 5 7 6 5 7 12 15 16 15

GFSWCAN_925_spd_120.txt.gz
Wind_Speed
12 13 11 10 11 11 11 11 12 10 8 9 8 7 6 6 5 5 3 6 5 4 9 7 7 8 4 4 5 5 7 4 7 6 4 4 5 5 5 4 4 7 5 4 5 3 8 5 5 6 5 2 1 0
10 11 11 11 12 12 13 12 13 11 10 11 9 7 7 7 7 6 4 4 7 6 8 12 16 18 17 13 7 3 5 9 5 5 3 3 4 4 6 4 5 3 3 2 3 2 2 1 8 4 6 3 2 7
10 10 12 11 11 11 12 13 12 11 10 10 9 8 8 7 7 8 5 5 3 4 10 14 11 19 21 25 17 4 3 3 2 4 3 2 3 4 5 4 3 5 3 4 3 4 3 2 4 3 2 4 12 13
12 11 12 13 12 12 11 12 12 12 11 10 9 8 6 6 7 10 13 7 5 5 4 2 4 7 6 15 21 22 7 1 2 3 5 4 5 3 0 3 6 4 8 3 5 2 1 2 3 5 8 12 16 16
13 13 13 14 13 13 13 12 12 13 11 9 9 8 5 5 5 6 16 12 9 5 4 6 20 11 10 15 15 19 16 8 3 4 5 5 3 4 1 2 5 7 4 5 5 3 2 7 7 7 10 12 13 15
13 13 14 13 13 12 12 11 11 12 10 8 8 7 5 6 5 3 2 8 15 9 4 4 6 3 2 13 16 13 12 6 7 1 2 1 2 4 5 5 4 8 4 2 2 5 4 9 8 6 9 12 12 15
14 14 14 13 13 13 11 11 12 9 8 7 7 6 5 5 6 5 3 4 11 12 3 4 3 4 2 8 8 7 9 4 6 2 4 3 4 4 5 6 3 8 7 7 3 9 8 11 9 8 10 12 14 19
14 15 15 13 12 11 10 11 9 8 6 6 5 5 5 4 6 7 10 17 9 4 4 4 3 4 4 6 6 6 6 6 2 6 3 5 3 3 4 6 10 5 9 9 9 12 9 10 11 10 11 11 11 13
14 14 13 11 11 10 10 10 8 6 5 6 4 3 2 4 4 1 6 8 11 5 4 3 3 3 1 4 2 5 6 6 4 8 6 4 6 5 6 6 7 10 10 10 11 11 9 14 13 12 11 11 10 11
15 14 11 11 11 10 9 8 7 6 5 4 3 3 2 3 6 14 3 5 5 4 4 4 3 3 2 5 8 6 3 7 6 9 5 6 10 10 11 8 8 9 13 9 15 13 11 13 15 14 11 9 9 11
13 11 11 11 10 10 9 8 7 5 4 3 3 2 5 7 7 3 4 5 5 4 5 4 7 5 3 4 7 2 5 3 3 6 6 7 8 12 12 14 13 10 12 12 16 16 16 16 15 14 12 11 12 13
8 7 8 9 10 9 9 10 7 5 4 3 2 2 2 4 4 5 5 4 5 4 5 5 4 5 2 3 3 4 6 6 5 4 6 11 8 9 13 11 14 13 13 14 16 13 15 15 17 17 16 15 15 15
9 8 7 9 9 9 10 10 8 6 4 1 2 3 3 3 4 5 7 4 4 4 4 5 4 4 3 3 2 4 5 6 4 4 5 5 6 10 11 11 10 15 15 14 14 14 18 19 19 19 18 19 20 19
9 9 8 8 10 9 10 9 7 5 3 2 3 4 5 4 5 4 4 1 1 2 1 4 4 4 3 4 2 1 2 3 4 6 8 6 9 11 7 7 7 13 15 14 15 17 17 17 17 18 20 22 22 21
6 7 7 9 11 10 9 9 8 7 2 3 3 3 6 5 1 1 2 3 3 2 2 4 2 2 3 3 4 4 2 5 5 5 6 6 7 3 3 6 8 10 13 12 14 14 17 19 17 17 20 22 22 22
5 4 7 8 11 12 10 10 6 5 2 3 4 5 4 4 5 4 5 5 4 4 2 2 2 4 5 2 6 8 6 5 3 3 1 2 2 2 4 5 7 8 11 13 17 18 20 20 20 20 21 22 23 25
7 3 5 10 11 10 13 4 5 3 3 3 5 6 6 4 3 3 4 4 0 2 4 2 3 5 3 4 6 4 6 6 4 3 0 1 4 5 4 4 6 9 10 15 19 20 20 20 19 19 17 22 23 24
3 3 7 12 13 13 5 4 2 3 5 6 5 4 5 4 4 5 3 3 3 3 2 3 2 5 4 4 4 4 6 1 3 5 6 5 5 6 6 5 4 9 11 16 18 19 21 21 19 18 20 23 22 22
3 2 10 15 12 5 4 5 4 2 5 4 5 5 5 5 6 6 4 3 4 1 2 2 5 5 6 5 7 8 5 5 6 8 5 6 7 7 6 4 3 7 11 15 18 18 19 20 18 20 21 24 21 24
2 4 8 12 8 2 3 3 4 3 3 1 3 4 4 5 2 4 6 6 2 2 3 3 4 6 5 5 4 5 5 5 5 4 4 2 3 4 3 3 4 9 11 13 14 14 16 16 15 18 21 23 22 23
4 5 7 7 4 3 2 2 3 3 3 3 2 4 4 5 4 3 3 3 3 2 3 6 7 7 7 7 9 8 6 5 6 5 5 5 3 4 1 4 7 8 10 12 9 12 14 15 17 18 20 22 22 24
4 8 4 5 3 3 3 5 3 2 3 2 2 3 4 4 3 1 3 2 2 9 9 6 6 5 6 3 7 8 8 8 9 8 6 6 5 3 4 7 10 7 9 9 11 12 13 14 16 17 20 21 21 22
8 5 3 4 3 2 4 2 3 3 4 2 2 2 3 3 5 7 4 5 4 2 2 4 6 10 9 11 9 8 6 7 5 6 6 7 6 5 5 6 6 7 6 9 8 8 12 13 17 18 19 20 22 21
4 3 3 4 4 2 2 3 4 3 3 3 3 3 4 3 6 4 4 3 2 3 2 2 4 5 6 7 6 3 3 6 7 6 6 6 4 5 7 7 9 8 7 9 10 11 12 14 16 16 18 19 20 21
1 2 2 3 3 3 4 4 3 2 3 3 3 3 3 3 3 3 1 2 4 3 3 3 3 4 5 5 4 3 2 6 5 5 6 7 4 4 6 5 6 6 6 8 11 13 13 13 15 17 18 20 22 24
5 5 3 3 4 4 1 2 4 5 3 3 2 0 2 2 2 3 2 4 3 2 4 4 4 5 5 4 4 4 4 4 4 5 3 5 6 6 5 5 4 7 11 12 9 11 13 15 16 19 19 21 23 22
2 2 4 3 1 1 2 4 5 4 2 1 2 1 2 2 3 1 1 3 5 8 7 7 8 6 6 6 6 3 4 1 1 2 1 1 3 4 6 5 4 2 6 10 13 13 14 15 16 18 18 20 21 22
2 3 1 5 4 5 3 3 2 0 2 2 2 2 2 3 3 3 4 8 9 8 5 8 5 6 5 5 4 3 2 1 1 1 2 3 2 1 1 2 4 5 4 7 9 8 7 9 14 15 17 19 19 27
2 1 3 3 1 1 1 2 3 3 3 3 2 2 3 1 2 2 5 9 6 6 5 5 6 5 3 4 5 4 4 5 6 7 6 5 4 8 6 4 3 3 3 3 7 4 6 8 9 9 13 16 17 23
3 5 3 1 2 4 3 3 3 3 3 3 2 2 2 1 2 6 6 8 8 6 6 5 4 5 6 9 8 10 11 13 13 10 6 7 6 6 6 6 5 3 2 3 4 5 7 8 8 8 8 11 16 19
1 2 2 1 3 2 3 3 2 1 1 2 2 2 2 2 3 7 7 6 7 6 8 10 11 12 11 11 10 8 8 13 12 11 8 4 3 4 6 6 5 4 4 3 2 2 4 6 6 7 8 9 13 16
2 2 2 1 2 3 2 2 1 0 2 2 1 1 2 2 3 3 6 4 6 7 6 8 10 10 10 10 10 10 10 10 11 12 12 10 5 0 1 3 3 4 4 4 4 4 3 1 0 2 4 7 9 14
2 4 5 4 3 2 1 1 1 2 3 2 3 2 1 4 5 3 3 5 7 7 8 8 8 9 9 10 10 11 10 10 10 11 11 12 11 8 5 5 5 4 3 3 4 4 3 2 2 3 4 8 11 10

GFSWCAN_925_spd_123.txt.gz
Wind_Speed
12 12 12 11 12 12 12 12 12 10 9 8 8 6 6 7 6 7 6 8 7 4 11 10 11 13 11 8 8 5 7 10 9 11 11 4 6 6 6 10 8 7 9 9 6 3 8 6 2 7 5 6 13 16
11 10 11 11 12 13 14 12 14 12 11 9 8 6 7 7 8 8 6 7 6 6 7 18 18 20 20 16 8 7 7 8 7 8 7 3 6 5 5 8 4 7 4 3 5 3 3 2 7 3 7 8 5 10
10 10 11 12 13 13 13 12 13 12 11 9 7 6 8 8 9 11 6 5 5 5 12 17 14 26 25 24 17 5 6 10 4 7 3 5 6 6 8 7 10 10 5 5 4 7 4 2 1 2 2 4 8 6
11 12 12 13 14 14 13 12 11 12 11 10 8 7 8 8 8 11 8 8 8 6 5 3 6 13 12 19 25 22 15 14 8 5 6 4 6 6 3 4 5 4 6 5 8 6 4 5 4 8 7 9 8 10
13 13 13 13 14 15 15 13 12 11 12 11 8 7 8 7 8 8 12 13 10 4 4 8 22 18 16 13 16 20 18 12 7 6 6 9 5 4 5 4 5 10 5 4 2 3 8 7 10 10 8 8 10 12
14 14 14 14 14 14 13 12 12 11 11 10 8 7 8 7 6 5 3 9 18 7 3 4 3 6 8 14 18 16 13 7 7 5 5 4 5 3 5 7 8 6 2 1 2 2 9 10 8 14 13 10 8 12
15 15 14 15 14 13 13 11 10 10 9 8 7 7 8 7 6 6 2 3 10 11 3 4 4 9 8 12 11 9 14 9 7 5 3 9 5 5 9 4 3 6 6 6 3 7 7 11 8 10 12 11 14 16
18 17 16 15 14 12 12 10 9 9 7 6 6 6 6 6 7 10 14 12 9 4 5 4 4 5 12 7 9 8 8 8 7 6 7 9 4 5 6 1 3 9 6 9 8 8 10 9 11 9 12 14 14 11
15 15 15 14 12 10 10 9 8 7 6 5 5 5 3 4 5 2 6 11 9 4 4 4 5 1 4 8 5 8 8 8 7 10 13 5 10 7 8 7 5 5 7 10 10 9 9 13 12 10 11 11 16 15
15 16 15 13 10 10 9 8 7 7 6 5 4 4 3 4 6 9 7 5 5 4 5 5 6 3 4 6 6 8 6 5 2 10 8 9 13 10 9 6 5 6 7 14 13 11 11 13 14 12 11 10 10 12
16 14 13 12 11 9 9 8 8 6 3 3 4 3 2 7 8 5 4 6 7 5 6 8 11 1 3 3 5 4 3 1 5 7 11 8 13 14 15 11 10 11 11 12 11 11 13 13 14 13 11 10 10 14
12 10 8 8 9 9 9 9 10 8 3 3 2 3 3 4 5 5 5 4 6 5 6 7 8 8 4 1 2 1 3 3 5 5 7 15 9 10 13 17 14 14 13 14 14 12 14 14 16 15 12 12 13 12
10 9 8 8 9 9 10 12 13 7 2 2 2 2 4 5 5 6 7 5 4 5 4 4 5 4 4 3 3 5 7 6 1 5 7 6 6 9 14 15 17 14 13 16 14 15 17 16 15 18 16 17 17 16
9 10 9 8 8 9 9 11 11 7 3 2 4 4 5 4 5 6 3 3 3 3 1 4 5 5 5 6 5 3 5 6 6 7 8 5 8 9 10 11 11 14 15 16 16 14 14 16 16 18 20 20 21 20
7 8 9 9 10 10 11 11 11 7 2 3 3 3 6 6 5 4 4 3 3 1 3 3 3 2 5 3 4 4 4 4 5 7 2 1 7 8 6 4 6 8 10 13 14 14 15 19 18 18 21 21 23 24
5 4 8 8 11 13 10 11 8 4 3 3 4 5 6 5 6 6 5 3 2 3 2 2 3 4 6 3 5 7 5 4 2 3 5 5 5 4 3 4 6 7 9 12 19 19 20 20 19 20 21 23 24 26
6 3 4 9 11 13 13 6 4 4 3 4 6 8 9 5 5 3 1 2 2 4 4 2 4 5 0 4 8 4 10 8 2 3 5 6 3 2 2 3 4 7 9 14 17 17 20 23 23 22 16 22 24 25
3 3 6 10 13 12 6 4 3 4 7 7 7 7 7 6 6 4 1 3 3 2 5 5 3 3 3 3 2 4 6 2 2 5 3 5 4 3 4 4 5 7 11 13 17 19 19 21 18 17 22 23 23 23
4 3 9 14 12 5 4 8 5 3 5 4 6 7 6 5 5 5 4 4 4 2 1 2 4 5 7 4 3 7 2 2 4 5 6 2 4 3 4 5 5 6 10 13 15 18 21 21 22 22 23 24 22 24
1 3 11 17 10 2 4 3 4 4 4 3 5 7 7 6 4 6 6 6 4 2 3 4 5 4 1 3 3 10 3 4 5 4 5 9 6 3 3 4 4 5 9 12 15 16 18 19 22 23 23 24 22 23
4 6 8 9 4 4 4 2 4 3 4 3 4 5 4 5 8 5 3 1 5 5 7 7 5 2 5 7 7 7 5 6 7 7 4 4 2 3 2 4 6 8 9 11 9 14 16 18 21 20 21 22 23 24
3 9 4 4 2 4 5 6 4 3 3 4 5 4 4 5 4 3 1 4 5 6 6 6 5 1 2 6 5 7 9 8 7 9 7 8 6 6 4 6 7 6 9 12 15 14 17 19 18 17 19 21 22 23
9 6 3 5 4 3 4 3 4 3 3 3 3 3 3 3 4 4 3 4 4 3 3 7 2 5 8 10 10 11 10 6 6 6 8 9 10 9 9 8 10 10 8 9 10 12 13 11 12 15 14 16 21 21
3 2 3 4 7 3 2 3 3 4 4 7 4 3 4 4 6 3 3 4 1 2 2 1 3 6 7 10 9 5 12 10 8 6 6 7 2 3 7 7 8 7 6 11 9 9 6 8 11 16 18 21 22 21
2 3 2 3 3 3 4 4 5 5 4 5 3 2 3 4 4 4 2 2 3 2 2 2 4 3 5 7 7 1 6 6 7 3 5 4 6 14 7 6 6 9 9 7 6 4 6 13 17 18 19 20 22 22
1 3 3 3 3 5 3 2 3 4 4 3 3 1 2 3 3 2 3 3 4 3 2 1 3 4 4 1 2 3 6 5 6 7 2 3 4 6 1 2 5 8 8 5 5 3 13 19 15 15 17 17 15 19
3 5 5 5 3 2 4 4 6 5 3 1 2 2 0 1 3 3 3 2 3 6 3 3 7 6 4 5 5 4 5 3 3 5 6 5 7 8 7 2 4 5 9 8 8 6 14 9 6 6 15 16 16 21
2 3 1 3 2 3 4 3 2 1 1 2 1 1 2 3 3 2 3 8 7 6 0 5 6 7 5 2 2 4 1 3 4 1 2 6 5 6 4 4 4 4 2 3 5 11 12 13 10 10 11 7 7 5
3 3 6 7 8 6 3 3 2 3 4 4 2 3 3 2 4 2 4 5 3 5 3 2 3 4 4 5 3 7 8 9 7 9 10 5 3 3 6 7 5 2 3 3 5 6 7 7 6 8 10 12 10 14
1 3 2 1 2 4 4 4 3 5 5 5 4 5 5 3 7 7 7 5 4 4 3 1 4 2 7 9 8 14 15 14 15 11 6 5 5 6 6 5 4 3 3 4 6 7 5 5 5 7 8 8 11 14
3 4 2 3 2 2 4 4 4 4 3 4 5 4 4 3 9 8 7 6 10 17 13 11 12 13 13 9 7 6 7 11 12 12 11 10 6 6 7 7 6 6 5 5 4 3 2 6 7 7 8 9 8 9
3 1 2 2 2 1 2 3 3 2 3 3 2 3 3 3 5 4 5 2 9 10 6 4 6 8 9 10 9 9 10 12 12 14 14 12 10 6 5 3 3 5 5 4 3 4 3 5 5 2 3 5 6 6
3 3 3 3 3 2 2 1 2 2 3 0 3 4 6 6 5 3 4 7 8 8 8 10 11 10 9 9 8 9 10 10 10 12 11 10 9 10 12 6 6 4 3 5 5 2 1 2 2 4 4 4 3 4

GFSWCAN_925_spd_126.txt.gz
Wind_Speed
13 12 11 12 12 13 13 12 11 14 13 12 10 9 9 9 7 5 10 6 8 6 15 20 18 15 11 4 2 9 8 7 9 9 8 6 3 5 9 6 12 9 8 8 10 5 9 5 9 14 6 4 6 12
14 11 11 11 11 11 11 13 12 12 14 13 11 9 9 9 8 6 8 5 7 6 11 27 26 25 19 12 3 7 9 12 3 7 4 2 6 11 7 8 12 10 8 5 3 3 9 4 7 7 6 9 1 13
9 10 11 12 12 12 12 11 11 10 12 12 11 9 9 9 9 9 10 9 5 5 14 18 16 31 27 23 19 3 5 9 10 10 5 3 6 8 8 4 7 12 2 4 5 5 22 5 7 5 5 16 4 21
11 11 12 13 13 13 14 15 11 10 10 12 11 10 10 10 9 9 7 6 6 6 5 5 17 16 15 19 23 21 19 18 13 8 3 2 6 7 5 5 4 6 2 3 8 4 8 9 9 2 5 5 4 12
12 12 13 14 13 13 14 14 13 11 10 11 11 10 9 9 9 9 13 16 15 4 4 10 27 22 14 18 20 22 19 10 7 5 7 4 12 3 6 3 4 8 5 5 3 11 8 10 15 10 7 19 8 6
13 13 13 14 13 13 14 12 12 10 10 10 11 9 9 8 7 5 3 8 11 8 3 4 6 14 11 16 12 12 12 8 4 4 7 6 6 2 6 9 15 12 2 3 7 16 8 7 5 19 4 13 13 13
13 13 14 16 14 14 14 12 12 9 9 9 8 8 8 9 7 6 2 2 6 10 3 4 4 8 15 11 10 8 15 7 6 8 9 8 4 9 9 3 11 5 11 10 4 8 10 6 11 16 12 11 15 17
14 14 17 15 13 14 12 11 9 8 7 7 6 6 6 6 8 10 14 10 11 4 5 4 6 5 8 7 9 10 9 8 8 7 8 5 1 3 5 6 11 4 3 12 6 8 8 9 8 5 6 11 12 11
13 15 14 13 13 11 10 8 7 6 6 6 5 5 4 4 4 3 1 17 9 4 4 5 7 2 9 8 9 10 8 8 7 11 12 6 4 1 14 11 4 2 5 7 8 7 7 15 11 8 8 11 14 13
14 15 14 14 13 10 9 8 8 6 6 3 2 3 3 5 7 8 7 5 4 4 4 6 5 2 4 4 4 2 7 6 9 11 6 10 11 12 21 18 6 2 5 7 9 9 6 15 13 10 8 11 10 10
15 15 12 13 10 9 8 7 6 6 4 3 3 3 3 5 7 4 4 6 6 5 6 8 11 4 6 4 3 6 3 1 2 5 8 6 9 12 14 11 7 6 7 9 10 10 11 8 12 12 10 10 14 20
14 10 10 7 6 8 9 9 8 8 1 3 4 5 4 4 4 5 4 4 6 4 4 8 8 6 2 3 3 3 2 2 7 6 7 8 10 18 16 15 11 10 12 12 12 13 11 10 11 13 10 10 9 21
12 10 6 6 7 8 9 10 11 6 3 2 1 3 3 5 6 6 6 5 5 3 3 4 4 5 5 5 2 3 2 2 3 5 5 5 10 8 8 9 13 12 16 15 13 16 12 14 14 18 12 14 14 19
9 7 8 7 6 9 9 10 12 8 2 2 2 3 4 5 6 7 2 5 3 4 6 3 4 4 5 3 3 5 5 2 5 4 3 6 9 8 7 9 11 14 14 16 12 11 11 10 13 14 19 16 18 16
5 7 8 8 7 9 8 11 12 7 2 2 3 4 6 8 5 5 5 2 2 4 5 3 4 4 3 4 2 4 5 4 5 4 3 6 8 8 7 8 10 12 12 11 11 12 10 14 13 14 18 18 22 21
4 4 7 8 9 11 11 10 10 5 2 3 5 5 8 7 7 6 5 4 4 2 2 3 3 4 4 4 6 7 4 5 1 4 7 10 11 3 3 3 1 3 3 8 10 12 13 14 11 17 18 18 26 26
3 2 2 9 11 13 13 7 6 4 3 4 6 9 10 5 4 3 6 2 3 5 2 2 4 8 5 5 6 3 5 3 7 4 9 9 6 6 6 4 4 5 6 8 7 10 14 16 14 19 12 18 25 26
3 2 4 11 14 10 7 3 3 4 7 10 8 8 6 1 6 4 3 6 2 2 2 3 3 3 2 3 4 4 3 3 1 5 5 4 4 4 6 5 5 5 7 10 11 11 15 14 11 12 19 20 18 25
2 2 8 15 11 5 4 5 4 4 8 7 5 8 5 7 4 6 5 4 4 4 3 2 5 5 6 2 3 4 8 9 7 2 3 8 12 7 6 7 7 7 7 9 10 12 13 16 14 15 20 22 17 20
5 4 11 15 10 3 4 4 9 5 4 4 5 7 5 7 5 5 4 5 4 3 3 4 7 5 1 2 2 3 8 8 6 6 6 1 15 18 15 9 9 6 6 9 12 14 16 15 18 20 22 23 20 19
1 5 12 13 5 3 3 3 4 4 5 4 3 4 4 5 5 7 2 3 3 3 4 7 7 1 1 3 10 7 6 5 6 5 5 6 9 17 17 16 8 8 6 7 8 11 13 15 21 22 21 27 28 25
3 7 4 5 3 4 5 8 4 2 3 5 6 6 4 5 5 4 2 5 3 9 9 3 6 3 5 8 6 7 9 8 11 10 10 17 9 11 13 12 9 6 9 6 10 11 18 19 21 26 23 25 23 22
8 4 1 3 3 4 6 5 4 3 4 2 4 3 3 3 3 5 3 5 7 5 4 3 2 7 8 7 12 14 11 12 7 5 6 8 6 9 11 15 13 9 7 10 14 10 14 8 5 8 11 28 26 20
3 2 4 5 8 3 3 3 4 3 2 3 3 4 3 3 5 3 3 2 1 2 3 2 4 6 6 6 6 6 20 27 22 16 11 14 4 9 19 11 12 10 11 9 7 5 5 10 7 11 4 8 6 9
1 3 3 3 3 4 5 4 8 5 4 6 4 3 1 3 3 3 2 3 4 2 3 2 3 4 7 5 8 11 6 20 12 5 2 6 6 6 12 16 26 5 8 6 14 10 13 10 3 8 11 12 7 16
3 5 4 3 1 4 3 3 2 3 5 3 3 2 2 2 1 3 1 1 2 2 2 2 3 4 6 4 7 1 7 10 8 3 8 8 14 7 2 2 4 12 23 33 17 11 11 8 10 12 19 14 17 22
3 5 5 4 3 5 4 6 6 3 3 2 1 2 0 1 3 3 0 1 3 5 1 3 5 4 5 4 6 8 19 19 14 12 9 9 18 8 11 12 1 10 3 12 15 5 7 12 12 12 11 24 14 8
4 4 4 6 4 4 5 4 2 1 2 3 1 2 2 3 2 3 2 1 2 2 2 3 6 7 8 6 10 29 28 17 16 9 11 11 14 14 15 11 9 6 8 2 3 1 1 3 6 11 19 24 19 3
2 1 1 4 5 4 3 2 2 1 3 1 1 2 3 3 4 3 2 0 1 2 5 2 9 6 11 8 15 18 14 13 5 4 8 6 4 7 7 9 11 11 9 8 6 6 4 6 5 5 6 5 4 7
7 7 4 2 2 1 1 2 2 3 2 4 4 6 6 7 9 2 2 6 3 4 3 3 8 7 5 5 11 12 14 16 18 13 6 1 7 9 13 18 16 8 4 3 5 5 2 1 1 1 2 3 5 6
1 1 2 0 3 2 3 4 4 3 2 7 6 4 5 5 10 11 12 11 9 10 12 13 9 7 7 11 10 7 9 16 15 14 14 14 13 11 11 10 8 6 8 8 8 8 4 6 7 4 2 3 3 3
1 2 1 2 3 5 5 4 4 3 4 4 3 3 3 1 6 3 6 3 9 11 7 5 5 14 12 12 14 13 15 13 14 14 15 14 15 13 10 6 4 9 8 6 5 7 7 7 5 6 3 0 4 4
3 0 3 4 3 2 3 3 3 3 3 2 1 1 3 5 7 3 4 8 7 11 12 9 9 9 6 7 6 8 9 12 12 12 14 14 15 16 15 16 15 15 15 10 12 9 12 12 8 11 9 4 5 7